<?xml version="1.0" encoding="UTF-8" standalone="no" ?>
<gpx xmlns="http://www.topografix.com/GPX/1/1" xmlns:xsi="http://www.w3.org/2001/XMLSchema-instance" xsi:schemaLocation="http://www.topografix.com/GPX/1/1 http://www.topografix.com/GPX/1/1/gpx.xsd" version="1.1" creator="VisuGPX - https://www.visugpx.com">
  <metadata>
    <name>12817399-Lanarce  Le Beage (7)</name>
  </metadata>
  <trk>
    <name><![CDATA[12817399-Lanarce  Le Beage (7)]]></name>
    <extensions>
      <line xmlns="http://www.topografix.com/GPX/gpx_style/0/2">
        <color>0000FF</color>
        <width>4</width>
      </line>
    </extensions>
    <trkseg>
      <trkpt lat="44.72807" lon="4.00662">
        <ele>1196</ele>
        <time>2021-04-10T12:07:20Z</time>
      </trkpt>
      <trkpt lat="44.7282" lon="4.00682">
        <ele>1199</ele>
        <time>2021-04-10T12:07:23Z</time>
      </trkpt>
      <trkpt lat="44.7276" lon="4.00767">
        <ele>1200</ele>
        <time>2021-04-10T12:07:39Z</time>
      </trkpt>
      <trkpt lat="44.72729" lon="4.00783">
        <ele>1197</ele>
        <time>2021-04-10T12:07:44Z</time>
      </trkpt>
      <trkpt lat="44.72697" lon="4.0078">
        <ele>1192</ele>
        <time>2021-04-10T12:07:50Z</time>
      </trkpt>
      <trkpt lat="44.72661" lon="4.00761">
        <ele>1187</ele>
        <time>2021-04-10T12:07:57Z</time>
      </trkpt>
      <trkpt lat="44.72568" lon="4.00706">
        <ele>1186</ele>
        <time>2021-04-10T12:08:15Z</time>
      </trkpt>
      <trkpt lat="44.72532" lon="4.00684">
        <ele>1183</ele>
        <time>2021-04-10T12:08:22Z</time>
      </trkpt>
      <trkpt lat="44.72513" lon="4.00684">
        <ele>1182</ele>
        <time>2021-04-10T12:08:25Z</time>
      </trkpt>
      <trkpt lat="44.72498" lon="4.00703">
        <ele>1184</ele>
        <time>2021-04-10T12:08:29Z</time>
      </trkpt>
      <trkpt lat="44.72483" lon="4.00741">
        <ele>1186</ele>
        <time>2021-04-10T12:08:34Z</time>
      </trkpt>
      <trkpt lat="44.72478" lon="4.00755">
        <ele>1186</ele>
        <time>2021-04-10T12:08:36Z</time>
      </trkpt>
      <trkpt lat="44.72469" lon="4.00758">
        <ele>1185</ele>
        <time>2021-04-10T12:08:38Z</time>
      </trkpt>
      <trkpt lat="44.72465" lon="4.00757">
        <ele>1185</ele>
        <time>2021-04-10T12:08:39Z</time>
      </trkpt>
      <trkpt lat="44.72458" lon="4.00754">
        <ele>1184</ele>
        <time>2021-04-10T12:08:40Z</time>
      </trkpt>
      <trkpt lat="44.72427" lon="4.00731">
        <ele>1180</ele>
        <time>2021-04-10T12:08:46Z</time>
      </trkpt>
      <trkpt lat="44.72411" lon="4.00713">
        <ele>1182</ele>
        <time>2021-04-10T12:08:50Z</time>
      </trkpt>
      <trkpt lat="44.72405" lon="4.00698">
        <ele>1184</ele>
        <time>2021-04-10T12:08:52Z</time>
      </trkpt>
      <trkpt lat="44.72405" lon="4.00677">
        <ele>1185</ele>
        <time>2021-04-10T12:08:55Z</time>
      </trkpt>
      <trkpt lat="44.72407" lon="4.00637">
        <ele>1186</ele>
        <time>2021-04-10T12:09:00Z</time>
      </trkpt>
      <trkpt lat="44.72417" lon="4.00538">
        <ele>1183</ele>
        <time>2021-04-10T12:09:12Z</time>
      </trkpt>
      <trkpt lat="44.72413" lon="4.00512">
        <ele>1182</ele>
        <time>2021-04-10T12:09:16Z</time>
      </trkpt>
      <trkpt lat="44.72408" lon="4.00499">
        <ele>1182</ele>
        <time>2021-04-10T12:09:18Z</time>
      </trkpt>
      <trkpt lat="44.72399" lon="4.00485">
        <ele>1181</ele>
        <time>2021-04-10T12:09:20Z</time>
      </trkpt>
      <trkpt lat="44.72384" lon="4.00475">
        <ele>1180</ele>
        <time>2021-04-10T12:09:23Z</time>
      </trkpt>
      <trkpt lat="44.7236" lon="4.00471">
        <ele>1182</ele>
        <time>2021-04-10T12:09:27Z</time>
      </trkpt>
      <trkpt lat="44.72317" lon="4.00475">
        <ele>1185</ele>
        <time>2021-04-10T12:09:35Z</time>
      </trkpt>
      <trkpt lat="44.72259" lon="4.00486">
        <ele>1185</ele>
        <time>2021-04-10T12:09:45Z</time>
      </trkpt>
      <trkpt lat="44.72213" lon="4.0052">
        <ele>1186</ele>
        <time>2021-04-10T12:09:55Z</time>
      </trkpt>
      <trkpt lat="44.72114" lon="4.00631">
        <ele>1194</ele>
        <time>2021-04-10T12:10:17Z</time>
      </trkpt>
      <trkpt lat="44.72077" lon="4.00666">
        <ele>1195</ele>
        <time>2021-04-10T12:10:25Z</time>
      </trkpt>
      <trkpt lat="44.71934" lon="4.0073">
        <ele>1201</ele>
        <time>2021-04-10T12:10:52Z</time>
      </trkpt>
      <trkpt lat="44.71715" lon="4.00738">
        <ele>1205</ele>
        <time>2021-04-10T12:11:31Z</time>
      </trkpt>
      <trkpt lat="44.71674" lon="4.00759">
        <ele>1206</ele>
        <time>2021-04-10T12:11:39Z</time>
      </trkpt>
      <trkpt lat="44.71634" lon="4.00784">
        <ele>1208</ele>
        <time>2021-04-10T12:11:46Z</time>
      </trkpt>
      <trkpt lat="44.71596" lon="4.00778">
        <ele>1203</ele>
        <time>2021-04-10T12:11:53Z</time>
      </trkpt>
      <trkpt lat="44.71385" lon="4.00722">
        <ele>1207</ele>
        <time>2021-04-10T12:12:31Z</time>
      </trkpt>
      <trkpt lat="44.71328" lon="4.0072">
        <ele>1207</ele>
        <time>2021-04-10T12:12:42Z</time>
      </trkpt>
      <trkpt lat="44.7128" lon="4.00722">
        <ele>1206</ele>
        <time>2021-04-10T12:12:50Z</time>
      </trkpt>
      <trkpt lat="44.71217" lon="4.00749">
        <ele>1207</ele>
        <time>2021-04-10T12:13:02Z</time>
      </trkpt>
      <trkpt lat="44.71113" lon="4.00815">
        <ele>1210</ele>
        <time>2021-04-10T12:13:22Z</time>
      </trkpt>
      <trkpt lat="44.71081" lon="4.00857">
        <ele>1210</ele>
        <time>2021-04-10T12:13:30Z</time>
      </trkpt>
      <trkpt lat="44.71063" lon="4.00893">
        <ele>1211</ele>
        <time>2021-04-10T12:13:35Z</time>
      </trkpt>
      <trkpt lat="44.71048" lon="4.00938">
        <ele>1213</ele>
        <time>2021-04-10T12:13:42Z</time>
      </trkpt>
      <trkpt lat="44.71033" lon="4.00959">
        <ele>1212</ele>
        <time>2021-04-10T12:13:45Z</time>
      </trkpt>
      <trkpt lat="44.71018" lon="4.00963">
        <ele>1210</ele>
        <time>2021-04-10T12:13:48Z</time>
      </trkpt>
      <trkpt lat="44.70987" lon="4.00947">
        <ele>1207</ele>
        <time>2021-04-10T12:13:54Z</time>
      </trkpt>
      <trkpt lat="44.70938" lon="4.00903">
        <ele>1211</ele>
        <time>2021-04-10T12:14:04Z</time>
      </trkpt>
      <trkpt lat="44.70918" lon="4.00865">
        <ele>1212</ele>
        <time>2021-04-10T12:14:10Z</time>
      </trkpt>
      <trkpt lat="44.70899" lon="4.00847">
        <ele>1212</ele>
        <time>2021-04-10T12:14:14Z</time>
      </trkpt>
      <trkpt lat="44.70875" lon="4.00838">
        <ele>1213</ele>
        <time>2021-04-10T12:14:19Z</time>
      </trkpt>
      <trkpt lat="44.70759" lon="4.0082">
        <ele>1218</ele>
        <time>2021-04-10T12:14:40Z</time>
      </trkpt>
      <trkpt lat="44.70708" lon="4.00822">
        <ele>1219</ele>
        <time>2021-04-10T12:14:49Z</time>
      </trkpt>
      <trkpt lat="44.70676" lon="4.0083">
        <ele>1221</ele>
        <time>2021-04-10T12:14:54Z</time>
      </trkpt>
      <trkpt lat="44.70634" lon="4.00847">
        <ele>1223</ele>
        <time>2021-04-10T12:15:02Z</time>
      </trkpt>
      <trkpt lat="44.705" lon="4.00945">
        <ele>1233</ele>
        <time>2021-04-10T12:15:29Z</time>
      </trkpt>
      <trkpt lat="44.70478" lon="4.00974">
        <ele>1234</ele>
        <time>2021-04-10T12:15:35Z</time>
      </trkpt>
      <trkpt lat="44.7046" lon="4.0102">
        <ele>1237</ele>
        <time>2021-04-10T12:15:41Z</time>
      </trkpt>
      <trkpt lat="44.70446" lon="4.01103">
        <ele>1243</ele>
        <time>2021-04-10T12:15:52Z</time>
      </trkpt>
      <trkpt lat="44.7042" lon="4.01182">
        <ele>1245</ele>
        <time>2021-04-10T12:16:03Z</time>
      </trkpt>
      <trkpt lat="44.70401" lon="4.0124">
        <ele>1244</ele>
        <time>2021-04-10T12:16:11Z</time>
      </trkpt>
      <trkpt lat="44.70379" lon="4.01351">
        <ele>1249</ele>
        <time>2021-04-10T12:16:26Z</time>
      </trkpt>
      <trkpt lat="44.70338" lon="4.01449">
        <ele>1253</ele>
        <time>2021-04-10T12:16:40Z</time>
      </trkpt>
      <trkpt lat="44.70296" lon="4.01517">
        <ele>1255</ele>
        <time>2021-04-10T12:16:51Z</time>
      </trkpt>
      <trkpt lat="44.70279" lon="4.01537">
        <ele>1256</ele>
        <time>2021-04-10T12:16:55Z</time>
      </trkpt>
      <trkpt lat="44.70259" lon="4.01555">
        <ele>1256</ele>
        <time>2021-04-10T12:17:00Z</time>
      </trkpt>
      <trkpt lat="44.70125" lon="4.01633">
        <ele>1260</ele>
        <time>2021-04-10T12:17:25Z</time>
      </trkpt>
      <trkpt lat="44.70108" lon="4.01645">
        <ele>1260</ele>
        <time>2021-04-10T12:17:29Z</time>
      </trkpt>
      <trkpt lat="44.70092" lon="4.01666">
        <ele>1262</ele>
        <time>2021-04-10T12:17:33Z</time>
      </trkpt>
      <trkpt lat="44.69888" lon="4.01976">
        <ele>1264</ele>
        <time>2021-04-10T12:18:26Z</time>
      </trkpt>
      <trkpt lat="44.69867" lon="4.01997">
        <ele>1265</ele>
        <time>2021-04-10T12:18:31Z</time>
      </trkpt>
      <trkpt lat="44.69841" lon="4.02013">
        <ele>1264</ele>
        <time>2021-04-10T12:18:36Z</time>
      </trkpt>
      <trkpt lat="44.69815" lon="4.02034">
        <ele>1264</ele>
        <time>2021-04-10T12:18:41Z</time>
      </trkpt>
      <trkpt lat="44.69782" lon="4.02066">
        <ele>1264</ele>
        <time>2021-04-10T12:18:48Z</time>
      </trkpt>
      <trkpt lat="44.69755" lon="4.02095">
        <ele>1263</ele>
        <time>2021-04-10T12:18:54Z</time>
      </trkpt>
      <trkpt lat="44.69734" lon="4.0212">
        <ele>1263</ele>
        <time>2021-04-10T12:18:59Z</time>
      </trkpt>
      <trkpt lat="44.6972" lon="4.0214">
        <ele>1264</ele>
        <time>2021-04-10T12:19:03Z</time>
      </trkpt>
      <trkpt lat="44.69713" lon="4.02157">
        <ele>1264</ele>
        <time>2021-04-10T12:19:05Z</time>
      </trkpt>
      <trkpt lat="44.6971" lon="4.02175">
        <ele>1265</ele>
        <time>2021-04-10T12:19:07Z</time>
      </trkpt>
      <trkpt lat="44.6971" lon="4.02181">
        <ele>1265</ele>
        <time>2021-04-10T12:19:08Z</time>
      </trkpt>
      <trkpt lat="44.69712" lon="4.02196">
        <ele>1265</ele>
        <time>2021-04-10T12:19:10Z</time>
      </trkpt>
      <trkpt lat="44.69718" lon="4.02228">
        <ele>1265</ele>
        <time>2021-04-10T12:19:14Z</time>
      </trkpt>
      <trkpt lat="44.6972" lon="4.02246">
        <ele>1265</ele>
        <time>2021-04-10T12:19:17Z</time>
      </trkpt>
      <trkpt lat="44.69753" lon="4.02442">
        <ele>1265</ele>
        <time>2021-04-10T12:19:42Z</time>
      </trkpt>
      <trkpt lat="44.69756" lon="4.0246">
        <ele>1266</ele>
        <time>2021-04-10T12:19:44Z</time>
      </trkpt>
      <trkpt lat="44.69755" lon="4.02476">
        <ele>1266</ele>
        <time>2021-04-10T12:19:46Z</time>
      </trkpt>
      <trkpt lat="44.69751" lon="4.02489">
        <ele>1265</ele>
        <time>2021-04-10T12:19:48Z</time>
      </trkpt>
      <trkpt lat="44.69745" lon="4.02496">
        <ele>1263</ele>
        <time>2021-04-10T12:19:50Z</time>
      </trkpt>
      <trkpt lat="44.69711" lon="4.02532">
        <ele>1259</ele>
        <time>2021-04-10T12:19:57Z</time>
      </trkpt>
      <trkpt lat="44.697" lon="4.02543">
        <ele>1258</ele>
        <time>2021-04-10T12:20:00Z</time>
      </trkpt>
      <trkpt lat="44.69648" lon="4.02601">
        <ele>1251</ele>
        <time>2021-04-10T12:20:11Z</time>
      </trkpt>
      <trkpt lat="44.69637" lon="4.02616">
        <ele>1249</ele>
        <time>2021-04-10T12:20:14Z</time>
      </trkpt>
      <trkpt lat="44.69628" lon="4.02637">
        <ele>1249</ele>
        <time>2021-04-10T12:20:17Z</time>
      </trkpt>
      <trkpt lat="44.6962" lon="4.0267">
        <ele>1250</ele>
        <time>2021-04-10T12:20:22Z</time>
      </trkpt>
      <trkpt lat="44.69611" lon="4.02697">
        <ele>1251</ele>
        <time>2021-04-10T12:20:25Z</time>
      </trkpt>
      <trkpt lat="44.69604" lon="4.02709">
        <ele>1251</ele>
        <time>2021-04-10T12:20:27Z</time>
      </trkpt>
      <trkpt lat="44.69598" lon="4.02718">
        <ele>1250</ele>
        <time>2021-04-10T12:20:29Z</time>
      </trkpt>
      <trkpt lat="44.69491" lon="4.02883">
        <ele>1235</ele>
        <time>2021-04-10T12:20:57Z</time>
      </trkpt>
      <trkpt lat="44.69481" lon="4.02905">
        <ele>1234</ele>
        <time>2021-04-10T12:21:01Z</time>
      </trkpt>
      <trkpt lat="44.6947" lon="4.0298">
        <ele>1243</ele>
        <time>2021-04-10T12:21:10Z</time>
      </trkpt>
      <trkpt lat="44.69465" lon="4.02992">
        <ele>1243</ele>
        <time>2021-04-10T12:21:12Z</time>
      </trkpt>
      <trkpt lat="44.69456" lon="4.03005">
        <ele>1243</ele>
        <time>2021-04-10T12:21:14Z</time>
      </trkpt>
      <trkpt lat="44.69412" lon="4.03044">
        <ele>1244</ele>
        <time>2021-04-10T12:21:24Z</time>
      </trkpt>
      <trkpt lat="44.69398" lon="4.03048">
        <ele>1243</ele>
        <time>2021-04-10T12:21:26Z</time>
      </trkpt>
      <trkpt lat="44.69373" lon="4.03038">
        <ele>1236</ele>
        <time>2021-04-10T12:21:31Z</time>
      </trkpt>
      <trkpt lat="44.69358" lon="4.03036">
        <ele>1233</ele>
        <time>2021-04-10T12:21:33Z</time>
      </trkpt>
      <trkpt lat="44.69342" lon="4.03038">
        <ele>1231</ele>
        <time>2021-04-10T12:21:36Z</time>
      </trkpt>
      <trkpt lat="44.69331" lon="4.03043">
        <ele>1231</ele>
        <time>2021-04-10T12:21:38Z</time>
      </trkpt>
      <trkpt lat="44.6932" lon="4.03054">
        <ele>1230</ele>
        <time>2021-04-10T12:21:41Z</time>
      </trkpt>
      <trkpt lat="44.69311" lon="4.0307">
        <ele>1229</ele>
        <time>2021-04-10T12:21:43Z</time>
      </trkpt>
      <trkpt lat="44.69303" lon="4.03093">
        <ele>1229</ele>
        <time>2021-04-10T12:21:47Z</time>
      </trkpt>
      <trkpt lat="44.69268" lon="4.03262">
        <ele>1229</ele>
        <time>2021-04-10T12:22:09Z</time>
      </trkpt>
      <trkpt lat="44.69261" lon="4.03279">
        <ele>1229</ele>
        <time>2021-04-10T12:22:11Z</time>
      </trkpt>
      <trkpt lat="44.69253" lon="4.03297">
        <ele>1228</ele>
        <time>2021-04-10T12:22:14Z</time>
      </trkpt>
      <trkpt lat="44.69213" lon="4.03347">
        <ele>1219</ele>
        <time>2021-04-10T12:22:23Z</time>
      </trkpt>
      <trkpt lat="44.69206" lon="4.03361">
        <ele>1216</ele>
        <time>2021-04-10T12:22:26Z</time>
      </trkpt>
      <trkpt lat="44.69201" lon="4.03379">
        <ele>1215</ele>
        <time>2021-04-10T12:22:28Z</time>
      </trkpt>
      <trkpt lat="44.69197" lon="4.03403">
        <ele>1214</ele>
        <time>2021-04-10T12:22:31Z</time>
      </trkpt>
      <trkpt lat="44.69187" lon="4.03479">
        <ele>1216</ele>
        <time>2021-04-10T12:22:41Z</time>
      </trkpt>
      <trkpt lat="44.69177" lon="4.03518">
        <ele>1216</ele>
        <time>2021-04-10T12:22:46Z</time>
      </trkpt>
      <trkpt lat="44.6914" lon="4.03599">
        <ele>1213</ele>
        <time>2021-04-10T12:22:58Z</time>
      </trkpt>
      <trkpt lat="44.69115" lon="4.03667">
        <ele>1215</ele>
        <time>2021-04-10T12:23:08Z</time>
      </trkpt>
      <trkpt lat="44.69102" lon="4.03683">
        <ele>1214</ele>
        <time>2021-04-10T12:23:11Z</time>
      </trkpt>
      <trkpt lat="44.69043" lon="4.03731">
        <ele>1201</ele>
        <time>2021-04-10T12:23:23Z</time>
      </trkpt>
      <trkpt lat="44.69024" lon="4.03754">
        <ele>1198</ele>
        <time>2021-04-10T12:23:28Z</time>
      </trkpt>
      <trkpt lat="44.68994" lon="4.03816">
        <ele>1193</ele>
        <time>2021-04-10T12:23:37Z</time>
      </trkpt>
      <trkpt lat="44.68978" lon="4.03861">
        <ele>1187</ele>
        <time>2021-04-10T12:23:44Z</time>
      </trkpt>
      <trkpt lat="44.68927" lon="4.04082">
        <ele>1174</ele>
        <time>2021-04-10T12:24:13Z</time>
      </trkpt>
      <trkpt lat="44.68922" lon="4.04195">
        <ele>1167</ele>
        <time>2021-04-10T12:24:27Z</time>
      </trkpt>
      <trkpt lat="44.6893" lon="4.04222">
        <ele>1168</ele>
        <time>2021-04-10T12:24:31Z</time>
      </trkpt>
      <trkpt lat="44.6894" lon="4.04245">
        <ele>1171</ele>
        <time>2021-04-10T12:24:34Z</time>
      </trkpt>
      <trkpt lat="44.68944" lon="4.04262">
        <ele>1174</ele>
        <time>2021-04-10T12:24:37Z</time>
      </trkpt>
      <trkpt lat="44.68945" lon="4.04279">
        <ele>1174</ele>
        <time>2021-04-10T12:24:39Z</time>
      </trkpt>
      <trkpt lat="44.6894" lon="4.04299">
        <ele>1171</ele>
        <time>2021-04-10T12:24:42Z</time>
      </trkpt>
      <trkpt lat="44.68911" lon="4.04352">
        <ele>1157</ele>
        <time>2021-04-10T12:24:50Z</time>
      </trkpt>
      <trkpt lat="44.68902" lon="4.0438">
        <ele>1157</ele>
        <time>2021-04-10T12:24:54Z</time>
      </trkpt>
      <trkpt lat="44.6889" lon="4.04454">
        <ele>1153</ele>
        <time>2021-04-10T12:25:03Z</time>
      </trkpt>
      <trkpt lat="44.6889" lon="4.04484">
        <ele>1151</ele>
        <time>2021-04-10T12:25:07Z</time>
      </trkpt>
      <trkpt lat="44.68898" lon="4.04504">
        <ele>1153</ele>
        <time>2021-04-10T12:25:10Z</time>
      </trkpt>
      <trkpt lat="44.68928" lon="4.04546">
        <ele>1159</ele>
        <time>2021-04-10T12:25:18Z</time>
      </trkpt>
      <trkpt lat="44.68931" lon="4.04557">
        <ele>1157</ele>
        <time>2021-04-10T12:25:19Z</time>
      </trkpt>
      <trkpt lat="44.68929" lon="4.04581">
        <ele>1150</ele>
        <time>2021-04-10T12:25:22Z</time>
      </trkpt>
      <trkpt lat="44.6893" lon="4.04616">
        <ele>1144</ele>
        <time>2021-04-10T12:25:27Z</time>
      </trkpt>
      <trkpt lat="44.68934" lon="4.04645">
        <ele>1141</ele>
        <time>2021-04-10T12:25:30Z</time>
      </trkpt>
      <trkpt lat="44.68945" lon="4.04661">
        <ele>1144</ele>
        <time>2021-04-10T12:25:33Z</time>
      </trkpt>
      <trkpt lat="44.68962" lon="4.0468">
        <ele>1148</ele>
        <time>2021-04-10T12:25:37Z</time>
      </trkpt>
      <trkpt lat="44.68968" lon="4.04692">
        <ele>1149</ele>
        <time>2021-04-10T12:25:39Z</time>
      </trkpt>
      <trkpt lat="44.68991" lon="4.04754">
        <ele>1148</ele>
        <time>2021-04-10T12:25:48Z</time>
      </trkpt>
      <trkpt lat="44.69018" lon="4.04891">
        <ele>1132</ele>
        <time>2021-04-10T12:26:06Z</time>
      </trkpt>
      <trkpt lat="44.69025" lon="4.04913">
        <ele>1129</ele>
        <time>2021-04-10T12:26:09Z</time>
      </trkpt>
      <trkpt lat="44.69037" lon="4.04931">
        <ele>1126</ele>
        <time>2021-04-10T12:26:12Z</time>
      </trkpt>
      <trkpt lat="44.69052" lon="4.04941">
        <ele>1127</ele>
        <time>2021-04-10T12:26:15Z</time>
      </trkpt>
      <trkpt lat="44.691" lon="4.04957">
        <ele>1135</ele>
        <time>2021-04-10T12:26:24Z</time>
      </trkpt>
      <trkpt lat="44.69108" lon="4.04961">
        <ele>1137</ele>
        <time>2021-04-10T12:26:25Z</time>
      </trkpt>
      <trkpt lat="44.69114" lon="4.04969">
        <ele>1138</ele>
        <time>2021-04-10T12:26:27Z</time>
      </trkpt>
      <trkpt lat="44.6912" lon="4.04981">
        <ele>1137</ele>
        <time>2021-04-10T12:26:29Z</time>
      </trkpt>
      <trkpt lat="44.69119" lon="4.04994">
        <ele>1134</ele>
        <time>2021-04-10T12:26:30Z</time>
      </trkpt>
      <trkpt lat="44.69113" lon="4.05013">
        <ele>1130</ele>
        <time>2021-04-10T12:26:33Z</time>
      </trkpt>
      <trkpt lat="44.69082" lon="4.05081">
        <ele>1113</ele>
        <time>2021-04-10T12:26:43Z</time>
      </trkpt>
      <trkpt lat="44.69078" lon="4.05094">
        <ele>1112</ele>
        <time>2021-04-10T12:26:45Z</time>
      </trkpt>
      <trkpt lat="44.69076" lon="4.05125">
        <ele>1111</ele>
        <time>2021-04-10T12:26:49Z</time>
      </trkpt>
      <trkpt lat="44.69079" lon="4.0516">
        <ele>1114</ele>
        <time>2021-04-10T12:26:53Z</time>
      </trkpt>
      <trkpt lat="44.69089" lon="4.05205">
        <ele>1119</ele>
        <time>2021-04-10T12:26:59Z</time>
      </trkpt>
      <trkpt lat="44.6909" lon="4.05222">
        <ele>1119</ele>
        <time>2021-04-10T12:27:01Z</time>
      </trkpt>
      <trkpt lat="44.69089" lon="4.05232">
        <ele>1119</ele>
        <time>2021-04-10T12:27:03Z</time>
      </trkpt>
      <trkpt lat="44.69083" lon="4.05249">
        <ele>1117</ele>
        <time>2021-04-10T12:27:05Z</time>
      </trkpt>
      <trkpt lat="44.69078" lon="4.05256">
        <ele>1115</ele>
        <time>2021-04-10T12:27:06Z</time>
      </trkpt>
      <trkpt lat="44.69048" lon="4.05284">
        <ele>1104</ele>
        <time>2021-04-10T12:27:13Z</time>
      </trkpt>
      <trkpt lat="44.69041" lon="4.05299">
        <ele>1102</ele>
        <time>2021-04-10T12:27:15Z</time>
      </trkpt>
      <trkpt lat="44.69041" lon="4.05325">
        <ele>1105</ele>
        <time>2021-04-10T12:27:18Z</time>
      </trkpt>
      <trkpt lat="44.69044" lon="4.054">
        <ele>1101</ele>
        <time>2021-04-10T12:27:28Z</time>
      </trkpt>
      <trkpt lat="44.69046" lon="4.05425">
        <ele>1099</ele>
        <time>2021-04-10T12:27:31Z</time>
      </trkpt>
      <trkpt lat="44.6905" lon="4.05444">
        <ele>1096</ele>
        <time>2021-04-10T12:27:33Z</time>
      </trkpt>
      <trkpt lat="44.69058" lon="4.05459">
        <ele>1096</ele>
        <time>2021-04-10T12:27:36Z</time>
      </trkpt>
      <trkpt lat="44.69102" lon="4.05487">
        <ele>1111</ele>
        <time>2021-04-10T12:27:44Z</time>
      </trkpt>
      <trkpt lat="44.69109" lon="4.05499">
        <ele>1110</ele>
        <time>2021-04-10T12:27:46Z</time>
      </trkpt>
      <trkpt lat="44.69116" lon="4.05515">
        <ele>1111</ele>
        <time>2021-04-10T12:27:49Z</time>
      </trkpt>
      <trkpt lat="44.69117" lon="4.05529">
        <ele>1109</ele>
        <time>2021-04-10T12:27:50Z</time>
      </trkpt>
      <trkpt lat="44.69113" lon="4.05553">
        <ele>1104</ele>
        <time>2021-04-10T12:27:54Z</time>
      </trkpt>
      <trkpt lat="44.69099" lon="4.056">
        <ele>1093</ele>
        <time>2021-04-10T12:28:00Z</time>
      </trkpt>
      <trkpt lat="44.69096" lon="4.05657">
        <ele>1095</ele>
        <time>2021-04-10T12:28:07Z</time>
      </trkpt>
      <trkpt lat="44.69092" lon="4.05666">
        <ele>1093</ele>
        <time>2021-04-10T12:28:09Z</time>
      </trkpt>
      <trkpt lat="44.69085" lon="4.05676">
        <ele>1092</ele>
        <time>2021-04-10T12:28:10Z</time>
      </trkpt>
      <trkpt lat="44.69063" lon="4.05689">
        <ele>1091</ele>
        <time>2021-04-10T12:28:15Z</time>
      </trkpt>
      <trkpt lat="44.69028" lon="4.05696">
        <ele>1087</ele>
        <time>2021-04-10T12:28:21Z</time>
      </trkpt>
      <trkpt lat="44.68984" lon="4.05708">
        <ele>1082</ele>
        <time>2021-04-10T12:28:29Z</time>
      </trkpt>
      <trkpt lat="44.68892" lon="4.05726">
        <ele>1059</ele>
        <time>2021-04-10T12:28:45Z</time>
      </trkpt>
      <trkpt lat="44.68886" lon="4.05731">
        <ele>1058</ele>
        <time>2021-04-10T12:28:47Z</time>
      </trkpt>
      <trkpt lat="44.68881" lon="4.05738">
        <ele>1058</ele>
        <time>2021-04-10T12:28:48Z</time>
      </trkpt>
      <trkpt lat="44.68878" lon="4.0575">
        <ele>1060</ele>
        <time>2021-04-10T12:28:50Z</time>
      </trkpt>
      <trkpt lat="44.68881" lon="4.05821">
        <ele>1067</ele>
        <time>2021-04-10T12:28:59Z</time>
      </trkpt>
      <trkpt lat="44.68878" lon="4.05851">
        <ele>1066</ele>
        <time>2021-04-10T12:29:02Z</time>
      </trkpt>
      <trkpt lat="44.68834" lon="4.06078">
        <ele>1054</ele>
        <time>2021-04-10T12:29:32Z</time>
      </trkpt>
      <trkpt lat="44.6883" lon="4.06114">
        <ele>1051</ele>
        <time>2021-04-10T12:29:37Z</time>
      </trkpt>
      <trkpt lat="44.68831" lon="4.0615">
        <ele>1049</ele>
        <time>2021-04-10T12:29:41Z</time>
      </trkpt>
      <trkpt lat="44.68857" lon="4.06261">
        <ele>1043</ele>
        <time>2021-04-10T12:29:56Z</time>
      </trkpt>
      <trkpt lat="44.68906" lon="4.06408">
        <ele>1040</ele>
        <time>2021-04-10T12:30:17Z</time>
      </trkpt>
      <trkpt lat="44.68907" lon="4.06422">
        <ele>1040</ele>
        <time>2021-04-10T12:30:18Z</time>
      </trkpt>
      <trkpt lat="44.68903" lon="4.06438">
        <ele>1040</ele>
        <time>2021-04-10T12:30:21Z</time>
      </trkpt>
      <trkpt lat="44.68896" lon="4.0645">
        <ele>1038</ele>
        <time>2021-04-10T12:30:23Z</time>
      </trkpt>
      <trkpt lat="44.68889" lon="4.06456">
        <ele>1036</ele>
        <time>2021-04-10T12:30:24Z</time>
      </trkpt>
      <trkpt lat="44.68833" lon="4.0648">
        <ele>1017</ele>
        <time>2021-04-10T12:30:34Z</time>
      </trkpt>
      <trkpt lat="44.68821" lon="4.0649">
        <ele>1016</ele>
        <time>2021-04-10T12:30:37Z</time>
      </trkpt>
      <trkpt lat="44.68816" lon="4.06499">
        <ele>1016</ele>
        <time>2021-04-10T12:30:38Z</time>
      </trkpt>
      <trkpt lat="44.68798" lon="4.06547">
        <ele>1023</ele>
        <time>2021-04-10T12:30:45Z</time>
      </trkpt>
      <trkpt lat="44.68782" lon="4.06569">
        <ele>1027</ele>
        <time>2021-04-10T12:30:49Z</time>
      </trkpt>
      <trkpt lat="44.68767" lon="4.06574">
        <ele>1027</ele>
        <time>2021-04-10T12:30:52Z</time>
      </trkpt>
      <trkpt lat="44.68751" lon="4.06568">
        <ele>1024</ele>
        <time>2021-04-10T12:30:55Z</time>
      </trkpt>
      <trkpt lat="44.68739" lon="4.06548">
        <ele>1018</ele>
        <time>2021-04-10T12:30:58Z</time>
      </trkpt>
      <trkpt lat="44.68717" lon="4.06518">
        <ele>1010</ele>
        <time>2021-04-10T12:31:04Z</time>
      </trkpt>
      <trkpt lat="44.68705" lon="4.06514">
        <ele>1010</ele>
        <time>2021-04-10T12:31:06Z</time>
      </trkpt>
      <trkpt lat="44.68666" lon="4.06514">
        <ele>1015</ele>
        <time>2021-04-10T12:31:13Z</time>
      </trkpt>
      <trkpt lat="44.68652" lon="4.06511">
        <ele>1014</ele>
        <time>2021-04-10T12:31:15Z</time>
      </trkpt>
      <trkpt lat="44.68576" lon="4.06423">
        <ele>992</ele>
        <time>2021-04-10T12:31:33Z</time>
      </trkpt>
      <trkpt lat="44.68557" lon="4.06412">
        <ele>985</ele>
        <time>2021-04-10T12:31:36Z</time>
      </trkpt>
      <trkpt lat="44.68537" lon="4.06412">
        <ele>982</ele>
        <time>2021-04-10T12:31:40Z</time>
      </trkpt>
      <trkpt lat="44.68522" lon="4.06415">
        <ele>981</ele>
        <time>2021-04-10T12:31:43Z</time>
      </trkpt>
      <trkpt lat="44.68514" lon="4.0642">
        <ele>981</ele>
        <time>2021-04-10T12:31:44Z</time>
      </trkpt>
      <trkpt lat="44.68506" lon="4.06429">
        <ele>980</ele>
        <time>2021-04-10T12:31:46Z</time>
      </trkpt>
      <trkpt lat="44.68502" lon="4.06439">
        <ele>980</ele>
        <time>2021-04-10T12:31:48Z</time>
      </trkpt>
      <trkpt lat="44.68501" lon="4.06454">
        <ele>981</ele>
        <time>2021-04-10T12:31:49Z</time>
      </trkpt>
      <trkpt lat="44.68503" lon="4.06508">
        <ele>985</ele>
        <time>2021-04-10T12:31:56Z</time>
      </trkpt>
      <trkpt lat="44.68501" lon="4.06533">
        <ele>987</ele>
        <time>2021-04-10T12:31:59Z</time>
      </trkpt>
      <trkpt lat="44.68498" lon="4.06553">
        <ele>987</ele>
        <time>2021-04-10T12:32:02Z</time>
      </trkpt>
      <trkpt lat="44.68486" lon="4.06587">
        <ele>986</ele>
        <time>2021-04-10T12:32:07Z</time>
      </trkpt>
      <trkpt lat="44.68469" lon="4.06613">
        <ele>985</ele>
        <time>2021-04-10T12:32:11Z</time>
      </trkpt>
      <trkpt lat="44.68411" lon="4.06656">
        <ele>969</ele>
        <time>2021-04-10T12:32:23Z</time>
      </trkpt>
      <trkpt lat="44.68391" lon="4.06676">
        <ele>965</ele>
        <time>2021-04-10T12:32:27Z</time>
      </trkpt>
      <trkpt lat="44.68377" lon="4.06697">
        <ele>964</ele>
        <time>2021-04-10T12:32:31Z</time>
      </trkpt>
      <trkpt lat="44.68354" lon="4.06744">
        <ele>967</ele>
        <time>2021-04-10T12:32:38Z</time>
      </trkpt>
      <trkpt lat="44.68336" lon="4.0676">
        <ele>965</ele>
        <time>2021-04-10T12:32:42Z</time>
      </trkpt>
      <trkpt lat="44.68304" lon="4.06774">
        <ele>957</ele>
        <time>2021-04-10T12:32:48Z</time>
      </trkpt>
      <trkpt lat="44.68275" lon="4.06797">
        <ele>951</ele>
        <time>2021-04-10T12:32:54Z</time>
      </trkpt>
      <trkpt lat="44.6826" lon="4.06819">
        <ele>948</ele>
        <time>2021-04-10T12:32:58Z</time>
      </trkpt>
      <trkpt lat="44.68256" lon="4.06837">
        <ele>949</ele>
        <time>2021-04-10T12:33:00Z</time>
      </trkpt>
      <trkpt lat="44.68257" lon="4.06852">
        <ele>949</ele>
        <time>2021-04-10T12:33:02Z</time>
      </trkpt>
      <trkpt lat="44.68268" lon="4.06905">
        <ele>953</ele>
        <time>2021-04-10T12:33:09Z</time>
      </trkpt>
      <trkpt lat="44.683" lon="4.07103">
        <ele>948</ele>
        <time>2021-04-10T12:33:35Z</time>
      </trkpt>
      <trkpt lat="44.68301" lon="4.07132">
        <ele>949</ele>
        <time>2021-04-10T12:33:38Z</time>
      </trkpt>
      <trkpt lat="44.68294" lon="4.07161">
        <ele>947</ele>
        <time>2021-04-10T12:33:42Z</time>
      </trkpt>
      <trkpt lat="44.68281" lon="4.07176">
        <ele>946</ele>
        <time>2021-04-10T12:33:45Z</time>
      </trkpt>
      <trkpt lat="44.68255" lon="4.07186">
        <ele>939</ele>
        <time>2021-04-10T12:33:50Z</time>
      </trkpt>
      <trkpt lat="44.68214" lon="4.07192">
        <ele>934</ele>
        <time>2021-04-10T12:33:57Z</time>
      </trkpt>
      <trkpt lat="44.68171" lon="4.07196">
        <ele>930</ele>
        <time>2021-04-10T12:34:05Z</time>
      </trkpt>
      <trkpt lat="44.68151" lon="4.07194">
        <ele>928</ele>
        <time>2021-04-10T12:34:09Z</time>
      </trkpt>
      <trkpt lat="44.68109" lon="4.07183">
        <ele>921</ele>
        <time>2021-04-10T12:34:16Z</time>
      </trkpt>
      <trkpt lat="44.6809" lon="4.07186">
        <ele>921</ele>
        <time>2021-04-10T12:34:20Z</time>
      </trkpt>
      <trkpt lat="44.6807" lon="4.07192">
        <ele>920</ele>
        <time>2021-04-10T12:34:23Z</time>
      </trkpt>
      <trkpt lat="44.68036" lon="4.07205">
        <ele>919</ele>
        <time>2021-04-10T12:34:30Z</time>
      </trkpt>
      <trkpt lat="44.67994" lon="4.07226">
        <ele>918</ele>
        <time>2021-04-10T12:34:37Z</time>
      </trkpt>
      <trkpt lat="44.67967" lon="4.07252">
        <ele>913</ele>
        <time>2021-04-10T12:34:43Z</time>
      </trkpt>
      <trkpt lat="44.67948" lon="4.0729">
        <ele>909</ele>
        <time>2021-04-10T12:34:49Z</time>
      </trkpt>
      <trkpt lat="44.67937" lon="4.0733">
        <ele>908</ele>
        <time>2021-04-10T12:34:55Z</time>
      </trkpt>
      <trkpt lat="44.67931" lon="4.07364">
        <ele>904</ele>
        <time>2021-04-10T12:34:59Z</time>
      </trkpt>
      <trkpt lat="44.67931" lon="4.07392">
        <ele>903</ele>
        <time>2021-04-10T12:35:03Z</time>
      </trkpt>
      <trkpt lat="44.67939" lon="4.07456">
        <ele>903</ele>
        <time>2021-04-10T12:35:11Z</time>
      </trkpt>
      <trkpt lat="44.67935" lon="4.07544">
        <ele>894</ele>
        <time>2021-04-10T12:35:22Z</time>
      </trkpt>
      <trkpt lat="44.67939" lon="4.07567">
        <ele>895</ele>
        <time>2021-04-10T12:35:25Z</time>
      </trkpt>
      <trkpt lat="44.67954" lon="4.0761">
        <ele>899</ele>
        <time>2021-04-10T12:35:31Z</time>
      </trkpt>
      <trkpt lat="44.67961" lon="4.07639">
        <ele>898</ele>
        <time>2021-04-10T12:35:35Z</time>
      </trkpt>
      <trkpt lat="44.67959" lon="4.07663">
        <ele>894</ele>
        <time>2021-04-10T12:35:38Z</time>
      </trkpt>
      <trkpt lat="44.67948" lon="4.07691">
        <ele>891</ele>
        <time>2021-04-10T12:35:42Z</time>
      </trkpt>
      <trkpt lat="44.67914" lon="4.0775">
        <ele>882</ele>
        <time>2021-04-10T12:35:52Z</time>
      </trkpt>
      <trkpt lat="44.67908" lon="4.07778">
        <ele>879</ele>
        <time>2021-04-10T12:35:55Z</time>
      </trkpt>
      <trkpt lat="44.67906" lon="4.07813">
        <ele>877</ele>
        <time>2021-04-10T12:36:00Z</time>
      </trkpt>
      <trkpt lat="44.67909" lon="4.07827">
        <ele>877</ele>
        <time>2021-04-10T12:36:02Z</time>
      </trkpt>
      <trkpt lat="44.67946" lon="4.07853">
        <ele>884</ele>
        <time>2021-04-10T12:36:09Z</time>
      </trkpt>
      <trkpt lat="44.67953" lon="4.07865">
        <ele>884</ele>
        <time>2021-04-10T12:36:11Z</time>
      </trkpt>
      <trkpt lat="44.67959" lon="4.07881">
        <ele>884</ele>
        <time>2021-04-10T12:36:13Z</time>
      </trkpt>
      <trkpt lat="44.67962" lon="4.07902">
        <ele>882</ele>
        <time>2021-04-10T12:36:16Z</time>
      </trkpt>
      <trkpt lat="44.67961" lon="4.07925">
        <ele>879</ele>
        <time>2021-04-10T12:36:19Z</time>
      </trkpt>
      <trkpt lat="44.67935" lon="4.08029">
        <ele>876</ele>
        <time>2021-04-10T12:36:33Z</time>
      </trkpt>
      <trkpt lat="44.67929" lon="4.08046">
        <ele>876</ele>
        <time>2021-04-10T12:36:35Z</time>
      </trkpt>
      <trkpt lat="44.67922" lon="4.08057">
        <ele>875</ele>
        <time>2021-04-10T12:36:37Z</time>
      </trkpt>
      <trkpt lat="44.67895" lon="4.08081">
        <ele>870</ele>
        <time>2021-04-10T12:36:43Z</time>
      </trkpt>
      <trkpt lat="44.67875" lon="4.08095">
        <ele>869</ele>
        <time>2021-04-10T12:36:47Z</time>
      </trkpt>
      <trkpt lat="44.67853" lon="4.08102">
        <ele>866</ele>
        <time>2021-04-10T12:36:51Z</time>
      </trkpt>
      <trkpt lat="44.67822" lon="4.08109">
        <ele>862</ele>
        <time>2021-04-10T12:36:56Z</time>
      </trkpt>
      <trkpt lat="44.67798" lon="4.08108">
        <ele>858</ele>
        <time>2021-04-10T12:37:01Z</time>
      </trkpt>
      <trkpt lat="44.67731" lon="4.08098">
        <ele>844</ele>
        <time>2021-04-10T12:37:13Z</time>
      </trkpt>
      <trkpt lat="44.67705" lon="4.081">
        <ele>842</ele>
        <time>2021-04-10T12:37:17Z</time>
      </trkpt>
      <trkpt lat="44.67651" lon="4.08124">
        <ele>838</ele>
        <time>2021-04-10T12:37:27Z</time>
      </trkpt>
      <trkpt lat="44.67641" lon="4.08133">
        <ele>836</ele>
        <time>2021-04-10T12:37:29Z</time>
      </trkpt>
      <trkpt lat="44.67636" lon="4.0815">
        <ele>837</ele>
        <time>2021-04-10T12:37:32Z</time>
      </trkpt>
      <trkpt lat="44.67637" lon="4.08173">
        <ele>841</ele>
        <time>2021-04-10T12:37:35Z</time>
      </trkpt>
      <trkpt lat="44.67651" lon="4.08242">
        <ele>846</ele>
        <time>2021-04-10T12:37:44Z</time>
      </trkpt>
      <trkpt lat="44.6765" lon="4.08276">
        <ele>842</ele>
        <time>2021-04-10T12:37:48Z</time>
      </trkpt>
      <trkpt lat="44.67645" lon="4.08307">
        <ele>835</ele>
        <time>2021-04-10T12:37:52Z</time>
      </trkpt>
      <trkpt lat="44.67645" lon="4.08325">
        <ele>832</ele>
        <time>2021-04-10T12:37:54Z</time>
      </trkpt>
      <trkpt lat="44.6765" lon="4.08338">
        <ele>831</ele>
        <time>2021-04-10T12:37:56Z</time>
      </trkpt>
      <trkpt lat="44.67659" lon="4.08348">
        <ele>831</ele>
        <time>2021-04-10T12:37:58Z</time>
      </trkpt>
      <trkpt lat="44.67673" lon="4.08356">
        <ele>833</ele>
        <time>2021-04-10T12:38:01Z</time>
      </trkpt>
      <trkpt lat="44.67708" lon="4.08366">
        <ele>846</ele>
        <time>2021-04-10T12:38:07Z</time>
      </trkpt>
      <trkpt lat="44.67718" lon="4.08374">
        <ele>848</ele>
        <time>2021-04-10T12:38:09Z</time>
      </trkpt>
      <trkpt lat="44.67726" lon="4.08393">
        <ele>847</ele>
        <time>2021-04-10T12:38:12Z</time>
      </trkpt>
      <trkpt lat="44.67729" lon="4.08403">
        <ele>846</ele>
        <time>2021-04-10T12:38:13Z</time>
      </trkpt>
      <trkpt lat="44.67725" lon="4.08418">
        <ele>841</ele>
        <time>2021-04-10T12:38:15Z</time>
      </trkpt>
      <trkpt lat="44.67643" lon="4.08634">
        <ele>819</ele>
        <time>2021-04-10T12:38:46Z</time>
      </trkpt>
      <trkpt lat="44.67602" lon="4.0869">
        <ele>812</ele>
        <time>2021-04-10T12:38:57Z</time>
      </trkpt>
      <trkpt lat="44.67586" lon="4.08704">
        <ele>809</ele>
        <time>2021-04-10T12:39:00Z</time>
      </trkpt>
      <trkpt lat="44.67563" lon="4.08721">
        <ele>805</ele>
        <time>2021-04-10T12:39:05Z</time>
      </trkpt>
      <trkpt lat="44.67486" lon="4.08753">
        <ele>787</ele>
        <time>2021-04-10T12:39:19Z</time>
      </trkpt>
      <trkpt lat="44.67476" lon="4.08766">
        <ele>786</ele>
        <time>2021-04-10T12:39:21Z</time>
      </trkpt>
      <trkpt lat="44.67472" lon="4.08789">
        <ele>787</ele>
        <time>2021-04-10T12:39:24Z</time>
      </trkpt>
      <trkpt lat="44.67467" lon="4.08858">
        <ele>790</ele>
        <time>2021-04-10T12:39:33Z</time>
      </trkpt>
      <trkpt lat="44.67461" lon="4.08913">
        <ele>787</ele>
        <time>2021-04-10T12:39:40Z</time>
      </trkpt>
      <trkpt lat="44.67393" lon="4.09069">
        <ele>776</ele>
        <time>2021-04-10T12:40:03Z</time>
      </trkpt>
      <trkpt lat="44.67386" lon="4.09093">
        <ele>774</ele>
        <time>2021-04-10T12:40:07Z</time>
      </trkpt>
      <trkpt lat="44.67389" lon="4.09113">
        <ele>773</ele>
        <time>2021-04-10T12:40:09Z</time>
      </trkpt>
      <trkpt lat="44.67403" lon="4.09131">
        <ele>773</ele>
        <time>2021-04-10T12:40:13Z</time>
      </trkpt>
      <trkpt lat="44.67433" lon="4.09158">
        <ele>771</ele>
        <time>2021-04-10T12:40:19Z</time>
      </trkpt>
      <trkpt lat="44.67448" lon="4.09163">
        <ele>771</ele>
        <time>2021-04-10T12:40:22Z</time>
      </trkpt>
      <trkpt lat="44.67492" lon="4.09155">
        <ele>776</ele>
        <time>2021-04-10T12:40:29Z</time>
      </trkpt>
      <trkpt lat="44.67517" lon="4.09153">
        <ele>779</ele>
        <time>2021-04-10T12:40:34Z</time>
      </trkpt>
      <trkpt lat="44.67539" lon="4.09164">
        <ele>778</ele>
        <time>2021-04-10T12:40:38Z</time>
      </trkpt>
      <trkpt lat="44.67547" lon="4.09177">
        <ele>776</ele>
        <time>2021-04-10T12:40:40Z</time>
      </trkpt>
      <trkpt lat="44.67554" lon="4.09208">
        <ele>772</ele>
        <time>2021-04-10T12:40:44Z</time>
      </trkpt>
      <trkpt lat="44.67562" lon="4.09262">
        <ele>767</ele>
        <time>2021-04-10T12:40:51Z</time>
      </trkpt>
      <trkpt lat="44.6756" lon="4.09284">
        <ele>765</ele>
        <time>2021-04-10T12:40:54Z</time>
      </trkpt>
      <trkpt lat="44.67553" lon="4.09307">
        <ele>762</ele>
        <time>2021-04-10T12:40:57Z</time>
      </trkpt>
      <trkpt lat="44.67521" lon="4.0938">
        <ele>745</ele>
        <time>2021-04-10T12:41:08Z</time>
      </trkpt>
      <trkpt lat="44.67522" lon="4.09403">
        <ele>744</ele>
        <time>2021-04-10T12:41:11Z</time>
      </trkpt>
      <trkpt lat="44.6753" lon="4.09418">
        <ele>746</ele>
        <time>2021-04-10T12:41:13Z</time>
      </trkpt>
      <trkpt lat="44.67548" lon="4.09429">
        <ele>751</ele>
        <time>2021-04-10T12:41:17Z</time>
      </trkpt>
      <trkpt lat="44.67556" lon="4.09439">
        <ele>753</ele>
        <time>2021-04-10T12:41:19Z</time>
      </trkpt>
      <trkpt lat="44.6756" lon="4.09451">
        <ele>752</ele>
        <time>2021-04-10T12:41:21Z</time>
      </trkpt>
      <trkpt lat="44.67561" lon="4.095">
        <ele>743</ele>
        <time>2021-04-10T12:41:27Z</time>
      </trkpt>
      <trkpt lat="44.67566" lon="4.09521">
        <ele>740</ele>
        <time>2021-04-10T12:41:30Z</time>
      </trkpt>
      <trkpt lat="44.67613" lon="4.09591">
        <ele>740</ele>
        <time>2021-04-10T12:41:42Z</time>
      </trkpt>
      <trkpt lat="44.67646" lon="4.09665">
        <ele>731</ele>
        <time>2021-04-10T12:41:53Z</time>
      </trkpt>
      <trkpt lat="44.67694" lon="4.0976">
        <ele>728</ele>
        <time>2021-04-10T12:42:08Z</time>
      </trkpt>
      <trkpt lat="44.67699" lon="4.0977">
        <ele>730</ele>
        <time>2021-04-10T12:42:09Z</time>
      </trkpt>
      <trkpt lat="44.67699" lon="4.09785">
        <ele>731</ele>
        <time>2021-04-10T12:42:11Z</time>
      </trkpt>
      <trkpt lat="44.67692" lon="4.09806">
        <ele>732</ele>
        <time>2021-04-10T12:42:14Z</time>
      </trkpt>
      <trkpt lat="44.67683" lon="4.09812">
        <ele>731</ele>
        <time>2021-04-10T12:42:16Z</time>
      </trkpt>
      <trkpt lat="44.67673" lon="4.09813">
        <ele>730</ele>
        <time>2021-04-10T12:42:17Z</time>
      </trkpt>
      <trkpt lat="44.67517" lon="4.09792">
        <ele>720</ele>
        <time>2021-04-10T12:42:45Z</time>
      </trkpt>
      <trkpt lat="44.67371" lon="4.09697">
        <ele>701</ele>
        <time>2021-04-10T12:43:14Z</time>
      </trkpt>
      <trkpt lat="44.67268" lon="4.09627">
        <ele>688</ele>
        <time>2021-04-10T12:43:34Z</time>
      </trkpt>
      <trkpt lat="44.67242" lon="4.09608">
        <ele>682</ele>
        <time>2021-04-10T12:43:40Z</time>
      </trkpt>
      <trkpt lat="44.67226" lon="4.09594">
        <ele>677</ele>
        <time>2021-04-10T12:43:43Z</time>
      </trkpt>
      <trkpt lat="44.67212" lon="4.09577">
        <ele>672</ele>
        <time>2021-04-10T12:43:46Z</time>
      </trkpt>
      <trkpt lat="44.67203" lon="4.09571">
        <ele>671</ele>
        <time>2021-04-10T12:43:48Z</time>
      </trkpt>
      <trkpt lat="44.67194" lon="4.09569">
        <ele>671</ele>
        <time>2021-04-10T12:43:50Z</time>
      </trkpt>
      <trkpt lat="44.67147" lon="4.09578">
        <ele>671</ele>
        <time>2021-04-10T12:43:58Z</time>
      </trkpt>
      <trkpt lat="44.67117" lon="4.09569">
        <ele>665</ele>
        <time>2021-04-10T12:44:03Z</time>
      </trkpt>
      <trkpt lat="44.67098" lon="4.09567">
        <ele>662</ele>
        <time>2021-04-10T12:44:07Z</time>
      </trkpt>
      <trkpt lat="44.67078" lon="4.09576">
        <ele>660</ele>
        <time>2021-04-10T12:44:11Z</time>
      </trkpt>
      <trkpt lat="44.6706" lon="4.096">
        <ele>658</ele>
        <time>2021-04-10T12:44:15Z</time>
      </trkpt>
      <trkpt lat="44.67052" lon="4.09637">
        <ele>659</ele>
        <time>2021-04-10T12:44:20Z</time>
      </trkpt>
      <trkpt lat="44.6705" lon="4.09676">
        <ele>662</ele>
        <time>2021-04-10T12:44:25Z</time>
      </trkpt>
      <trkpt lat="44.67053" lon="4.09703">
        <ele>663</ele>
        <time>2021-04-10T12:44:28Z</time>
      </trkpt>
      <trkpt lat="44.67073" lon="4.0979">
        <ele>665</ele>
        <time>2021-04-10T12:44:40Z</time>
      </trkpt>
      <trkpt lat="44.67074" lon="4.09809">
        <ele>663</ele>
        <time>2021-04-10T12:44:42Z</time>
      </trkpt>
      <trkpt lat="44.67067" lon="4.09834">
        <ele>659</ele>
        <time>2021-04-10T12:44:46Z</time>
      </trkpt>
      <trkpt lat="44.66997" lon="4.09872">
        <ele>655</ele>
        <time>2021-04-10T12:44:59Z</time>
      </trkpt>
      <trkpt lat="44.66955" lon="4.09892">
        <ele>647</ele>
        <time>2021-04-10T12:45:07Z</time>
      </trkpt>
      <trkpt lat="44.66943" lon="4.09907">
        <ele>645</ele>
        <time>2021-04-10T12:45:10Z</time>
      </trkpt>
      <trkpt lat="44.66895" lon="4.10018">
        <ele>646</ele>
        <time>2021-04-10T12:45:26Z</time>
      </trkpt>
      <trkpt lat="44.6688" lon="4.10039">
        <ele>644</ele>
        <time>2021-04-10T12:45:30Z</time>
      </trkpt>
      <trkpt lat="44.66869" lon="4.10048">
        <ele>642</ele>
        <time>2021-04-10T12:45:32Z</time>
      </trkpt>
      <trkpt lat="44.66847" lon="4.1008">
        <ele>637</ele>
        <time>2021-04-10T12:45:38Z</time>
      </trkpt>
      <trkpt lat="44.66838" lon="4.10107">
        <ele>635</ele>
        <time>2021-04-10T12:45:42Z</time>
      </trkpt>
      <trkpt lat="44.66833" lon="4.10156">
        <ele>637</ele>
        <time>2021-04-10T12:45:48Z</time>
      </trkpt>
      <trkpt lat="44.66828" lon="4.10184">
        <ele>637</ele>
        <time>2021-04-10T12:45:52Z</time>
      </trkpt>
      <trkpt lat="44.66817" lon="4.10216">
        <ele>636</ele>
        <time>2021-04-10T12:45:56Z</time>
      </trkpt>
      <trkpt lat="44.66801" lon="4.1025">
        <ele>632</ele>
        <time>2021-04-10T12:46:01Z</time>
      </trkpt>
      <trkpt lat="44.66795" lon="4.10274">
        <ele>630</ele>
        <time>2021-04-10T12:46:04Z</time>
      </trkpt>
      <trkpt lat="44.66791" lon="4.10304">
        <ele>628</ele>
        <time>2021-04-10T12:46:08Z</time>
      </trkpt>
      <trkpt lat="44.66791" lon="4.10402">
        <ele>631</ele>
        <time>2021-04-10T12:46:21Z</time>
      </trkpt>
      <trkpt lat="44.66785" lon="4.10421">
        <ele>629</ele>
        <time>2021-04-10T12:46:23Z</time>
      </trkpt>
      <trkpt lat="44.66775" lon="4.10439">
        <ele>624</ele>
        <time>2021-04-10T12:46:26Z</time>
      </trkpt>
      <trkpt lat="44.66769" lon="4.10462">
        <ele>622</ele>
        <time>2021-04-10T12:46:29Z</time>
      </trkpt>
      <trkpt lat="44.66765" lon="4.10486">
        <ele>621</ele>
        <time>2021-04-10T12:46:32Z</time>
      </trkpt>
      <trkpt lat="44.66763" lon="4.1052">
        <ele>621</ele>
        <time>2021-04-10T12:46:37Z</time>
      </trkpt>
      <trkpt lat="44.66744" lon="4.10598">
        <ele>614</ele>
        <time>2021-04-10T12:46:47Z</time>
      </trkpt>
      <trkpt lat="44.66735" lon="4.10653">
        <ele>610</ele>
        <time>2021-04-10T12:46:54Z</time>
      </trkpt>
      <trkpt lat="44.66723" lon="4.10751">
        <ele>604</ele>
        <time>2021-04-10T12:47:07Z</time>
      </trkpt>
      <trkpt lat="44.66716" lon="4.10853">
        <ele>597</ele>
        <time>2021-04-10T12:47:20Z</time>
      </trkpt>
      <trkpt lat="44.66712" lon="4.10882">
        <ele>596</ele>
        <time>2021-04-10T12:47:24Z</time>
      </trkpt>
      <trkpt lat="44.66611" lon="4.11243">
        <ele>575</ele>
        <time>2021-04-10T12:48:13Z</time>
      </trkpt>
      <trkpt lat="44.66608" lon="4.11251">
        <ele>575</ele>
        <time>2021-04-10T12:48:14Z</time>
      </trkpt>
      <trkpt lat="44.66605" lon="4.11255">
        <ele>575</ele>
        <time>2021-04-10T12:48:15Z</time>
      </trkpt>
      <trkpt lat="44.66564" lon="4.11274">
        <ele>581</ele>
        <time>2021-04-10T12:48:22Z</time>
      </trkpt>
      <trkpt lat="44.66553" lon="4.11284">
        <ele>585</ele>
        <time>2021-04-10T12:48:25Z</time>
      </trkpt>
      <trkpt lat="44.66547" lon="4.11296">
        <ele>587</ele>
        <time>2021-04-10T12:48:26Z</time>
      </trkpt>
      <trkpt lat="44.66543" lon="4.11311">
        <ele>587</ele>
        <time>2021-04-10T12:48:29Z</time>
      </trkpt>
      <trkpt lat="44.66542" lon="4.11325">
        <ele>587</ele>
        <time>2021-04-10T12:48:30Z</time>
      </trkpt>
      <trkpt lat="44.66544" lon="4.11415">
        <ele>584</ele>
        <time>2021-04-10T12:48:42Z</time>
      </trkpt>
      <trkpt lat="44.66553" lon="4.11638">
        <ele>573</ele>
        <time>2021-04-10T12:49:10Z</time>
      </trkpt>
      <trkpt lat="44.66561" lon="4.11678">
        <ele>572</ele>
        <time>2021-04-10T12:49:15Z</time>
      </trkpt>
      <trkpt lat="44.66561" lon="4.11692">
        <ele>571</ele>
        <time>2021-04-10T12:49:17Z</time>
      </trkpt>
      <trkpt lat="44.66555" lon="4.11828">
        <ele>571</ele>
        <time>2021-04-10T12:49:34Z</time>
      </trkpt>
      <trkpt lat="44.66556" lon="4.1188">
        <ele>570</ele>
        <time>2021-04-10T12:49:41Z</time>
      </trkpt>
      <trkpt lat="44.66551" lon="4.11937">
        <ele>569</ele>
        <time>2021-04-10T12:49:48Z</time>
      </trkpt>
      <trkpt lat="44.66546" lon="4.12092">
        <ele>569</ele>
        <time>2021-04-10T12:50:08Z</time>
      </trkpt>
      <trkpt lat="44.66551" lon="4.12153">
        <ele>568</ele>
        <time>2021-04-10T12:50:15Z</time>
      </trkpt>
      <trkpt lat="44.66552" lon="4.12182">
        <ele>567</ele>
        <time>2021-04-10T12:50:19Z</time>
      </trkpt>
      <trkpt lat="44.66551" lon="4.12204">
        <ele>565</ele>
        <time>2021-04-10T12:50:22Z</time>
      </trkpt>
      <trkpt lat="44.66548" lon="4.1222">
        <ele>564</ele>
        <time>2021-04-10T12:50:24Z</time>
      </trkpt>
      <trkpt lat="44.66537" lon="4.12242">
        <ele>564</ele>
        <time>2021-04-10T12:50:27Z</time>
      </trkpt>
      <trkpt lat="44.6653" lon="4.12251">
        <ele>564</ele>
        <time>2021-04-10T12:50:29Z</time>
      </trkpt>
      <trkpt lat="44.66473" lon="4.12305">
        <ele>564</ele>
        <time>2021-04-10T12:50:41Z</time>
      </trkpt>
      <trkpt lat="44.6646" lon="4.12322">
        <ele>564</ele>
        <time>2021-04-10T12:50:45Z</time>
      </trkpt>
      <trkpt lat="44.66442" lon="4.12351">
        <ele>568</ele>
        <time>2021-04-10T12:50:49Z</time>
      </trkpt>
      <trkpt lat="44.66433" lon="4.12373">
        <ele>571</ele>
        <time>2021-04-10T12:50:53Z</time>
      </trkpt>
      <trkpt lat="44.66428" lon="4.12391">
        <ele>574</ele>
        <time>2021-04-10T12:50:55Z</time>
      </trkpt>
      <trkpt lat="44.66424" lon="4.1241">
        <ele>576</ele>
        <time>2021-04-10T12:50:58Z</time>
      </trkpt>
      <trkpt lat="44.66424" lon="4.12428">
        <ele>577</ele>
        <time>2021-04-10T12:51:00Z</time>
      </trkpt>
      <trkpt lat="44.66477" lon="4.13115">
        <ele>559</ele>
        <time>2021-04-10T12:52:27Z</time>
      </trkpt>
      <trkpt lat="44.66477" lon="4.13144">
        <ele>559</ele>
        <time>2021-04-10T12:52:31Z</time>
      </trkpt>
      <trkpt lat="44.66469" lon="4.13266">
        <ele>553</ele>
        <time>2021-04-10T12:52:46Z</time>
      </trkpt>
      <trkpt lat="44.66468" lon="4.13366">
        <ele>544</ele>
        <time>2021-04-10T12:52:59Z</time>
      </trkpt>
      <trkpt lat="44.6646" lon="4.13393">
        <ele>545</ele>
        <time>2021-04-10T12:53:03Z</time>
      </trkpt>
      <trkpt lat="44.66441" lon="4.13447">
        <ele>548</ele>
        <time>2021-04-10T12:53:10Z</time>
      </trkpt>
      <trkpt lat="44.66432" lon="4.13483">
        <ele>548</ele>
        <time>2021-04-10T12:53:15Z</time>
      </trkpt>
      <trkpt lat="44.66429" lon="4.13528">
        <ele>547</ele>
        <time>2021-04-10T12:53:21Z</time>
      </trkpt>
      <trkpt lat="44.66428" lon="4.1358">
        <ele>545</ele>
        <time>2021-04-10T12:53:28Z</time>
      </trkpt>
      <trkpt lat="44.66437" lon="4.13635">
        <ele>543</ele>
        <time>2021-04-10T12:53:35Z</time>
      </trkpt>
      <trkpt lat="44.66453" lon="4.13697">
        <ele>539</ele>
        <time>2021-04-10T12:53:43Z</time>
      </trkpt>
      <trkpt lat="44.66459" lon="4.13732">
        <ele>537</ele>
        <time>2021-04-10T12:53:48Z</time>
      </trkpt>
      <trkpt lat="44.66469" lon="4.13828">
        <ele>540</ele>
        <time>2021-04-10T12:54:00Z</time>
      </trkpt>
      <trkpt lat="44.6648" lon="4.13871">
        <ele>542</ele>
        <time>2021-04-10T12:54:06Z</time>
      </trkpt>
      <trkpt lat="44.66549" lon="4.13985">
        <ele>532</ele>
        <time>2021-04-10T12:54:25Z</time>
      </trkpt>
      <trkpt lat="44.66555" lon="4.14">
        <ele>530</ele>
        <time>2021-04-10T12:54:27Z</time>
      </trkpt>
      <trkpt lat="44.66557" lon="4.14028">
        <ele>531</ele>
        <time>2021-04-10T12:54:30Z</time>
      </trkpt>
      <trkpt lat="44.66552" lon="4.14122">
        <ele>535</ele>
        <time>2021-04-10T12:54:42Z</time>
      </trkpt>
      <trkpt lat="44.66538" lon="4.14319">
        <ele>528</ele>
        <time>2021-04-10T12:55:07Z</time>
      </trkpt>
      <trkpt lat="44.66538" lon="4.1457">
        <ele>520</ele>
        <time>2021-04-10T12:55:39Z</time>
      </trkpt>
      <trkpt lat="44.66531" lon="4.14603">
        <ele>520</ele>
        <time>2021-04-10T12:55:43Z</time>
      </trkpt>
      <trkpt lat="44.6652" lon="4.14626">
        <ele>520</ele>
        <time>2021-04-10T12:55:47Z</time>
      </trkpt>
      <trkpt lat="44.66465" lon="4.14726">
        <ele>520</ele>
        <time>2021-04-10T12:56:03Z</time>
      </trkpt>
      <trkpt lat="44.66448" lon="4.14763">
        <ele>520</ele>
        <time>2021-04-10T12:56:09Z</time>
      </trkpt>
      <trkpt lat="44.66439" lon="4.14796">
        <ele>520</ele>
        <time>2021-04-10T12:56:13Z</time>
      </trkpt>
      <trkpt lat="44.66436" lon="4.14818">
        <ele>519</ele>
        <time>2021-04-10T12:56:16Z</time>
      </trkpt>
      <trkpt lat="44.66435" lon="4.14848">
        <ele>519</ele>
        <time>2021-04-10T12:56:20Z</time>
      </trkpt>
      <trkpt lat="44.66438" lon="4.14876">
        <ele>519</ele>
        <time>2021-04-10T12:56:23Z</time>
      </trkpt>
      <trkpt lat="44.66443" lon="4.14909">
        <ele>518</ele>
        <time>2021-04-10T12:56:27Z</time>
      </trkpt>
      <trkpt lat="44.66456" lon="4.14935">
        <ele>517</ele>
        <time>2021-04-10T12:56:32Z</time>
      </trkpt>
      <trkpt lat="44.66469" lon="4.14953">
        <ele>516</ele>
        <time>2021-04-10T12:56:35Z</time>
      </trkpt>
      <trkpt lat="44.66492" lon="4.14968">
        <ele>510</ele>
        <time>2021-04-10T12:56:39Z</time>
      </trkpt>
      <trkpt lat="44.66554" lon="4.14998">
        <ele>502</ele>
        <time>2021-04-10T12:56:51Z</time>
      </trkpt>
      <trkpt lat="44.66564" lon="4.15009">
        <ele>501</ele>
        <time>2021-04-10T12:56:53Z</time>
      </trkpt>
      <trkpt lat="44.66576" lon="4.15026">
        <ele>500</ele>
        <time>2021-04-10T12:56:56Z</time>
      </trkpt>
      <trkpt lat="44.66611" lon="4.15103">
        <ele>502</ele>
        <time>2021-04-10T12:57:08Z</time>
      </trkpt>
      <trkpt lat="44.6662" lon="4.15126">
        <ele>503</ele>
        <time>2021-04-10T12:57:11Z</time>
      </trkpt>
      <trkpt lat="44.66638" lon="4.15183">
        <ele>501</ele>
        <time>2021-04-10T12:57:19Z</time>
      </trkpt>
      <trkpt lat="44.66644" lon="4.15218">
        <ele>500</ele>
        <time>2021-04-10T12:57:24Z</time>
      </trkpt>
      <trkpt lat="44.66649" lon="4.15275">
        <ele>498</ele>
        <time>2021-04-10T12:57:31Z</time>
      </trkpt>
      <trkpt lat="44.66649" lon="4.15319">
        <ele>498</ele>
        <time>2021-04-10T12:57:36Z</time>
      </trkpt>
      <trkpt lat="44.66645" lon="4.15405">
        <ele>494</ele>
        <time>2021-04-10T12:57:47Z</time>
      </trkpt>
      <trkpt lat="44.66612" lon="4.15974">
        <ele>479</ele>
        <time>2021-04-10T12:59:00Z</time>
      </trkpt>
      <trkpt lat="44.66614" lon="4.15988">
        <ele>479</ele>
        <time>2021-04-10T12:59:01Z</time>
      </trkpt>
      <trkpt lat="44.66617" lon="4.16">
        <ele>479</ele>
        <time>2021-04-10T12:59:03Z</time>
      </trkpt>
      <trkpt lat="44.6664" lon="4.16048">
        <ele>484</ele>
        <time>2021-04-10T12:59:10Z</time>
      </trkpt>
      <trkpt lat="44.66646" lon="4.16064">
        <ele>486</ele>
        <time>2021-04-10T12:59:13Z</time>
      </trkpt>
      <trkpt lat="44.66707" lon="4.16348">
        <ele>471</ele>
        <time>2021-04-10T12:59:50Z</time>
      </trkpt>
      <trkpt lat="44.6671" lon="4.16363">
        <ele>471</ele>
        <time>2021-04-10T12:59:52Z</time>
      </trkpt>
      <trkpt lat="44.66751" lon="4.16558">
        <ele>468</ele>
        <time>2021-04-10T13:00:18Z</time>
      </trkpt>
      <trkpt lat="44.6676" lon="4.16592">
        <ele>469</ele>
        <time>2021-04-10T13:00:22Z</time>
      </trkpt>
      <trkpt lat="44.66813" lon="4.16741">
        <ele>468</ele>
        <time>2021-04-10T13:00:44Z</time>
      </trkpt>
      <trkpt lat="44.66821" lon="4.16813">
        <ele>464</ele>
        <time>2021-04-10T13:00:53Z</time>
      </trkpt>
      <trkpt lat="44.66823" lon="4.16838">
        <ele>463</ele>
        <time>2021-04-10T13:00:56Z</time>
      </trkpt>
      <trkpt lat="44.66858" lon="4.1722">
        <ele>467</ele>
        <time>2021-04-10T13:01:45Z</time>
      </trkpt>
      <trkpt lat="44.66867" lon="4.1736">
        <ele>464</ele>
        <time>2021-04-10T13:02:02Z</time>
      </trkpt>
      <trkpt lat="44.66872" lon="4.17399">
        <ele>461</ele>
        <time>2021-04-10T13:02:07Z</time>
      </trkpt>
      <trkpt lat="44.66887" lon="4.1746">
        <ele>457</ele>
        <time>2021-04-10T13:02:16Z</time>
      </trkpt>
      <trkpt lat="44.66898" lon="4.17492">
        <ele>455</ele>
        <time>2021-04-10T13:02:20Z</time>
      </trkpt>
      <trkpt lat="44.67015" lon="4.17751">
        <ele>456</ele>
        <time>2021-04-10T13:02:59Z</time>
      </trkpt>
      <trkpt lat="44.67025" lon="4.17779">
        <ele>455</ele>
        <time>2021-04-10T13:03:03Z</time>
      </trkpt>
      <trkpt lat="44.67031" lon="4.1781">
        <ele>454</ele>
        <time>2021-04-10T13:03:07Z</time>
      </trkpt>
      <trkpt lat="44.67033" lon="4.1784">
        <ele>453</ele>
        <time>2021-04-10T13:03:11Z</time>
      </trkpt>
      <trkpt lat="44.67034" lon="4.1786">
        <ele>454</ele>
        <time>2021-04-10T13:03:13Z</time>
      </trkpt>
      <trkpt lat="44.67044" lon="4.17974">
        <ele>457</ele>
        <time>2021-04-10T13:03:28Z</time>
      </trkpt>
      <trkpt lat="44.67051" lon="4.18017">
        <ele>458</ele>
        <time>2021-04-10T13:03:33Z</time>
      </trkpt>
      <trkpt lat="44.67074" lon="4.18111">
        <ele>455</ele>
        <time>2021-04-10T13:03:46Z</time>
      </trkpt>
      <trkpt lat="44.67079" lon="4.18129">
        <ele>454</ele>
        <time>2021-04-10T13:03:48Z</time>
      </trkpt>
      <trkpt lat="44.67087" lon="4.18148">
        <ele>454</ele>
        <time>2021-04-10T13:03:51Z</time>
      </trkpt>
      <trkpt lat="44.6711" lon="4.18186">
        <ele>453</ele>
        <time>2021-04-10T13:03:58Z</time>
      </trkpt>
      <trkpt lat="44.67121" lon="4.18213">
        <ele>450</ele>
        <time>2021-04-10T13:04:02Z</time>
      </trkpt>
      <trkpt lat="44.6714" lon="4.1828">
        <ele>446</ele>
        <time>2021-04-10T13:04:11Z</time>
      </trkpt>
      <trkpt lat="44.67148" lon="4.18302">
        <ele>447</ele>
        <time>2021-04-10T13:04:14Z</time>
      </trkpt>
      <trkpt lat="44.67195" lon="4.184">
        <ele>453</ele>
        <time>2021-04-10T13:04:29Z</time>
      </trkpt>
      <trkpt lat="44.67202" lon="4.18419">
        <ele>455</ele>
        <time>2021-04-10T13:04:31Z</time>
      </trkpt>
      <trkpt lat="44.67205" lon="4.1844">
        <ele>456</ele>
        <time>2021-04-10T13:04:34Z</time>
      </trkpt>
      <trkpt lat="44.67206" lon="4.1854">
        <ele>458</ele>
        <time>2021-04-10T13:04:47Z</time>
      </trkpt>
      <trkpt lat="44.67202" lon="4.18573">
        <ele>458</ele>
        <time>2021-04-10T13:04:51Z</time>
      </trkpt>
      <trkpt lat="44.67189" lon="4.1866">
        <ele>451</ele>
        <time>2021-04-10T13:05:02Z</time>
      </trkpt>
      <trkpt lat="44.67186" lon="4.18694">
        <ele>449</ele>
        <time>2021-04-10T13:05:07Z</time>
      </trkpt>
      <trkpt lat="44.67187" lon="4.18722">
        <ele>448</ele>
        <time>2021-04-10T13:05:10Z</time>
      </trkpt>
      <trkpt lat="44.67191" lon="4.18748">
        <ele>449</ele>
        <time>2021-04-10T13:05:14Z</time>
      </trkpt>
      <trkpt lat="44.67208" lon="4.18822">
        <ele>456</ele>
        <time>2021-04-10T13:05:23Z</time>
      </trkpt>
      <trkpt lat="44.6721" lon="4.18844">
        <ele>456</ele>
        <time>2021-04-10T13:05:26Z</time>
      </trkpt>
      <trkpt lat="44.67208" lon="4.18899">
        <ele>451</ele>
        <time>2021-04-10T13:05:33Z</time>
      </trkpt>
      <trkpt lat="44.67208" lon="4.18962">
        <ele>449</ele>
        <time>2021-04-10T13:05:41Z</time>
      </trkpt>
      <trkpt lat="44.67212" lon="4.18989">
        <ele>449</ele>
        <time>2021-04-10T13:05:45Z</time>
      </trkpt>
      <trkpt lat="44.67214" lon="4.19009">
        <ele>450</ele>
        <time>2021-04-10T13:05:47Z</time>
      </trkpt>
      <trkpt lat="44.67232" lon="4.19132">
        <ele>458</ele>
        <time>2021-04-10T13:06:03Z</time>
      </trkpt>
      <trkpt lat="44.67233" lon="4.19154">
        <ele>458</ele>
        <time>2021-04-10T13:06:06Z</time>
      </trkpt>
      <trkpt lat="44.67229" lon="4.19199">
        <ele>457</ele>
        <time>2021-04-10T13:06:12Z</time>
      </trkpt>
      <trkpt lat="44.67222" lon="4.19238">
        <ele>455</ele>
        <time>2021-04-10T13:06:17Z</time>
      </trkpt>
      <trkpt lat="44.67215" lon="4.19388">
        <ele>453</ele>
        <time>2021-04-10T13:06:36Z</time>
      </trkpt>
      <trkpt lat="44.67202" lon="4.19513">
        <ele>449</ele>
        <time>2021-04-10T13:06:52Z</time>
      </trkpt>
      <trkpt lat="44.67202" lon="4.19596">
        <ele>455</ele>
        <time>2021-04-10T13:07:02Z</time>
      </trkpt>
      <trkpt lat="44.67194" lon="4.1967">
        <ele>456</ele>
        <time>2021-04-10T13:07:12Z</time>
      </trkpt>
      <trkpt lat="44.67192" lon="4.19738">
        <ele>454</ele>
        <time>2021-04-10T13:07:20Z</time>
      </trkpt>
      <trkpt lat="44.67183" lon="4.19792">
        <ele>448</ele>
        <time>2021-04-10T13:07:27Z</time>
      </trkpt>
      <trkpt lat="44.67172" lon="4.19889">
        <ele>442</ele>
        <time>2021-04-10T13:07:40Z</time>
      </trkpt>
      <trkpt lat="44.6717" lon="4.19933">
        <ele>442</ele>
        <time>2021-04-10T13:07:45Z</time>
      </trkpt>
      <trkpt lat="44.6717" lon="4.19956">
        <ele>441</ele>
        <time>2021-04-10T13:07:48Z</time>
      </trkpt>
      <trkpt lat="44.67174" lon="4.19976">
        <ele>443</ele>
        <time>2021-04-10T13:07:51Z</time>
      </trkpt>
      <trkpt lat="44.67186" lon="4.20018">
        <ele>449</ele>
        <time>2021-04-10T13:07:57Z</time>
      </trkpt>
      <trkpt lat="44.67201" lon="4.2012">
        <ele>454</ele>
        <time>2021-04-10T13:08:10Z</time>
      </trkpt>
      <trkpt lat="44.67203" lon="4.20163">
        <ele>454</ele>
        <time>2021-04-10T13:08:15Z</time>
      </trkpt>
      <trkpt lat="44.67185" lon="4.20437">
        <ele>451</ele>
        <time>2021-04-10T13:08:50Z</time>
      </trkpt>
      <trkpt lat="44.6717" lon="4.2051">
        <ele>448</ele>
        <time>2021-04-10T13:09:00Z</time>
      </trkpt>
      <trkpt lat="44.6717" lon="4.20528">
        <ele>447</ele>
        <time>2021-04-10T13:09:02Z</time>
      </trkpt>
      <trkpt lat="44.67174" lon="4.20543">
        <ele>448</ele>
        <time>2021-04-10T13:09:04Z</time>
      </trkpt>
      <trkpt lat="44.67182" lon="4.20564">
        <ele>450</ele>
        <time>2021-04-10T13:09:07Z</time>
      </trkpt>
      <trkpt lat="44.67197" lon="4.20589">
        <ele>452</ele>
        <time>2021-04-10T13:09:11Z</time>
      </trkpt>
      <trkpt lat="44.67216" lon="4.2061">
        <ele>458</ele>
        <time>2021-04-10T13:09:15Z</time>
      </trkpt>
      <trkpt lat="44.67223" lon="4.20619">
        <ele>461</ele>
        <time>2021-04-10T13:09:17Z</time>
      </trkpt>
      <trkpt lat="44.67225" lon="4.20623">
        <ele>461</ele>
        <time>2021-04-10T13:09:18Z</time>
      </trkpt>
      <trkpt lat="44.6723" lon="4.20636">
        <ele>464</ele>
        <time>2021-04-10T13:09:20Z</time>
      </trkpt>
      <trkpt lat="44.67229" lon="4.20649">
        <ele>465</ele>
        <time>2021-04-10T13:09:21Z</time>
      </trkpt>
      <trkpt lat="44.67212" lon="4.20684">
        <ele>463</ele>
        <time>2021-04-10T13:09:27Z</time>
      </trkpt>
      <trkpt lat="44.67184" lon="4.20727">
        <ele>454</ele>
        <time>2021-04-10T13:09:34Z</time>
      </trkpt>
      <trkpt lat="44.67172" lon="4.20753">
        <ele>448</ele>
        <time>2021-04-10T13:09:38Z</time>
      </trkpt>
      <trkpt lat="44.67168" lon="4.20788">
        <ele>450</ele>
        <time>2021-04-10T13:09:42Z</time>
      </trkpt>
      <trkpt lat="44.6717" lon="4.20807">
        <ele>454</ele>
        <time>2021-04-10T13:09:45Z</time>
      </trkpt>
      <trkpt lat="44.67174" lon="4.20827">
        <ele>459</ele>
        <time>2021-04-10T13:09:47Z</time>
      </trkpt>
      <trkpt lat="44.67198" lon="4.20905">
        <ele>464</ele>
        <time>2021-04-10T13:09:58Z</time>
      </trkpt>
      <trkpt lat="44.67213" lon="4.20949">
        <ele>464</ele>
        <time>2021-04-10T13:10:04Z</time>
      </trkpt>
      <trkpt lat="44.67298" lon="4.212">
        <ele>466</ele>
        <time>2021-04-10T13:10:40Z</time>
      </trkpt>
      <trkpt lat="44.67329" lon="4.21292">
        <ele>469</ele>
        <time>2021-04-10T13:10:52Z</time>
      </trkpt>
      <trkpt lat="44.67351" lon="4.2139">
        <ele>472</ele>
        <time>2021-04-10T13:11:05Z</time>
      </trkpt>
      <trkpt lat="44.67371" lon="4.2149">
        <ele>473</ele>
        <time>2021-04-10T13:11:19Z</time>
      </trkpt>
      <trkpt lat="44.67441" lon="4.21828">
        <ele>472</ele>
        <time>2021-04-10T13:12:03Z</time>
      </trkpt>
      <trkpt lat="44.67448" lon="4.21863">
        <ele>472</ele>
        <time>2021-04-10T13:12:08Z</time>
      </trkpt>
      <trkpt lat="44.67458" lon="4.2186">
        <ele>473</ele>
        <time>2021-04-10T13:12:09Z</time>
      </trkpt>
      <trkpt lat="44.67472" lon="4.21891">
        <ele>473</ele>
        <time>2021-04-10T13:12:14Z</time>
      </trkpt>
      <trkpt lat="44.67511" lon="4.21961">
        <ele>472</ele>
        <time>2021-04-10T13:12:25Z</time>
      </trkpt>
      <trkpt lat="44.6753" lon="4.21982">
        <ele>472</ele>
        <time>2021-04-10T13:12:30Z</time>
      </trkpt>
      <trkpt lat="44.67572" lon="4.22012">
        <ele>471</ele>
        <time>2021-04-10T13:12:38Z</time>
      </trkpt>
      <trkpt lat="44.67576" lon="4.22018">
        <ele>471</ele>
        <time>2021-04-10T13:12:39Z</time>
      </trkpt>
      <trkpt lat="44.67595" lon="4.22057">
        <ele>472</ele>
        <time>2021-04-10T13:12:45Z</time>
      </trkpt>
      <trkpt lat="44.6761" lon="4.22076">
        <ele>472</ele>
        <time>2021-04-10T13:12:49Z</time>
      </trkpt>
      <trkpt lat="44.67574" lon="4.22095">
        <ele>472</ele>
        <time>2021-04-10T13:12:56Z</time>
      </trkpt>
      <trkpt lat="44.67501" lon="4.22121">
        <ele>469</ele>
        <time>2021-04-10T13:13:09Z</time>
      </trkpt>
      <trkpt lat="44.67503" lon="4.22128">
        <ele>470</ele>
        <time>2021-04-10T13:13:10Z</time>
      </trkpt>
      <trkpt lat="44.67508" lon="4.22154">
        <ele>470</ele>
        <time>2021-04-10T13:13:13Z</time>
      </trkpt>
      <trkpt lat="44.6751" lon="4.22163">
        <ele>470</ele>
        <time>2021-04-10T13:13:14Z</time>
      </trkpt>
      <trkpt lat="44.67515" lon="4.22187">
        <ele>470</ele>
        <time>2021-04-10T13:13:18Z</time>
      </trkpt>
      <trkpt lat="44.67524" lon="4.22232">
        <ele>470</ele>
        <time>2021-04-10T13:13:24Z</time>
      </trkpt>
      <trkpt lat="44.67525" lon="4.2224">
        <ele>470</ele>
        <time>2021-04-10T13:13:25Z</time>
      </trkpt>
      <trkpt lat="44.67537" lon="4.22303">
        <ele>466</ele>
        <time>2021-04-10T13:13:33Z</time>
      </trkpt>
      <trkpt lat="44.67536" lon="4.2232">
        <ele>465</ele>
        <time>2021-04-10T13:13:35Z</time>
      </trkpt>
      <trkpt lat="44.67525" lon="4.22354">
        <ele>462</ele>
        <time>2021-04-10T13:13:40Z</time>
      </trkpt>
      <trkpt lat="44.67525" lon="4.22355">
        <ele>462</ele>
        <time>2021-04-10T13:13:40Z</time>
      </trkpt>
      <trkpt lat="44.67518" lon="4.22372">
        <ele>460</ele>
        <time>2021-04-10T13:13:42Z</time>
      </trkpt>
      <trkpt lat="44.67517" lon="4.22374">
        <ele>460</ele>
        <time>2021-04-10T13:13:43Z</time>
      </trkpt>
      <trkpt lat="44.67515" lon="4.2238">
        <ele>459</ele>
        <time>2021-04-10T13:13:43Z</time>
      </trkpt>
      <trkpt lat="44.67514" lon="4.22383">
        <ele>459</ele>
        <time>2021-04-10T13:13:44Z</time>
      </trkpt>
      <trkpt lat="44.675" lon="4.22418">
        <ele>454</ele>
        <time>2021-04-10T13:13:49Z</time>
      </trkpt>
      <trkpt lat="44.6749" lon="4.22443">
        <ele>451</ele>
        <time>2021-04-10T13:13:53Z</time>
      </trkpt>
      <trkpt lat="44.67486" lon="4.22462">
        <ele>450</ele>
        <time>2021-04-10T13:13:55Z</time>
      </trkpt>
      <trkpt lat="44.67485" lon="4.22488">
        <ele>451</ele>
        <time>2021-04-10T13:13:58Z</time>
      </trkpt>
      <trkpt lat="44.67491" lon="4.22518">
        <ele>451</ele>
        <time>2021-04-10T13:14:02Z</time>
      </trkpt>
      <trkpt lat="44.67512" lon="4.22566">
        <ele>452</ele>
        <time>2021-04-10T13:14:09Z</time>
      </trkpt>
      <trkpt lat="44.67519" lon="4.22586">
        <ele>451</ele>
        <time>2021-04-10T13:14:12Z</time>
      </trkpt>
      <trkpt lat="44.6757" lon="4.22866">
        <ele>454</ele>
        <time>2021-04-10T13:14:49Z</time>
      </trkpt>
      <trkpt lat="44.67622" lon="4.23104">
        <ele>439</ele>
        <time>2021-04-10T13:15:20Z</time>
      </trkpt>
      <trkpt lat="44.67673" lon="4.23237">
        <ele>428</ele>
        <time>2021-04-10T13:15:40Z</time>
      </trkpt>
      <trkpt lat="44.67762" lon="4.2341">
        <ele>417</ele>
        <time>2021-04-10T13:16:07Z</time>
      </trkpt>
      <trkpt lat="44.67794" lon="4.23462">
        <ele>412</ele>
        <time>2021-04-10T13:16:15Z</time>
      </trkpt>
      <trkpt lat="44.67805" lon="4.23473">
        <ele>411</ele>
        <time>2021-04-10T13:16:18Z</time>
      </trkpt>
      <trkpt lat="44.67814" lon="4.23477">
        <ele>412</ele>
        <time>2021-04-10T13:16:19Z</time>
      </trkpt>
      <trkpt lat="44.67825" lon="4.23479">
        <ele>413</ele>
        <time>2021-04-10T13:16:21Z</time>
      </trkpt>
      <trkpt lat="44.67841" lon="4.23478">
        <ele>417</ele>
        <time>2021-04-10T13:16:24Z</time>
      </trkpt>
      <trkpt lat="44.6785" lon="4.23482">
        <ele>418</ele>
        <time>2021-04-10T13:16:26Z</time>
      </trkpt>
      <trkpt lat="44.67857" lon="4.23491">
        <ele>417</ele>
        <time>2021-04-10T13:16:27Z</time>
      </trkpt>
      <trkpt lat="44.6786" lon="4.23503">
        <ele>416</ele>
        <time>2021-04-10T13:16:29Z</time>
      </trkpt>
      <trkpt lat="44.67861" lon="4.23517">
        <ele>418</ele>
        <time>2021-04-10T13:16:31Z</time>
      </trkpt>
      <trkpt lat="44.67858" lon="4.23529">
        <ele>418</ele>
        <time>2021-04-10T13:16:32Z</time>
      </trkpt>
      <trkpt lat="44.67851" lon="4.2355">
        <ele>417</ele>
        <time>2021-04-10T13:16:35Z</time>
      </trkpt>
      <trkpt lat="44.67833" lon="4.23577">
        <ele>410</ele>
        <time>2021-04-10T13:16:40Z</time>
      </trkpt>
      <trkpt lat="44.678" lon="4.23612">
        <ele>405</ele>
        <time>2021-04-10T13:16:47Z</time>
      </trkpt>
      <trkpt lat="44.67791" lon="4.23625">
        <ele>404</ele>
        <time>2021-04-10T13:16:50Z</time>
      </trkpt>
      <trkpt lat="44.67779" lon="4.23657">
        <ele>403</ele>
        <time>2021-04-10T13:16:54Z</time>
      </trkpt>
      <trkpt lat="44.67777" lon="4.23686">
        <ele>403</ele>
        <time>2021-04-10T13:16:58Z</time>
      </trkpt>
      <trkpt lat="44.67777" lon="4.23747">
        <ele>403</ele>
        <time>2021-04-10T13:17:06Z</time>
      </trkpt>
      <trkpt lat="44.67785" lon="4.23938">
        <ele>395</ele>
        <time>2021-04-10T13:17:30Z</time>
      </trkpt>
      <trkpt lat="44.67784" lon="4.23963">
        <ele>395</ele>
        <time>2021-04-10T13:17:33Z</time>
      </trkpt>
      <trkpt lat="44.67773" lon="4.23988">
        <ele>393</ele>
        <time>2021-04-10T13:17:37Z</time>
      </trkpt>
      <trkpt lat="44.67754" lon="4.24011">
        <ele>391</ele>
        <time>2021-04-10T13:17:41Z</time>
      </trkpt>
      <trkpt lat="44.67711" lon="4.24037">
        <ele>387</ele>
        <time>2021-04-10T13:17:50Z</time>
      </trkpt>
      <trkpt lat="44.67694" lon="4.24054">
        <ele>385</ele>
        <time>2021-04-10T13:17:53Z</time>
      </trkpt>
      <trkpt lat="44.67677" lon="4.24086">
        <ele>383</ele>
        <time>2021-04-10T13:17:58Z</time>
      </trkpt>
      <trkpt lat="44.67665" lon="4.24129">
        <ele>383</ele>
        <time>2021-04-10T13:18:04Z</time>
      </trkpt>
      <trkpt lat="44.67645" lon="4.24184">
        <ele>383</ele>
        <time>2021-04-10T13:18:12Z</time>
      </trkpt>
      <trkpt lat="44.67631" lon="4.2421">
        <ele>381</ele>
        <time>2021-04-10T13:18:16Z</time>
      </trkpt>
      <trkpt lat="44.67605" lon="4.2424">
        <ele>375</ele>
        <time>2021-04-10T13:18:22Z</time>
      </trkpt>
      <trkpt lat="44.6759" lon="4.24279">
        <ele>371</ele>
        <time>2021-04-10T13:18:28Z</time>
      </trkpt>
      <trkpt lat="44.67587" lon="4.2432">
        <ele>372</ele>
        <time>2021-04-10T13:18:33Z</time>
      </trkpt>
      <trkpt lat="44.67584" lon="4.2441">
        <ele>365</ele>
        <time>2021-04-10T13:18:44Z</time>
      </trkpt>
      <trkpt lat="44.67588" lon="4.24443">
        <ele>363</ele>
        <time>2021-04-10T13:18:49Z</time>
      </trkpt>
      <trkpt lat="44.67595" lon="4.24467">
        <ele>362</ele>
        <time>2021-04-10T13:18:52Z</time>
      </trkpt>
      <trkpt lat="44.67599" lon="4.24481">
        <ele>361</ele>
        <time>2021-04-10T13:18:54Z</time>
      </trkpt>
      <trkpt lat="44.6761" lon="4.24516">
        <ele>362</ele>
        <time>2021-04-10T13:18:59Z</time>
      </trkpt>
      <trkpt lat="44.67615" lon="4.24541">
        <ele>365</ele>
        <time>2021-04-10T13:19:02Z</time>
      </trkpt>
      <trkpt lat="44.67614" lon="4.24607">
        <ele>371</ele>
        <time>2021-04-10T13:19:10Z</time>
      </trkpt>
      <trkpt lat="44.67589" lon="4.24714">
        <ele>367</ele>
        <time>2021-04-10T13:19:25Z</time>
      </trkpt>
      <trkpt lat="44.67575" lon="4.24747">
        <ele>365</ele>
        <time>2021-04-10T13:19:29Z</time>
      </trkpt>
      <trkpt lat="44.67543" lon="4.24779">
        <ele>364</ele>
        <time>2021-04-10T13:19:36Z</time>
      </trkpt>
      <trkpt lat="44.67518" lon="4.24831">
        <ele>363</ele>
        <time>2021-04-10T13:19:44Z</time>
      </trkpt>
      <trkpt lat="44.67493" lon="4.24863">
        <ele>362</ele>
        <time>2021-04-10T13:19:50Z</time>
      </trkpt>
      <trkpt lat="44.67479" lon="4.24917">
        <ele>367</ele>
        <time>2021-04-10T13:19:58Z</time>
      </trkpt>
      <trkpt lat="44.67421" lon="4.25039">
        <ele>357</ele>
        <time>2021-04-10T13:20:16Z</time>
      </trkpt>
      <trkpt lat="44.67418" lon="4.2507">
        <ele>356</ele>
        <time>2021-04-10T13:20:20Z</time>
      </trkpt>
      <trkpt lat="44.67432" lon="4.25117">
        <ele>358</ele>
        <time>2021-04-10T13:20:27Z</time>
      </trkpt>
      <trkpt lat="44.6746" lon="4.25169">
        <ele>359</ele>
        <time>2021-04-10T13:20:35Z</time>
      </trkpt>
      <trkpt lat="44.6748" lon="4.25192">
        <ele>359</ele>
        <time>2021-04-10T13:20:39Z</time>
      </trkpt>
      <trkpt lat="44.67516" lon="4.25216">
        <ele>362</ele>
        <time>2021-04-10T13:20:47Z</time>
      </trkpt>
      <trkpt lat="44.67564" lon="4.25259">
        <ele>367</ele>
        <time>2021-04-10T13:20:57Z</time>
      </trkpt>
      <trkpt lat="44.67585" lon="4.25293">
        <ele>367</ele>
        <time>2021-04-10T13:21:02Z</time>
      </trkpt>
      <trkpt lat="44.67599" lon="4.25325">
        <ele>367</ele>
        <time>2021-04-10T13:21:07Z</time>
      </trkpt>
      <trkpt lat="44.67604" lon="4.25342">
        <ele>368</ele>
        <time>2021-04-10T13:21:09Z</time>
      </trkpt>
      <trkpt lat="44.67609" lon="4.25401">
        <ele>367</ele>
        <time>2021-04-10T13:21:17Z</time>
      </trkpt>
      <trkpt lat="44.67601" lon="4.25445">
        <ele>363</ele>
        <time>2021-04-10T13:21:23Z</time>
      </trkpt>
      <trkpt lat="44.67577" lon="4.25498">
        <ele>355</ele>
        <time>2021-04-10T13:21:31Z</time>
      </trkpt>
      <trkpt lat="44.67544" lon="4.25553">
        <ele>360</ele>
        <time>2021-04-10T13:21:40Z</time>
      </trkpt>
      <trkpt lat="44.67519" lon="4.2557">
        <ele>357</ele>
        <time>2021-04-10T13:21:45Z</time>
      </trkpt>
      <trkpt lat="44.67449" lon="4.25623">
        <ele>357</ele>
        <time>2021-04-10T13:21:59Z</time>
      </trkpt>
      <trkpt lat="44.67424" lon="4.2565">
        <ele>356</ele>
        <time>2021-04-10T13:22:04Z</time>
      </trkpt>
      <trkpt lat="44.6737" lon="4.25802">
        <ele>352</ele>
        <time>2021-04-10T13:22:26Z</time>
      </trkpt>
      <trkpt lat="44.67295" lon="4.26">
        <ele>345</ele>
        <time>2021-04-10T13:22:54Z</time>
      </trkpt>
      <trkpt lat="44.67291" lon="4.26035">
        <ele>345</ele>
        <time>2021-04-10T13:22:59Z</time>
      </trkpt>
      <trkpt lat="44.67296" lon="4.26067">
        <ele>346</ele>
        <time>2021-04-10T13:23:03Z</time>
      </trkpt>
      <trkpt lat="44.673" lon="4.26082">
        <ele>346</ele>
        <time>2021-04-10T13:23:05Z</time>
      </trkpt>
      <trkpt lat="44.67352" lon="4.26253">
        <ele>349</ele>
        <time>2021-04-10T13:23:29Z</time>
      </trkpt>
      <trkpt lat="44.67355" lon="4.26344">
        <ele>351</ele>
        <time>2021-04-10T13:23:40Z</time>
      </trkpt>
      <trkpt lat="44.67352" lon="4.26362">
        <ele>351</ele>
        <time>2021-04-10T13:23:42Z</time>
      </trkpt>
      <trkpt lat="44.67345" lon="4.2641">
        <ele>350</ele>
        <time>2021-04-10T13:23:49Z</time>
      </trkpt>
      <trkpt lat="44.67321" lon="4.26539">
        <ele>361</ele>
        <time>2021-04-10T13:24:05Z</time>
      </trkpt>
      <trkpt lat="44.67304" lon="4.2657">
        <ele>361</ele>
        <time>2021-04-10T13:24:10Z</time>
      </trkpt>
      <trkpt lat="44.67267" lon="4.26622">
        <ele>359</ele>
        <time>2021-04-10T13:24:20Z</time>
      </trkpt>
      <trkpt lat="44.6725" lon="4.26642">
        <ele>356</ele>
        <time>2021-04-10T13:24:24Z</time>
      </trkpt>
      <trkpt lat="44.67204" lon="4.26696">
        <ele>350</ele>
        <time>2021-04-10T13:24:34Z</time>
      </trkpt>
      <trkpt lat="44.67194" lon="4.26721">
        <ele>350</ele>
        <time>2021-04-10T13:24:38Z</time>
      </trkpt>
      <trkpt lat="44.67193" lon="4.26732">
        <ele>351</ele>
        <time>2021-04-10T13:24:39Z</time>
      </trkpt>
      <trkpt lat="44.67201" lon="4.26734">
        <ele>354</ele>
        <time>2021-04-10T13:24:41Z</time>
      </trkpt>
      <trkpt lat="44.67207" lon="4.26741">
        <ele>357</ele>
        <time>2021-04-10T13:24:42Z</time>
      </trkpt>
      <trkpt lat="44.6721" lon="4.26755">
        <ele>360</ele>
        <time>2021-04-10T13:24:44Z</time>
      </trkpt>
      <trkpt lat="44.67202" lon="4.26803">
        <ele>355</ele>
        <time>2021-04-10T13:24:50Z</time>
      </trkpt>
      <trkpt lat="44.67203" lon="4.26841">
        <ele>353</ele>
        <time>2021-04-10T13:24:55Z</time>
      </trkpt>
      <trkpt lat="44.6721" lon="4.26866">
        <ele>352</ele>
        <time>2021-04-10T13:24:58Z</time>
      </trkpt>
      <trkpt lat="44.67228" lon="4.26895">
        <ele>353</ele>
        <time>2021-04-10T13:25:03Z</time>
      </trkpt>
      <trkpt lat="44.67239" lon="4.2691">
        <ele>354</ele>
        <time>2021-04-10T13:25:06Z</time>
      </trkpt>
      <trkpt lat="44.67257" lon="4.26919">
        <ele>358</ele>
        <time>2021-04-10T13:25:09Z</time>
      </trkpt>
      <trkpt lat="44.67282" lon="4.26921">
        <ele>367</ele>
        <time>2021-04-10T13:25:14Z</time>
      </trkpt>
      <trkpt lat="44.67295" lon="4.26932">
        <ele>371</ele>
        <time>2021-04-10T13:25:17Z</time>
      </trkpt>
      <trkpt lat="44.67302" lon="4.26944">
        <ele>372</ele>
        <time>2021-04-10T13:25:19Z</time>
      </trkpt>
      <trkpt lat="44.67323" lon="4.2706">
        <ele>374</ele>
        <time>2021-04-10T13:25:34Z</time>
      </trkpt>
      <trkpt lat="44.67324" lon="4.27095">
        <ele>375</ele>
        <time>2021-04-10T13:25:38Z</time>
      </trkpt>
      <trkpt lat="44.67307" lon="4.27189">
        <ele>372</ele>
        <time>2021-04-10T13:25:50Z</time>
      </trkpt>
      <trkpt lat="44.67295" lon="4.2723">
        <ele>372</ele>
        <time>2021-04-10T13:25:56Z</time>
      </trkpt>
      <trkpt lat="44.67277" lon="4.27264">
        <ele>371</ele>
        <time>2021-04-10T13:26:01Z</time>
      </trkpt>
      <trkpt lat="44.67226" lon="4.27319">
        <ele>369</ele>
        <time>2021-04-10T13:26:13Z</time>
      </trkpt>
      <trkpt lat="44.67214" lon="4.27339">
        <ele>369</ele>
        <time>2021-04-10T13:26:16Z</time>
      </trkpt>
      <trkpt lat="44.67213" lon="4.27359">
        <ele>370</ele>
        <time>2021-04-10T13:26:19Z</time>
      </trkpt>
      <trkpt lat="44.67216" lon="4.27374">
        <ele>373</ele>
        <time>2021-04-10T13:26:21Z</time>
      </trkpt>
      <trkpt lat="44.67224" lon="4.27381">
        <ele>377</ele>
        <time>2021-04-10T13:26:22Z</time>
      </trkpt>
      <trkpt lat="44.67237" lon="4.27385">
        <ele>382</ele>
        <time>2021-04-10T13:26:25Z</time>
      </trkpt>
      <trkpt lat="44.67248" lon="4.27381">
        <ele>386</ele>
        <time>2021-04-10T13:26:27Z</time>
      </trkpt>
      <trkpt lat="44.67296" lon="4.27354">
        <ele>394</ele>
        <time>2021-04-10T13:26:36Z</time>
      </trkpt>
      <trkpt lat="44.67362" lon="4.27309">
        <ele>399</ele>
        <time>2021-04-10T13:26:49Z</time>
      </trkpt>
      <trkpt lat="44.67381" lon="4.27303">
        <ele>401</ele>
        <time>2021-04-10T13:26:52Z</time>
      </trkpt>
      <trkpt lat="44.67426" lon="4.27314">
        <ele>405</ele>
        <time>2021-04-10T13:27:01Z</time>
      </trkpt>
      <trkpt lat="44.67442" lon="4.27312">
        <ele>405</ele>
        <time>2021-04-10T13:27:03Z</time>
      </trkpt>
      <trkpt lat="44.67483" lon="4.27294">
        <ele>407</ele>
        <time>2021-04-10T13:27:11Z</time>
      </trkpt>
      <trkpt lat="44.67503" lon="4.27281">
        <ele>407</ele>
        <time>2021-04-10T13:27:15Z</time>
      </trkpt>
      <trkpt lat="44.67652" lon="4.27141">
        <ele>421</ele>
        <time>2021-04-10T13:27:47Z</time>
      </trkpt>
      <trkpt lat="44.67667" lon="4.27119">
        <ele>422</ele>
        <time>2021-04-10T13:27:51Z</time>
      </trkpt>
      <trkpt lat="44.6768" lon="4.27089">
        <ele>422</ele>
        <time>2021-04-10T13:27:55Z</time>
      </trkpt>
      <trkpt lat="44.67691" lon="4.27044">
        <ele>420</ele>
        <time>2021-04-10T13:28:01Z</time>
      </trkpt>
      <trkpt lat="44.67703" lon="4.27012">
        <ele>418</ele>
        <time>2021-04-10T13:28:06Z</time>
      </trkpt>
      <trkpt lat="44.67713" lon="4.26999">
        <ele>418</ele>
        <time>2021-04-10T13:28:08Z</time>
      </trkpt>
      <trkpt lat="44.67722" lon="4.2699">
        <ele>419</ele>
        <time>2021-04-10T13:28:10Z</time>
      </trkpt>
      <trkpt lat="44.67745" lon="4.26975">
        <ele>420</ele>
        <time>2021-04-10T13:28:15Z</time>
      </trkpt>
      <trkpt lat="44.67774" lon="4.26963">
        <ele>421</ele>
        <time>2021-04-10T13:28:20Z</time>
      </trkpt>
      <trkpt lat="44.67792" lon="4.26959">
        <ele>421</ele>
        <time>2021-04-10T13:28:23Z</time>
      </trkpt>
      <trkpt lat="44.67811" lon="4.26962">
        <ele>421</ele>
        <time>2021-04-10T13:28:27Z</time>
      </trkpt>
      <trkpt lat="44.67821" lon="4.26965">
        <ele>421</ele>
        <time>2021-04-10T13:28:29Z</time>
      </trkpt>
      <trkpt lat="44.67834" lon="4.26973">
        <ele>420</ele>
        <time>2021-04-10T13:28:31Z</time>
      </trkpt>
      <trkpt lat="44.67857" lon="4.26993">
        <ele>421</ele>
        <time>2021-04-10T13:28:36Z</time>
      </trkpt>
      <trkpt lat="44.67884" lon="4.27002">
        <ele>422</ele>
        <time>2021-04-10T13:28:41Z</time>
      </trkpt>
      <trkpt lat="44.67911" lon="4.27">
        <ele>424</ele>
        <time>2021-04-10T13:28:46Z</time>
      </trkpt>
      <trkpt lat="44.67936" lon="4.26988">
        <ele>425</ele>
        <time>2021-04-10T13:28:50Z</time>
      </trkpt>
      <trkpt lat="44.67949" lon="4.2698">
        <ele>426</ele>
        <time>2021-04-10T13:28:53Z</time>
      </trkpt>
      <trkpt lat="44.67992" lon="4.26944">
        <ele>428</ele>
        <time>2021-04-10T13:29:02Z</time>
      </trkpt>
      <trkpt lat="44.68073" lon="4.26868">
        <ele>429</ele>
        <time>2021-04-10T13:29:19Z</time>
      </trkpt>
      <trkpt lat="44.68091" lon="4.26861">
        <ele>430</ele>
        <time>2021-04-10T13:29:22Z</time>
      </trkpt>
      <trkpt lat="44.68138" lon="4.26853">
        <ele>434</ele>
        <time>2021-04-10T13:29:31Z</time>
      </trkpt>
      <trkpt lat="44.6816" lon="4.26842">
        <ele>435</ele>
        <time>2021-04-10T13:29:35Z</time>
      </trkpt>
      <trkpt lat="44.68197" lon="4.268">
        <ele>436</ele>
        <time>2021-04-10T13:29:43Z</time>
      </trkpt>
      <trkpt lat="44.68226" lon="4.26778">
        <ele>437</ele>
        <time>2021-04-10T13:29:49Z</time>
      </trkpt>
      <trkpt lat="44.68265" lon="4.26758">
        <ele>437</ele>
        <time>2021-04-10T13:29:57Z</time>
      </trkpt>
      <trkpt lat="44.68289" lon="4.26732">
        <ele>438</ele>
        <time>2021-04-10T13:30:02Z</time>
      </trkpt>
      <trkpt lat="44.6835" lon="4.26652">
        <ele>438</ele>
        <time>2021-04-10T13:30:17Z</time>
      </trkpt>
      <trkpt lat="44.68365" lon="4.26638">
        <ele>440</ele>
        <time>2021-04-10T13:30:20Z</time>
      </trkpt>
      <trkpt lat="44.68386" lon="4.26624">
        <ele>442</ele>
        <time>2021-04-10T13:30:24Z</time>
      </trkpt>
      <trkpt lat="44.68434" lon="4.26599">
        <ele>445</ele>
        <time>2021-04-10T13:30:33Z</time>
      </trkpt>
      <trkpt lat="44.68452" lon="4.26587">
        <ele>445</ele>
        <time>2021-04-10T13:30:37Z</time>
      </trkpt>
      <trkpt lat="44.68512" lon="4.26532">
        <ele>451</ele>
        <time>2021-04-10T13:30:50Z</time>
      </trkpt>
      <trkpt lat="44.68541" lon="4.26523">
        <ele>454</ele>
        <time>2021-04-10T13:30:55Z</time>
      </trkpt>
      <trkpt lat="44.68571" lon="4.26534">
        <ele>454</ele>
        <time>2021-04-10T13:31:00Z</time>
      </trkpt>
      <trkpt lat="44.68588" lon="4.26537">
        <ele>455</ele>
        <time>2021-04-10T13:31:03Z</time>
      </trkpt>
      <trkpt lat="44.68647" lon="4.26533">
        <ele>462</ele>
        <time>2021-04-10T13:31:14Z</time>
      </trkpt>
      <trkpt lat="44.68657" lon="4.26529">
        <ele>463</ele>
        <time>2021-04-10T13:31:16Z</time>
      </trkpt>
      <trkpt lat="44.68667" lon="4.26519">
        <ele>464</ele>
        <time>2021-04-10T13:31:18Z</time>
      </trkpt>
      <trkpt lat="44.68682" lon="4.26481">
        <ele>466</ele>
        <time>2021-04-10T13:31:24Z</time>
      </trkpt>
      <trkpt lat="44.68699" lon="4.2643">
        <ele>469</ele>
        <time>2021-04-10T13:31:31Z</time>
      </trkpt>
      <trkpt lat="44.68728" lon="4.26367">
        <ele>468</ele>
        <time>2021-04-10T13:31:40Z</time>
      </trkpt>
      <trkpt lat="44.68772" lon="4.26281">
        <ele>460</ele>
        <time>2021-04-10T13:31:54Z</time>
      </trkpt>
      <trkpt lat="44.68804" lon="4.26231">
        <ele>456</ele>
        <time>2021-04-10T13:32:02Z</time>
      </trkpt>
      <trkpt lat="44.68832" lon="4.262">
        <ele>451</ele>
        <time>2021-04-10T13:32:08Z</time>
      </trkpt>
      <trkpt lat="44.68837" lon="4.26181">
        <ele>451</ele>
        <time>2021-04-10T13:32:11Z</time>
      </trkpt>
      <trkpt lat="44.6883" lon="4.26159">
        <ele>454</ele>
        <time>2021-04-10T13:32:14Z</time>
      </trkpt>
      <trkpt lat="44.68815" lon="4.26132">
        <ele>458</ele>
        <time>2021-04-10T13:32:18Z</time>
      </trkpt>
      <trkpt lat="44.68812" lon="4.26116">
        <ele>460</ele>
        <time>2021-04-10T13:32:20Z</time>
      </trkpt>
      <trkpt lat="44.68818" lon="4.26094">
        <ele>459</ele>
        <time>2021-04-10T13:32:23Z</time>
      </trkpt>
      <trkpt lat="44.68835" lon="4.26058">
        <ele>456</ele>
        <time>2021-04-10T13:32:29Z</time>
      </trkpt>
      <trkpt lat="44.68843" lon="4.26015">
        <ele>458</ele>
        <time>2021-04-10T13:32:35Z</time>
      </trkpt>
      <trkpt lat="44.68855" lon="4.2599">
        <ele>457</ele>
        <time>2021-04-10T13:32:38Z</time>
      </trkpt>
      <trkpt lat="44.6889" lon="4.25963">
        <ele>448</ele>
        <time>2021-04-10T13:32:45Z</time>
      </trkpt>
      <trkpt lat="44.68896" lon="4.25945">
        <ele>447</ele>
        <time>2021-04-10T13:32:48Z</time>
      </trkpt>
      <trkpt lat="44.68888" lon="4.25918">
        <ele>450</ele>
        <time>2021-04-10T13:32:52Z</time>
      </trkpt>
      <trkpt lat="44.6887" lon="4.25898">
        <ele>455</ele>
        <time>2021-04-10T13:32:56Z</time>
      </trkpt>
      <trkpt lat="44.68853" lon="4.25845">
        <ele>457</ele>
        <time>2021-04-10T13:33:03Z</time>
      </trkpt>
      <trkpt lat="44.68858" lon="4.25827">
        <ele>457</ele>
        <time>2021-04-10T13:33:06Z</time>
      </trkpt>
      <trkpt lat="44.68869" lon="4.25817">
        <ele>457</ele>
        <time>2021-04-10T13:33:08Z</time>
      </trkpt>
      <trkpt lat="44.68922" lon="4.25817">
        <ele>450</ele>
        <time>2021-04-10T13:33:17Z</time>
      </trkpt>
      <trkpt lat="44.68973" lon="4.25804">
        <ele>447</ele>
        <time>2021-04-10T13:33:27Z</time>
      </trkpt>
      <trkpt lat="44.69017" lon="4.25782">
        <ele>445</ele>
        <time>2021-04-10T13:33:35Z</time>
      </trkpt>
      <trkpt lat="44.69043" lon="4.25761">
        <ele>443</ele>
        <time>2021-04-10T13:33:40Z</time>
      </trkpt>
      <trkpt lat="44.69133" lon="4.25653">
        <ele>439</ele>
        <time>2021-04-10T13:34:01Z</time>
      </trkpt>
      <trkpt lat="44.69156" lon="4.25636">
        <ele>437</ele>
        <time>2021-04-10T13:34:06Z</time>
      </trkpt>
      <trkpt lat="44.69215" lon="4.25616">
        <ele>432</ele>
        <time>2021-04-10T13:34:17Z</time>
      </trkpt>
      <trkpt lat="44.69254" lon="4.25607">
        <ele>430</ele>
        <time>2021-04-10T13:34:24Z</time>
      </trkpt>
      <trkpt lat="44.69314" lon="4.25282">
        <ele>442</ele>
        <time>2021-04-10T13:35:06Z</time>
      </trkpt>
      <trkpt lat="44.69319" lon="4.25267">
        <ele>442</ele>
        <time>2021-04-10T13:35:08Z</time>
      </trkpt>
      <trkpt lat="44.69326" lon="4.25255">
        <ele>442</ele>
        <time>2021-04-10T13:35:10Z</time>
      </trkpt>
      <trkpt lat="44.69413" lon="4.25127">
        <ele>442</ele>
        <time>2021-04-10T13:35:33Z</time>
      </trkpt>
      <trkpt lat="44.69419" lon="4.25115">
        <ele>442</ele>
        <time>2021-04-10T13:35:34Z</time>
      </trkpt>
      <trkpt lat="44.69428" lon="4.25085">
        <ele>443</ele>
        <time>2021-04-10T13:35:39Z</time>
      </trkpt>
      <trkpt lat="44.69445" lon="4.24981">
        <ele>447</ele>
        <time>2021-04-10T13:35:52Z</time>
      </trkpt>
      <trkpt lat="44.69453" lon="4.24946">
        <ele>447</ele>
        <time>2021-04-10T13:35:57Z</time>
      </trkpt>
      <trkpt lat="44.69517" lon="4.24779">
        <ele>452</ele>
        <time>2021-04-10T13:36:21Z</time>
      </trkpt>
      <trkpt lat="44.69553" lon="4.24729">
        <ele>454</ele>
        <time>2021-04-10T13:36:30Z</time>
      </trkpt>
      <trkpt lat="44.69617" lon="4.24595">
        <ele>459</ele>
        <time>2021-04-10T13:36:50Z</time>
      </trkpt>
      <trkpt lat="44.69652" lon="4.24541">
        <ele>460</ele>
        <time>2021-04-10T13:36:59Z</time>
      </trkpt>
      <trkpt lat="44.69665" lon="4.24514">
        <ele>461</ele>
        <time>2021-04-10T13:37:03Z</time>
      </trkpt>
      <trkpt lat="44.69737" lon="4.24258">
        <ele>463</ele>
        <time>2021-04-10T13:37:38Z</time>
      </trkpt>
      <trkpt lat="44.69751" lon="4.24216">
        <ele>463</ele>
        <time>2021-04-10T13:37:44Z</time>
      </trkpt>
      <trkpt lat="44.69771" lon="4.24183">
        <ele>464</ele>
        <time>2021-04-10T13:37:50Z</time>
      </trkpt>
      <trkpt lat="44.69823" lon="4.24107">
        <ele>465</ele>
        <time>2021-04-10T13:38:03Z</time>
      </trkpt>
      <trkpt lat="44.6983" lon="4.2409">
        <ele>466</ele>
        <time>2021-04-10T13:38:05Z</time>
      </trkpt>
      <trkpt lat="44.69846" lon="4.23991">
        <ele>469</ele>
        <time>2021-04-10T13:38:18Z</time>
      </trkpt>
      <trkpt lat="44.69851" lon="4.2397">
        <ele>469</ele>
        <time>2021-04-10T13:38:21Z</time>
      </trkpt>
      <trkpt lat="44.69877" lon="4.2391">
        <ele>469</ele>
        <time>2021-04-10T13:38:30Z</time>
      </trkpt>
      <trkpt lat="44.69882" lon="4.23892">
        <ele>469</ele>
        <time>2021-04-10T13:38:32Z</time>
      </trkpt>
      <trkpt lat="44.6991" lon="4.23766">
        <ele>472</ele>
        <time>2021-04-10T13:38:49Z</time>
      </trkpt>
      <trkpt lat="44.69926" lon="4.23645">
        <ele>475</ele>
        <time>2021-04-10T13:39:05Z</time>
      </trkpt>
      <trkpt lat="44.69931" lon="4.23617">
        <ele>475</ele>
        <time>2021-04-10T13:39:08Z</time>
      </trkpt>
      <trkpt lat="44.69974" lon="4.23521">
        <ele>480</ele>
        <time>2021-04-10T13:39:23Z</time>
      </trkpt>
      <trkpt lat="44.69993" lon="4.2347">
        <ele>483</ele>
        <time>2021-04-10T13:39:30Z</time>
      </trkpt>
      <trkpt lat="44.69999" lon="4.23438">
        <ele>484</ele>
        <time>2021-04-10T13:39:34Z</time>
      </trkpt>
      <trkpt lat="44.70003" lon="4.23318">
        <ele>487</ele>
        <time>2021-04-10T13:39:49Z</time>
      </trkpt>
      <trkpt lat="44.70007" lon="4.23285">
        <ele>488</ele>
        <time>2021-04-10T13:39:54Z</time>
      </trkpt>
      <trkpt lat="44.7003" lon="4.23202">
        <ele>493</ele>
        <time>2021-04-10T13:40:05Z</time>
      </trkpt>
      <trkpt lat="44.70034" lon="4.23174">
        <ele>495</ele>
        <time>2021-04-10T13:40:09Z</time>
      </trkpt>
      <trkpt lat="44.70052" lon="4.23026">
        <ele>497</ele>
        <time>2021-04-10T13:40:27Z</time>
      </trkpt>
      <trkpt lat="44.70056" lon="4.23011">
        <ele>497</ele>
        <time>2021-04-10T13:40:30Z</time>
      </trkpt>
      <trkpt lat="44.7006" lon="4.22994">
        <ele>497</ele>
        <time>2021-04-10T13:40:32Z</time>
      </trkpt>
      <trkpt lat="44.70067" lon="4.2298">
        <ele>497</ele>
        <time>2021-04-10T13:40:34Z</time>
      </trkpt>
      <trkpt lat="44.70103" lon="4.22922">
        <ele>498</ele>
        <time>2021-04-10T13:40:44Z</time>
      </trkpt>
      <trkpt lat="44.70113" lon="4.22902">
        <ele>499</ele>
        <time>2021-04-10T13:40:47Z</time>
      </trkpt>
      <trkpt lat="44.70117" lon="4.22888">
        <ele>500</ele>
        <time>2021-04-10T13:40:49Z</time>
      </trkpt>
      <trkpt lat="44.70117" lon="4.22873">
        <ele>500</ele>
        <time>2021-04-10T13:40:51Z</time>
      </trkpt>
      <trkpt lat="44.70109" lon="4.22798">
        <ele>503</ele>
        <time>2021-04-10T13:41:00Z</time>
      </trkpt>
      <trkpt lat="44.70109" lon="4.22757">
        <ele>504</ele>
        <time>2021-04-10T13:41:05Z</time>
      </trkpt>
      <trkpt lat="44.70124" lon="4.22655">
        <ele>507</ele>
        <time>2021-04-10T13:41:19Z</time>
      </trkpt>
      <trkpt lat="44.70129" lon="4.22633">
        <ele>507</ele>
        <time>2021-04-10T13:41:21Z</time>
      </trkpt>
      <trkpt lat="44.70141" lon="4.226">
        <ele>507</ele>
        <time>2021-04-10T13:41:26Z</time>
      </trkpt>
      <trkpt lat="44.70164" lon="4.22546">
        <ele>506</ele>
        <time>2021-04-10T13:41:34Z</time>
      </trkpt>
      <trkpt lat="44.7019" lon="4.22475">
        <ele>509</ele>
        <time>2021-04-10T13:41:44Z</time>
      </trkpt>
      <trkpt lat="44.70227" lon="4.22354">
        <ele>515</ele>
        <time>2021-04-10T13:42:01Z</time>
      </trkpt>
      <trkpt lat="44.70245" lon="4.22303">
        <ele>518</ele>
        <time>2021-04-10T13:42:08Z</time>
      </trkpt>
      <trkpt lat="44.70319" lon="4.22114">
        <ele>521</ele>
        <time>2021-04-10T13:42:35Z</time>
      </trkpt>
      <trkpt lat="44.70325" lon="4.22091">
        <ele>521</ele>
        <time>2021-04-10T13:42:38Z</time>
      </trkpt>
      <trkpt lat="44.70327" lon="4.22072">
        <ele>521</ele>
        <time>2021-04-10T13:42:41Z</time>
      </trkpt>
      <trkpt lat="44.70324" lon="4.22012">
        <ele>526</ele>
        <time>2021-04-10T13:42:48Z</time>
      </trkpt>
      <trkpt lat="44.70324" lon="4.21994">
        <ele>527</ele>
        <time>2021-04-10T13:42:51Z</time>
      </trkpt>
      <trkpt lat="44.70327" lon="4.21978">
        <ele>528</ele>
        <time>2021-04-10T13:42:53Z</time>
      </trkpt>
      <trkpt lat="44.70336" lon="4.21947">
        <ele>527</ele>
        <time>2021-04-10T13:42:57Z</time>
      </trkpt>
      <trkpt lat="44.70371" lon="4.21833">
        <ele>518</ele>
        <time>2021-04-10T13:43:13Z</time>
      </trkpt>
      <trkpt lat="44.70386" lon="4.21705">
        <ele>520</ele>
        <time>2021-04-10T13:43:29Z</time>
      </trkpt>
      <trkpt lat="44.70393" lon="4.21686">
        <ele>518</ele>
        <time>2021-04-10T13:43:32Z</time>
      </trkpt>
      <trkpt lat="44.70403" lon="4.21667">
        <ele>516</ele>
        <time>2021-04-10T13:43:35Z</time>
      </trkpt>
      <trkpt lat="44.70421" lon="4.21656">
        <ele>512</ele>
        <time>2021-04-10T13:43:38Z</time>
      </trkpt>
      <trkpt lat="44.70431" lon="4.21652">
        <ele>511</ele>
        <time>2021-04-10T13:43:40Z</time>
      </trkpt>
      <trkpt lat="44.70444" lon="4.21651">
        <ele>509</ele>
        <time>2021-04-10T13:43:43Z</time>
      </trkpt>
      <trkpt lat="44.70514" lon="4.21636">
        <ele>501</ele>
        <time>2021-04-10T13:43:55Z</time>
      </trkpt>
      <trkpt lat="44.7053" lon="4.21631">
        <ele>505</ele>
        <time>2021-04-10T13:43:58Z</time>
      </trkpt>
      <trkpt lat="44.70539" lon="4.21627">
        <ele>506</ele>
        <time>2021-04-10T13:44:00Z</time>
      </trkpt>
      <trkpt lat="44.70546" lon="4.21619">
        <ele>508</ele>
        <time>2021-04-10T13:44:01Z</time>
      </trkpt>
      <trkpt lat="44.70573" lon="4.21577">
        <ele>512</ele>
        <time>2021-04-10T13:44:09Z</time>
      </trkpt>
      <trkpt lat="44.70595" lon="4.21543">
        <ele>515</ele>
        <time>2021-04-10T13:44:14Z</time>
      </trkpt>
      <trkpt lat="44.70631" lon="4.21486">
        <ele>519</ele>
        <time>2021-04-10T13:44:24Z</time>
      </trkpt>
      <trkpt lat="44.70718" lon="4.21349">
        <ele>528</ele>
        <time>2021-04-10T13:44:47Z</time>
      </trkpt>
      <trkpt lat="44.708" lon="4.21216">
        <ele>541</ele>
        <time>2021-04-10T13:45:09Z</time>
      </trkpt>
      <trkpt lat="44.70838" lon="4.2116">
        <ele>544</ele>
        <time>2021-04-10T13:45:19Z</time>
      </trkpt>
      <trkpt lat="44.7085" lon="4.21132">
        <ele>547</ele>
        <time>2021-04-10T13:45:23Z</time>
      </trkpt>
      <trkpt lat="44.70881" lon="4.2106">
        <ele>551</ele>
        <time>2021-04-10T13:45:34Z</time>
      </trkpt>
      <trkpt lat="44.70914" lon="4.21">
        <ele>549</ele>
        <time>2021-04-10T13:45:44Z</time>
      </trkpt>
      <trkpt lat="44.70943" lon="4.20962">
        <ele>556</ele>
        <time>2021-04-10T13:45:51Z</time>
      </trkpt>
      <trkpt lat="44.70995" lon="4.2091">
        <ele>559</ele>
        <time>2021-04-10T13:46:02Z</time>
      </trkpt>
      <trkpt lat="44.71001" lon="4.20899">
        <ele>560</ele>
        <time>2021-04-10T13:46:04Z</time>
      </trkpt>
      <trkpt lat="44.71004" lon="4.20888">
        <ele>560</ele>
        <time>2021-04-10T13:46:05Z</time>
      </trkpt>
      <trkpt lat="44.71006" lon="4.20873">
        <ele>562</ele>
        <time>2021-04-10T13:46:07Z</time>
      </trkpt>
      <trkpt lat="44.71011" lon="4.20856">
        <ele>563</ele>
        <time>2021-04-10T13:46:10Z</time>
      </trkpt>
      <trkpt lat="44.71017" lon="4.20842">
        <ele>564</ele>
        <time>2021-04-10T13:46:12Z</time>
      </trkpt>
      <trkpt lat="44.71038" lon="4.20809">
        <ele>567</ele>
        <time>2021-04-10T13:46:17Z</time>
      </trkpt>
      <trkpt lat="44.71065" lon="4.20774">
        <ele>570</ele>
        <time>2021-04-10T13:46:24Z</time>
      </trkpt>
      <trkpt lat="44.71094" lon="4.20737">
        <ele>575</ele>
        <time>2021-04-10T13:46:31Z</time>
      </trkpt>
      <trkpt lat="44.71103" lon="4.20734">
        <ele>575</ele>
        <time>2021-04-10T13:46:32Z</time>
      </trkpt>
      <trkpt lat="44.71158" lon="4.20731">
        <ele>573</ele>
        <time>2021-04-10T13:46:42Z</time>
      </trkpt>
      <trkpt lat="44.71173" lon="4.20727">
        <ele>572</ele>
        <time>2021-04-10T13:46:45Z</time>
      </trkpt>
      <trkpt lat="44.71198" lon="4.20709">
        <ele>573</ele>
        <time>2021-04-10T13:46:50Z</time>
      </trkpt>
      <trkpt lat="44.71198" lon="4.20709">
        <ele>573</ele>
        <time>2021-04-10T13:46:50Z</time>
      </trkpt>
      <trkpt lat="44.71188" lon="4.20665">
        <ele>578</ele>
        <time>2021-04-10T13:46:56Z</time>
      </trkpt>
      <trkpt lat="44.71198" lon="4.20709">
        <ele>573</ele>
        <time>2021-04-10T13:47:02Z</time>
      </trkpt>
      <trkpt lat="44.71281" lon="4.20642">
        <ele>574</ele>
        <time>2021-04-10T13:47:19Z</time>
      </trkpt>
      <trkpt lat="44.71299" lon="4.20617">
        <ele>575</ele>
        <time>2021-04-10T13:47:23Z</time>
      </trkpt>
      <trkpt lat="44.7136" lon="4.20512">
        <ele>584</ele>
        <time>2021-04-10T13:47:40Z</time>
      </trkpt>
      <trkpt lat="44.71366" lon="4.20502">
        <ele>585</ele>
        <time>2021-04-10T13:47:42Z</time>
      </trkpt>
      <trkpt lat="44.71425" lon="4.20459">
        <ele>586</ele>
        <time>2021-04-10T13:47:54Z</time>
      </trkpt>
      <trkpt lat="44.71434" lon="4.20444">
        <ele>588</ele>
        <time>2021-04-10T13:47:56Z</time>
      </trkpt>
      <trkpt lat="44.71439" lon="4.20405">
        <ele>592</ele>
        <time>2021-04-10T13:48:01Z</time>
      </trkpt>
      <trkpt lat="44.71443" lon="4.20393">
        <ele>594</ele>
        <time>2021-04-10T13:48:03Z</time>
      </trkpt>
      <trkpt lat="44.7145" lon="4.20379">
        <ele>596</ele>
        <time>2021-04-10T13:48:05Z</time>
      </trkpt>
      <trkpt lat="44.7146" lon="4.20367">
        <ele>598</ele>
        <time>2021-04-10T13:48:07Z</time>
      </trkpt>
      <trkpt lat="44.71518" lon="4.20312">
        <ele>603</ele>
        <time>2021-04-10T13:48:20Z</time>
      </trkpt>
      <trkpt lat="44.71527" lon="4.20309">
        <ele>604</ele>
        <time>2021-04-10T13:48:21Z</time>
      </trkpt>
      <trkpt lat="44.71585" lon="4.20319">
        <ele>602</ele>
        <time>2021-04-10T13:48:32Z</time>
      </trkpt>
      <trkpt lat="44.71611" lon="4.20319">
        <ele>604</ele>
        <time>2021-04-10T13:48:36Z</time>
      </trkpt>
      <trkpt lat="44.71631" lon="4.20304">
        <ele>606</ele>
        <time>2021-04-10T13:48:41Z</time>
      </trkpt>
      <trkpt lat="44.71635" lon="4.20297">
        <ele>607</ele>
        <time>2021-04-10T13:48:42Z</time>
      </trkpt>
      <trkpt lat="44.71636" lon="4.2029">
        <ele>608</ele>
        <time>2021-04-10T13:48:43Z</time>
      </trkpt>
      <trkpt lat="44.71627" lon="4.20222">
        <ele>614</ele>
        <time>2021-04-10T13:48:51Z</time>
      </trkpt>
      <trkpt lat="44.71623" lon="4.20204">
        <ele>615</ele>
        <time>2021-04-10T13:48:54Z</time>
      </trkpt>
      <trkpt lat="44.71618" lon="4.20188">
        <ele>616</ele>
        <time>2021-04-10T13:48:56Z</time>
      </trkpt>
      <trkpt lat="44.71612" lon="4.20178">
        <ele>617</ele>
        <time>2021-04-10T13:48:58Z</time>
      </trkpt>
      <trkpt lat="44.71601" lon="4.20167">
        <ele>618</ele>
        <time>2021-04-10T13:49:00Z</time>
      </trkpt>
      <trkpt lat="44.7159" lon="4.2016">
        <ele>619</ele>
        <time>2021-04-10T13:49:02Z</time>
      </trkpt>
      <trkpt lat="44.71577" lon="4.20156">
        <ele>621</ele>
        <time>2021-04-10T13:49:04Z</time>
      </trkpt>
      <trkpt lat="44.71563" lon="4.20156">
        <ele>623</ele>
        <time>2021-04-10T13:49:07Z</time>
      </trkpt>
      <trkpt lat="44.71536" lon="4.20159">
        <ele>627</ele>
        <time>2021-04-10T13:49:12Z</time>
      </trkpt>
      <trkpt lat="44.71509" lon="4.20173">
        <ele>629</ele>
        <time>2021-04-10T13:49:17Z</time>
      </trkpt>
      <trkpt lat="44.71501" lon="4.20181">
        <ele>629</ele>
        <time>2021-04-10T13:49:19Z</time>
      </trkpt>
      <trkpt lat="44.71454" lon="4.20249">
        <ele>625</ele>
        <time>2021-04-10T13:49:31Z</time>
      </trkpt>
      <trkpt lat="44.71437" lon="4.20266">
        <ele>624</ele>
        <time>2021-04-10T13:49:34Z</time>
      </trkpt>
      <trkpt lat="44.71429" lon="4.20268">
        <ele>625</ele>
        <time>2021-04-10T13:49:36Z</time>
      </trkpt>
      <trkpt lat="44.71421" lon="4.20268">
        <ele>626</ele>
        <time>2021-04-10T13:49:37Z</time>
      </trkpt>
      <trkpt lat="44.71377" lon="4.20238">
        <ele>645</ele>
        <time>2021-04-10T13:49:46Z</time>
      </trkpt>
      <trkpt lat="44.7137" lon="4.20236">
        <ele>647</ele>
        <time>2021-04-10T13:49:47Z</time>
      </trkpt>
      <trkpt lat="44.71355" lon="4.20243">
        <ele>649</ele>
        <time>2021-04-10T13:49:50Z</time>
      </trkpt>
      <trkpt lat="44.71348" lon="4.20249">
        <ele>649</ele>
        <time>2021-04-10T13:49:51Z</time>
      </trkpt>
      <trkpt lat="44.71341" lon="4.20258">
        <ele>648</ele>
        <time>2021-04-10T13:49:53Z</time>
      </trkpt>
      <trkpt lat="44.71307" lon="4.20319">
        <ele>640</ele>
        <time>2021-04-10T13:50:03Z</time>
      </trkpt>
      <trkpt lat="44.71261" lon="4.20383">
        <ele>638</ele>
        <time>2021-04-10T13:50:14Z</time>
      </trkpt>
      <trkpt lat="44.71254" lon="4.20389">
        <ele>639</ele>
        <time>2021-04-10T13:50:16Z</time>
      </trkpt>
      <trkpt lat="44.71246" lon="4.2039">
        <ele>640</ele>
        <time>2021-04-10T13:50:17Z</time>
      </trkpt>
      <trkpt lat="44.71239" lon="4.20388">
        <ele>640</ele>
        <time>2021-04-10T13:50:19Z</time>
      </trkpt>
      <trkpt lat="44.71234" lon="4.20383">
        <ele>641</ele>
        <time>2021-04-10T13:50:20Z</time>
      </trkpt>
      <trkpt lat="44.71222" lon="4.20354">
        <ele>647</ele>
        <time>2021-04-10T13:50:24Z</time>
      </trkpt>
      <trkpt lat="44.71212" lon="4.20337">
        <ele>650</ele>
        <time>2021-04-10T13:50:27Z</time>
      </trkpt>
      <trkpt lat="44.71148" lon="4.20271">
        <ele>665</ele>
        <time>2021-04-10T13:50:41Z</time>
      </trkpt>
      <trkpt lat="44.71141" lon="4.20269">
        <ele>666</ele>
        <time>2021-04-10T13:50:42Z</time>
      </trkpt>
      <trkpt lat="44.71129" lon="4.20272">
        <ele>667</ele>
        <time>2021-04-10T13:50:44Z</time>
      </trkpt>
      <trkpt lat="44.71125" lon="4.20278">
        <ele>666</ele>
        <time>2021-04-10T13:50:45Z</time>
      </trkpt>
      <trkpt lat="44.71111" lon="4.20312">
        <ele>662</ele>
        <time>2021-04-10T13:50:50Z</time>
      </trkpt>
      <trkpt lat="44.71101" lon="4.20329">
        <ele>660</ele>
        <time>2021-04-10T13:50:53Z</time>
      </trkpt>
      <trkpt lat="44.7107" lon="4.20357">
        <ele>660</ele>
        <time>2021-04-10T13:51:00Z</time>
      </trkpt>
      <trkpt lat="44.71016" lon="4.20394">
        <ele>659</ele>
        <time>2021-04-10T13:51:10Z</time>
      </trkpt>
      <trkpt lat="44.71006" lon="4.20397">
        <ele>659</ele>
        <time>2021-04-10T13:51:12Z</time>
      </trkpt>
      <trkpt lat="44.70988" lon="4.20395">
        <ele>659</ele>
        <time>2021-04-10T13:51:15Z</time>
      </trkpt>
      <trkpt lat="44.70967" lon="4.20387">
        <ele>657</ele>
        <time>2021-04-10T13:51:19Z</time>
      </trkpt>
      <trkpt lat="44.70955" lon="4.20375">
        <ele>657</ele>
        <time>2021-04-10T13:51:22Z</time>
      </trkpt>
      <trkpt lat="44.70946" lon="4.20357">
        <ele>658</ele>
        <time>2021-04-10T13:51:25Z</time>
      </trkpt>
      <trkpt lat="44.70942" lon="4.20343">
        <ele>659</ele>
        <time>2021-04-10T13:51:27Z</time>
      </trkpt>
      <trkpt lat="44.7093" lon="4.20232">
        <ele>674</ele>
        <time>2021-04-10T13:51:41Z</time>
      </trkpt>
      <trkpt lat="44.70921" lon="4.20194">
        <ele>681</ele>
        <time>2021-04-10T13:51:46Z</time>
      </trkpt>
      <trkpt lat="44.70906" lon="4.20164">
        <ele>682</ele>
        <time>2021-04-10T13:51:50Z</time>
      </trkpt>
      <trkpt lat="44.70887" lon="4.20145">
        <ele>678</ele>
        <time>2021-04-10T13:51:55Z</time>
      </trkpt>
      <trkpt lat="44.70873" lon="4.20105">
        <ele>678</ele>
        <time>2021-04-10T13:52:00Z</time>
      </trkpt>
      <trkpt lat="44.7086" lon="4.20042">
        <ele>681</ele>
        <time>2021-04-10T13:52:09Z</time>
      </trkpt>
      <trkpt lat="44.70852" lon="4.19985">
        <ele>686</ele>
        <time>2021-04-10T13:52:16Z</time>
      </trkpt>
      <trkpt lat="44.7084" lon="4.19959">
        <ele>686</ele>
        <time>2021-04-10T13:52:20Z</time>
      </trkpt>
      <trkpt lat="44.70825" lon="4.19932">
        <ele>684</ele>
        <time>2021-04-10T13:52:24Z</time>
      </trkpt>
      <trkpt lat="44.70819" lon="4.19902">
        <ele>687</ele>
        <time>2021-04-10T13:52:28Z</time>
      </trkpt>
      <trkpt lat="44.7082" lon="4.19854">
        <ele>697</ele>
        <time>2021-04-10T13:52:34Z</time>
      </trkpt>
      <trkpt lat="44.70815" lon="4.19833">
        <ele>700</ele>
        <time>2021-04-10T13:52:37Z</time>
      </trkpt>
      <trkpt lat="44.70797" lon="4.19818">
        <ele>697</ele>
        <time>2021-04-10T13:52:41Z</time>
      </trkpt>
      <trkpt lat="44.70763" lon="4.19781">
        <ele>694</ele>
        <time>2021-04-10T13:52:48Z</time>
      </trkpt>
      <trkpt lat="44.70748" lon="4.1975">
        <ele>697</ele>
        <time>2021-04-10T13:52:53Z</time>
      </trkpt>
      <trkpt lat="44.7074" lon="4.19713">
        <ele>695</ele>
        <time>2021-04-10T13:52:58Z</time>
      </trkpt>
      <trkpt lat="44.70745" lon="4.19667">
        <ele>701</ele>
        <time>2021-04-10T13:53:04Z</time>
      </trkpt>
      <trkpt lat="44.70759" lon="4.19611">
        <ele>701</ele>
        <time>2021-04-10T13:53:11Z</time>
      </trkpt>
      <trkpt lat="44.70854" lon="4.1936">
        <ele>716</ele>
        <time>2021-04-10T13:53:47Z</time>
      </trkpt>
      <trkpt lat="44.70875" lon="4.19323">
        <ele>719</ele>
        <time>2021-04-10T13:53:53Z</time>
      </trkpt>
      <trkpt lat="44.70899" lon="4.19293">
        <ele>724</ele>
        <time>2021-04-10T13:53:59Z</time>
      </trkpt>
      <trkpt lat="44.70918" lon="4.19278">
        <ele>730</ele>
        <time>2021-04-10T13:54:03Z</time>
      </trkpt>
      <trkpt lat="44.7093" lon="4.19262">
        <ele>733</ele>
        <time>2021-04-10T13:54:06Z</time>
      </trkpt>
      <trkpt lat="44.70933" lon="4.19234">
        <ele>730</ele>
        <time>2021-04-10T13:54:09Z</time>
      </trkpt>
      <trkpt lat="44.70932" lon="4.19196">
        <ele>725</ele>
        <time>2021-04-10T13:54:14Z</time>
      </trkpt>
      <trkpt lat="44.70938" lon="4.19162">
        <ele>726</ele>
        <time>2021-04-10T13:54:19Z</time>
      </trkpt>
      <trkpt lat="44.70961" lon="4.19128">
        <ele>736</ele>
        <time>2021-04-10T13:54:25Z</time>
      </trkpt>
      <trkpt lat="44.70979" lon="4.19107">
        <ele>743</ele>
        <time>2021-04-10T13:54:29Z</time>
      </trkpt>
      <trkpt lat="44.70994" lon="4.19049">
        <ele>741</ele>
        <time>2021-04-10T13:54:37Z</time>
      </trkpt>
      <trkpt lat="44.71013" lon="4.19008">
        <ele>745</ele>
        <time>2021-04-10T13:54:43Z</time>
      </trkpt>
      <trkpt lat="44.71015" lon="4.18995">
        <ele>745</ele>
        <time>2021-04-10T13:54:44Z</time>
      </trkpt>
      <trkpt lat="44.7101" lon="4.18972">
        <ele>743</ele>
        <time>2021-04-10T13:54:47Z</time>
      </trkpt>
      <trkpt lat="44.70997" lon="4.18929">
        <ele>739</ele>
        <time>2021-04-10T13:54:53Z</time>
      </trkpt>
      <trkpt lat="44.70995" lon="4.18915">
        <ele>739</ele>
        <time>2021-04-10T13:54:55Z</time>
      </trkpt>
      <trkpt lat="44.71003" lon="4.18891">
        <ele>739</ele>
        <time>2021-04-10T13:54:59Z</time>
      </trkpt>
      <trkpt lat="44.71025" lon="4.18859">
        <ele>745</ele>
        <time>2021-04-10T13:55:04Z</time>
      </trkpt>
      <trkpt lat="44.71035" lon="4.18833">
        <ele>745</ele>
        <time>2021-04-10T13:55:08Z</time>
      </trkpt>
      <trkpt lat="44.7105" lon="4.18787">
        <ele>738</ele>
        <time>2021-04-10T13:55:14Z</time>
      </trkpt>
      <trkpt lat="44.71058" lon="4.18775">
        <ele>737</ele>
        <time>2021-04-10T13:55:16Z</time>
      </trkpt>
      <trkpt lat="44.71076" lon="4.18767">
        <ele>742</ele>
        <time>2021-04-10T13:55:20Z</time>
      </trkpt>
      <trkpt lat="44.71137" lon="4.18758">
        <ele>769</ele>
        <time>2021-04-10T13:55:31Z</time>
      </trkpt>
      <trkpt lat="44.71149" lon="4.18743">
        <ele>771</ele>
        <time>2021-04-10T13:55:33Z</time>
      </trkpt>
      <trkpt lat="44.71156" lon="4.18722">
        <ele>769</ele>
        <time>2021-04-10T13:55:36Z</time>
      </trkpt>
      <trkpt lat="44.71163" lon="4.18663">
        <ele>761</ele>
        <time>2021-04-10T13:55:44Z</time>
      </trkpt>
      <trkpt lat="44.71173" lon="4.18638">
        <ele>764</ele>
        <time>2021-04-10T13:55:48Z</time>
      </trkpt>
      <trkpt lat="44.71191" lon="4.18618">
        <ele>774</ele>
        <time>2021-04-10T13:55:52Z</time>
      </trkpt>
      <trkpt lat="44.71198" lon="4.18601">
        <ele>778</ele>
        <time>2021-04-10T13:55:54Z</time>
      </trkpt>
      <trkpt lat="44.71192" lon="4.18577">
        <ele>773</ele>
        <time>2021-04-10T13:55:57Z</time>
      </trkpt>
      <trkpt lat="44.71176" lon="4.18557">
        <ele>765</ele>
        <time>2021-04-10T13:56:01Z</time>
      </trkpt>
      <trkpt lat="44.71171" lon="4.18534">
        <ele>764</ele>
        <time>2021-04-10T13:56:04Z</time>
      </trkpt>
      <trkpt lat="44.71181" lon="4.18454">
        <ele>785</ele>
        <time>2021-04-10T13:56:15Z</time>
      </trkpt>
      <trkpt lat="44.71171" lon="4.18408">
        <ele>789</ele>
        <time>2021-04-10T13:56:21Z</time>
      </trkpt>
      <trkpt lat="44.71099" lon="4.18261">
        <ele>790</ele>
        <time>2021-04-10T13:56:43Z</time>
      </trkpt>
      <trkpt lat="44.71076" lon="4.18237">
        <ele>786</ele>
        <time>2021-04-10T13:56:48Z</time>
      </trkpt>
      <trkpt lat="44.71044" lon="4.18222">
        <ele>780</ele>
        <time>2021-04-10T13:56:54Z</time>
      </trkpt>
      <trkpt lat="44.71035" lon="4.18202">
        <ele>778</ele>
        <time>2021-04-10T13:56:57Z</time>
      </trkpt>
      <trkpt lat="44.71042" lon="4.18178">
        <ele>780</ele>
        <time>2021-04-10T13:57:01Z</time>
      </trkpt>
      <trkpt lat="44.7108" lon="4.18148">
        <ele>786</ele>
        <time>2021-04-10T13:57:08Z</time>
      </trkpt>
      <trkpt lat="44.71106" lon="4.18123">
        <ele>793</ele>
        <time>2021-04-10T13:57:14Z</time>
      </trkpt>
      <trkpt lat="44.71155" lon="4.18041">
        <ele>796</ele>
        <time>2021-04-10T13:57:27Z</time>
      </trkpt>
      <trkpt lat="44.71168" lon="4.18023">
        <ele>799</ele>
        <time>2021-04-10T13:57:31Z</time>
      </trkpt>
      <trkpt lat="44.71184" lon="4.18006">
        <ele>808</ele>
        <time>2021-04-10T13:57:34Z</time>
      </trkpt>
      <trkpt lat="44.71191" lon="4.17994">
        <ele>811</ele>
        <time>2021-04-10T13:57:36Z</time>
      </trkpt>
      <trkpt lat="44.71196" lon="4.17973">
        <ele>812</ele>
        <time>2021-04-10T13:57:39Z</time>
      </trkpt>
      <trkpt lat="44.71209" lon="4.17864">
        <ele>806</ele>
        <time>2021-04-10T13:57:53Z</time>
      </trkpt>
      <trkpt lat="44.71214" lon="4.17849">
        <ele>807</ele>
        <time>2021-04-10T13:57:55Z</time>
      </trkpt>
      <trkpt lat="44.71244" lon="4.17785">
        <ele>812</ele>
        <time>2021-04-10T13:58:05Z</time>
      </trkpt>
      <trkpt lat="44.71245" lon="4.17758">
        <ele>807</ele>
        <time>2021-04-10T13:58:08Z</time>
      </trkpt>
      <trkpt lat="44.71247" lon="4.17736">
        <ele>805</ele>
        <time>2021-04-10T13:58:11Z</time>
      </trkpt>
      <trkpt lat="44.71267" lon="4.17686">
        <ele>819</ele>
        <time>2021-04-10T13:58:18Z</time>
      </trkpt>
      <trkpt lat="44.7127" lon="4.17676">
        <ele>820</ele>
        <time>2021-04-10T13:58:20Z</time>
      </trkpt>
      <trkpt lat="44.7127" lon="4.1766">
        <ele>821</ele>
        <time>2021-04-10T13:58:22Z</time>
      </trkpt>
      <trkpt lat="44.71261" lon="4.17594">
        <ele>825</ele>
        <time>2021-04-10T13:58:30Z</time>
      </trkpt>
      <trkpt lat="44.71244" lon="4.17532">
        <ele>825</ele>
        <time>2021-04-10T13:58:39Z</time>
      </trkpt>
      <trkpt lat="44.71229" lon="4.17466">
        <ele>822</ele>
        <time>2021-04-10T13:58:47Z</time>
      </trkpt>
      <trkpt lat="44.71229" lon="4.17452">
        <ele>823</ele>
        <time>2021-04-10T13:58:49Z</time>
      </trkpt>
      <trkpt lat="44.71233" lon="4.17429">
        <ele>824</ele>
        <time>2021-04-10T13:58:52Z</time>
      </trkpt>
      <trkpt lat="44.71242" lon="4.17409">
        <ele>826</ele>
        <time>2021-04-10T13:58:55Z</time>
      </trkpt>
      <trkpt lat="44.71259" lon="4.17396">
        <ele>828</ele>
        <time>2021-04-10T13:58:59Z</time>
      </trkpt>
      <trkpt lat="44.71347" lon="4.17345">
        <ele>841</ele>
        <time>2021-04-10T13:59:15Z</time>
      </trkpt>
      <trkpt lat="44.71356" lon="4.17338">
        <ele>842</ele>
        <time>2021-04-10T13:59:17Z</time>
      </trkpt>
      <trkpt lat="44.71363" lon="4.17331">
        <ele>842</ele>
        <time>2021-04-10T13:59:19Z</time>
      </trkpt>
      <trkpt lat="44.71367" lon="4.17323">
        <ele>841</ele>
        <time>2021-04-10T13:59:20Z</time>
      </trkpt>
      <trkpt lat="44.71384" lon="4.17281">
        <ele>833</ele>
        <time>2021-04-10T13:59:26Z</time>
      </trkpt>
      <trkpt lat="44.71392" lon="4.17272">
        <ele>833</ele>
        <time>2021-04-10T13:59:28Z</time>
      </trkpt>
      <trkpt lat="44.71402" lon="4.17267">
        <ele>835</ele>
        <time>2021-04-10T13:59:30Z</time>
      </trkpt>
      <trkpt lat="44.71433" lon="4.17268">
        <ele>848</ele>
        <time>2021-04-10T13:59:35Z</time>
      </trkpt>
      <trkpt lat="44.71448" lon="4.17259">
        <ele>852</ele>
        <time>2021-04-10T13:59:38Z</time>
      </trkpt>
      <trkpt lat="44.71567" lon="4.17104">
        <ele>869</ele>
        <time>2021-04-10T14:00:07Z</time>
      </trkpt>
      <trkpt lat="44.71573" lon="4.17085">
        <ele>869</ele>
        <time>2021-04-10T14:00:10Z</time>
      </trkpt>
      <trkpt lat="44.71571" lon="4.17065">
        <ele>873</ele>
        <time>2021-04-10T14:00:12Z</time>
      </trkpt>
      <trkpt lat="44.71563" lon="4.17035">
        <ele>879</ele>
        <time>2021-04-10T14:00:16Z</time>
      </trkpt>
      <trkpt lat="44.71559" lon="4.17025">
        <ele>881</ele>
        <time>2021-04-10T14:00:18Z</time>
      </trkpt>
      <trkpt lat="44.71545" lon="4.17019">
        <ele>879</ele>
        <time>2021-04-10T14:00:20Z</time>
      </trkpt>
      <trkpt lat="44.71454" lon="4.16991">
        <ele>866</ele>
        <time>2021-04-10T14:00:37Z</time>
      </trkpt>
      <trkpt lat="44.71445" lon="4.16987">
        <ele>865</ele>
        <time>2021-04-10T14:00:39Z</time>
      </trkpt>
      <trkpt lat="44.71436" lon="4.16974">
        <ele>866</ele>
        <time>2021-04-10T14:00:41Z</time>
      </trkpt>
      <trkpt lat="44.71425" lon="4.16936">
        <ele>876</ele>
        <time>2021-04-10T14:00:46Z</time>
      </trkpt>
      <trkpt lat="44.71419" lon="4.16928">
        <ele>876</ele>
        <time>2021-04-10T14:00:48Z</time>
      </trkpt>
      <trkpt lat="44.7139" lon="4.16904">
        <ele>872</ele>
        <time>2021-04-10T14:00:54Z</time>
      </trkpt>
      <trkpt lat="44.7138" lon="4.16893">
        <ele>871</ele>
        <time>2021-04-10T14:00:56Z</time>
      </trkpt>
      <trkpt lat="44.71375" lon="4.16879">
        <ele>873</ele>
        <time>2021-04-10T14:00:58Z</time>
      </trkpt>
      <trkpt lat="44.71369" lon="4.16812">
        <ele>885</ele>
        <time>2021-04-10T14:01:06Z</time>
      </trkpt>
      <trkpt lat="44.71366" lon="4.168">
        <ele>885</ele>
        <time>2021-04-10T14:01:08Z</time>
      </trkpt>
      <trkpt lat="44.71362" lon="4.16791">
        <ele>884</ele>
        <time>2021-04-10T14:01:09Z</time>
      </trkpt>
      <trkpt lat="44.71356" lon="4.16785">
        <ele>882</ele>
        <time>2021-04-10T14:01:11Z</time>
      </trkpt>
      <trkpt lat="44.71326" lon="4.16762">
        <ele>875</ele>
        <time>2021-04-10T14:01:17Z</time>
      </trkpt>
      <trkpt lat="44.71321" lon="4.16754">
        <ele>875</ele>
        <time>2021-04-10T14:01:18Z</time>
      </trkpt>
      <trkpt lat="44.7132" lon="4.16742">
        <ele>873</ele>
        <time>2021-04-10T14:01:20Z</time>
      </trkpt>
      <trkpt lat="44.71323" lon="4.1673">
        <ele>872</ele>
        <time>2021-04-10T14:01:21Z</time>
      </trkpt>
      <trkpt lat="44.7133" lon="4.16722">
        <ele>873</ele>
        <time>2021-04-10T14:01:23Z</time>
      </trkpt>
      <trkpt lat="44.71342" lon="4.16716">
        <ele>875</ele>
        <time>2021-04-10T14:01:25Z</time>
      </trkpt>
      <trkpt lat="44.71416" lon="4.16688">
        <ele>882</ele>
        <time>2021-04-10T14:01:39Z</time>
      </trkpt>
      <trkpt lat="44.71429" lon="4.16686">
        <ele>886</ele>
        <time>2021-04-10T14:01:41Z</time>
      </trkpt>
      <trkpt lat="44.71461" lon="4.16686">
        <ele>898</ele>
        <time>2021-04-10T14:01:47Z</time>
      </trkpt>
      <trkpt lat="44.71528" lon="4.16648">
        <ele>910</ele>
        <time>2021-04-10T14:02:00Z</time>
      </trkpt>
      <trkpt lat="44.71559" lon="4.16605">
        <ele>904</ele>
        <time>2021-04-10T14:02:07Z</time>
      </trkpt>
      <trkpt lat="44.71602" lon="4.16554">
        <ele>906</ele>
        <time>2021-04-10T14:02:17Z</time>
      </trkpt>
      <trkpt lat="44.71628" lon="4.16531">
        <ele>912</ele>
        <time>2021-04-10T14:02:23Z</time>
      </trkpt>
      <trkpt lat="44.7165" lon="4.16479">
        <ele>905</ele>
        <time>2021-04-10T14:02:30Z</time>
      </trkpt>
      <trkpt lat="44.71664" lon="4.1646">
        <ele>906</ele>
        <time>2021-04-10T14:02:34Z</time>
      </trkpt>
      <trkpt lat="44.71675" lon="4.16454">
        <ele>908</ele>
        <time>2021-04-10T14:02:36Z</time>
      </trkpt>
      <trkpt lat="44.7169" lon="4.16453">
        <ele>910</ele>
        <time>2021-04-10T14:02:39Z</time>
      </trkpt>
      <trkpt lat="44.7174" lon="4.16465">
        <ele>926</ele>
        <time>2021-04-10T14:02:48Z</time>
      </trkpt>
      <trkpt lat="44.71767" lon="4.16476">
        <ele>939</ele>
        <time>2021-04-10T14:02:53Z</time>
      </trkpt>
      <trkpt lat="44.71781" lon="4.16474">
        <ele>942</ele>
        <time>2021-04-10T14:02:55Z</time>
      </trkpt>
      <trkpt lat="44.71789" lon="4.16466">
        <ele>942</ele>
        <time>2021-04-10T14:02:57Z</time>
      </trkpt>
      <trkpt lat="44.71792" lon="4.16452">
        <ele>938</ele>
        <time>2021-04-10T14:02:59Z</time>
      </trkpt>
      <trkpt lat="44.71791" lon="4.16438">
        <ele>932</ele>
        <time>2021-04-10T14:03:01Z</time>
      </trkpt>
      <trkpt lat="44.71782" lon="4.16359">
        <ele>917</ele>
        <time>2021-04-10T14:03:11Z</time>
      </trkpt>
      <trkpt lat="44.71784" lon="4.16276">
        <ele>928</ele>
        <time>2021-04-10T14:03:21Z</time>
      </trkpt>
      <trkpt lat="44.71781" lon="4.1625">
        <ele>931</ele>
        <time>2021-04-10T14:03:25Z</time>
      </trkpt>
      <trkpt lat="44.71777" lon="4.16228">
        <ele>934</ele>
        <time>2021-04-10T14:03:27Z</time>
      </trkpt>
      <trkpt lat="44.71767" lon="4.16207">
        <ele>933</ele>
        <time>2021-04-10T14:03:31Z</time>
      </trkpt>
      <trkpt lat="44.71733" lon="4.16158">
        <ele>922</ele>
        <time>2021-04-10T14:03:39Z</time>
      </trkpt>
      <trkpt lat="44.71731" lon="4.16145">
        <ele>919</ele>
        <time>2021-04-10T14:03:41Z</time>
      </trkpt>
      <trkpt lat="44.71734" lon="4.16134">
        <ele>919</ele>
        <time>2021-04-10T14:03:42Z</time>
      </trkpt>
      <trkpt lat="44.71747" lon="4.16106">
        <ele>922</ele>
        <time>2021-04-10T14:03:47Z</time>
      </trkpt>
      <trkpt lat="44.71768" lon="4.16066">
        <ele>926</ele>
        <time>2021-04-10T14:03:53Z</time>
      </trkpt>
      <trkpt lat="44.71789" lon="4.16039">
        <ele>930</ele>
        <time>2021-04-10T14:03:58Z</time>
      </trkpt>
      <trkpt lat="44.71819" lon="4.16009">
        <ele>938</ele>
        <time>2021-04-10T14:04:05Z</time>
      </trkpt>
      <trkpt lat="44.71861" lon="4.15975">
        <ele>946</ele>
        <time>2021-04-10T14:04:13Z</time>
      </trkpt>
      <trkpt lat="44.71873" lon="4.15971">
        <ele>951</ele>
        <time>2021-04-10T14:04:15Z</time>
      </trkpt>
      <trkpt lat="44.71889" lon="4.15969">
        <ele>958</ele>
        <time>2021-04-10T14:04:18Z</time>
      </trkpt>
      <trkpt lat="44.71899" lon="4.15962">
        <ele>961</ele>
        <time>2021-04-10T14:04:20Z</time>
      </trkpt>
      <trkpt lat="44.71902" lon="4.15946">
        <ele>958</ele>
        <time>2021-04-10T14:04:22Z</time>
      </trkpt>
      <trkpt lat="44.71901" lon="4.1593">
        <ele>953</ele>
        <time>2021-04-10T14:04:24Z</time>
      </trkpt>
      <trkpt lat="44.71905" lon="4.15896">
        <ele>955</ele>
        <time>2021-04-10T14:04:29Z</time>
      </trkpt>
      <trkpt lat="44.7191" lon="4.1587">
        <ele>962</ele>
        <time>2021-04-10T14:04:32Z</time>
      </trkpt>
      <trkpt lat="44.71911" lon="4.15852">
        <ele>966</ele>
        <time>2021-04-10T14:04:34Z</time>
      </trkpt>
      <trkpt lat="44.71908" lon="4.15838">
        <ele>966</ele>
        <time>2021-04-10T14:04:36Z</time>
      </trkpt>
      <trkpt lat="44.71902" lon="4.15825">
        <ele>966</ele>
        <time>2021-04-10T14:04:38Z</time>
      </trkpt>
      <trkpt lat="44.71887" lon="4.1581">
        <ele>962</ele>
        <time>2021-04-10T14:04:41Z</time>
      </trkpt>
      <trkpt lat="44.71858" lon="4.15789">
        <ele>953</ele>
        <time>2021-04-10T14:04:47Z</time>
      </trkpt>
      <trkpt lat="44.7185" lon="4.15775">
        <ele>953</ele>
        <time>2021-04-10T14:04:50Z</time>
      </trkpt>
      <trkpt lat="44.71839" lon="4.15734">
        <ele>960</ele>
        <time>2021-04-10T14:04:55Z</time>
      </trkpt>
      <trkpt lat="44.7183" lon="4.15712">
        <ele>962</ele>
        <time>2021-04-10T14:04:58Z</time>
      </trkpt>
      <trkpt lat="44.7182" lon="4.15696">
        <ele>963</ele>
        <time>2021-04-10T14:05:01Z</time>
      </trkpt>
      <trkpt lat="44.71809" lon="4.15684">
        <ele>963</ele>
        <time>2021-04-10T14:05:03Z</time>
      </trkpt>
      <trkpt lat="44.71781" lon="4.15669">
        <ele>957</ele>
        <time>2021-04-10T14:05:09Z</time>
      </trkpt>
      <trkpt lat="44.71762" lon="4.15647">
        <ele>952</ele>
        <time>2021-04-10T14:05:13Z</time>
      </trkpt>
      <trkpt lat="44.71756" lon="4.15635">
        <ele>951</ele>
        <time>2021-04-10T14:05:15Z</time>
      </trkpt>
      <trkpt lat="44.71751" lon="4.15618">
        <ele>950</ele>
        <time>2021-04-10T14:05:17Z</time>
      </trkpt>
      <trkpt lat="44.71751" lon="4.15604">
        <ele>951</ele>
        <time>2021-04-10T14:05:19Z</time>
      </trkpt>
      <trkpt lat="44.71757" lon="4.15593">
        <ele>954</ele>
        <time>2021-04-10T14:05:21Z</time>
      </trkpt>
      <trkpt lat="44.7178" lon="4.15582">
        <ele>962</ele>
        <time>2021-04-10T14:05:25Z</time>
      </trkpt>
      <trkpt lat="44.71826" lon="4.15576">
        <ele>976</ele>
        <time>2021-04-10T14:05:33Z</time>
      </trkpt>
      <trkpt lat="44.71838" lon="4.1557">
        <ele>979</ele>
        <time>2021-04-10T14:05:36Z</time>
      </trkpt>
      <trkpt lat="44.71847" lon="4.15562">
        <ele>982</ele>
        <time>2021-04-10T14:05:38Z</time>
      </trkpt>
      <trkpt lat="44.71854" lon="4.15547">
        <ele>983</ele>
        <time>2021-04-10T14:05:40Z</time>
      </trkpt>
      <trkpt lat="44.7187" lon="4.1545">
        <ele>973</ele>
        <time>2021-04-10T14:05:52Z</time>
      </trkpt>
      <trkpt lat="44.71879" lon="4.15432">
        <ele>974</ele>
        <time>2021-04-10T14:05:55Z</time>
      </trkpt>
      <trkpt lat="44.71888" lon="4.1542">
        <ele>977</ele>
        <time>2021-04-10T14:05:57Z</time>
      </trkpt>
      <trkpt lat="44.71949" lon="4.15359">
        <ele>990</ele>
        <time>2021-04-10T14:06:11Z</time>
      </trkpt>
      <trkpt lat="44.71957" lon="4.15343">
        <ele>989</ele>
        <time>2021-04-10T14:06:13Z</time>
      </trkpt>
      <trkpt lat="44.71965" lon="4.15324">
        <ele>989</ele>
        <time>2021-04-10T14:06:16Z</time>
      </trkpt>
      <trkpt lat="44.71969" lon="4.153">
        <ele>988</ele>
        <time>2021-04-10T14:06:19Z</time>
      </trkpt>
      <trkpt lat="44.71972" lon="4.15278">
        <ele>986</ele>
        <time>2021-04-10T14:06:22Z</time>
      </trkpt>
      <trkpt lat="44.71974" lon="4.15244">
        <ele>982</ele>
        <time>2021-04-10T14:06:26Z</time>
      </trkpt>
      <trkpt lat="44.71977" lon="4.15223">
        <ele>981</ele>
        <time>2021-04-10T14:06:29Z</time>
      </trkpt>
      <trkpt lat="44.71986" lon="4.15193">
        <ele>982</ele>
        <time>2021-04-10T14:06:33Z</time>
      </trkpt>
      <trkpt lat="44.71995" lon="4.15185">
        <ele>986</ele>
        <time>2021-04-10T14:06:35Z</time>
      </trkpt>
      <trkpt lat="44.72005" lon="4.15183">
        <ele>987</ele>
        <time>2021-04-10T14:06:37Z</time>
      </trkpt>
      <trkpt lat="44.72014" lon="4.15186">
        <ele>986</ele>
        <time>2021-04-10T14:06:38Z</time>
      </trkpt>
      <trkpt lat="44.72025" lon="4.15196">
        <ele>985</ele>
        <time>2021-04-10T14:06:41Z</time>
      </trkpt>
      <trkpt lat="44.72041" lon="4.15223">
        <ele>987</ele>
        <time>2021-04-10T14:06:45Z</time>
      </trkpt>
      <trkpt lat="44.72074" lon="4.15301">
        <ele>999</ele>
        <time>2021-04-10T14:06:57Z</time>
      </trkpt>
      <trkpt lat="44.72096" lon="4.15342">
        <ele>1002</ele>
        <time>2021-04-10T14:07:03Z</time>
      </trkpt>
      <trkpt lat="44.72108" lon="4.15378">
        <ele>1003</ele>
        <time>2021-04-10T14:07:08Z</time>
      </trkpt>
      <trkpt lat="44.72116" lon="4.15459">
        <ele>1012</ele>
        <time>2021-04-10T14:07:19Z</time>
      </trkpt>
      <trkpt lat="44.72133" lon="4.15539">
        <ele>1016</ele>
        <time>2021-04-10T14:07:29Z</time>
      </trkpt>
      <trkpt lat="44.72141" lon="4.15595">
        <ele>1021</ele>
        <time>2021-04-10T14:07:36Z</time>
      </trkpt>
      <trkpt lat="44.72168" lon="4.15635">
        <ele>1019</ele>
        <time>2021-04-10T14:07:43Z</time>
      </trkpt>
      <trkpt lat="44.72175" lon="4.15649">
        <ele>1020</ele>
        <time>2021-04-10T14:07:45Z</time>
      </trkpt>
      <trkpt lat="44.72185" lon="4.15698">
        <ele>1031</ele>
        <time>2021-04-10T14:07:52Z</time>
      </trkpt>
      <trkpt lat="44.72191" lon="4.15709">
        <ele>1033</ele>
        <time>2021-04-10T14:07:54Z</time>
      </trkpt>
      <trkpt lat="44.72217" lon="4.15736">
        <ele>1038</ele>
        <time>2021-04-10T14:07:59Z</time>
      </trkpt>
      <trkpt lat="44.72229" lon="4.15742">
        <ele>1038</ele>
        <time>2021-04-10T14:08:02Z</time>
      </trkpt>
      <trkpt lat="44.7225" lon="4.15745">
        <ele>1037</ele>
        <time>2021-04-10T14:08:05Z</time>
      </trkpt>
      <trkpt lat="44.72266" lon="4.15743">
        <ele>1037</ele>
        <time>2021-04-10T14:08:08Z</time>
      </trkpt>
      <trkpt lat="44.72306" lon="4.15728">
        <ele>1033</ele>
        <time>2021-04-10T14:08:16Z</time>
      </trkpt>
      <trkpt lat="44.72322" lon="4.15725">
        <ele>1032</ele>
        <time>2021-04-10T14:08:19Z</time>
      </trkpt>
      <trkpt lat="44.72346" lon="4.15733">
        <ele>1036</ele>
        <time>2021-04-10T14:08:23Z</time>
      </trkpt>
      <trkpt lat="44.72397" lon="4.15756">
        <ele>1040</ele>
        <time>2021-04-10T14:08:32Z</time>
      </trkpt>
      <trkpt lat="44.72424" lon="4.15772">
        <ele>1039</ele>
        <time>2021-04-10T14:08:38Z</time>
      </trkpt>
      <trkpt lat="44.72438" lon="4.15807">
        <ele>1044</ele>
        <time>2021-04-10T14:08:43Z</time>
      </trkpt>
      <trkpt lat="44.7245" lon="4.15847">
        <ele>1050</ele>
        <time>2021-04-10T14:08:48Z</time>
      </trkpt>
      <trkpt lat="44.72458" lon="4.15899">
        <ele>1058</ele>
        <time>2021-04-10T14:08:55Z</time>
      </trkpt>
      <trkpt lat="44.72462" lon="4.15948">
        <ele>1067</ele>
        <time>2021-04-10T14:09:01Z</time>
      </trkpt>
      <trkpt lat="44.72469" lon="4.15988">
        <ele>1072</ele>
        <time>2021-04-10T14:09:06Z</time>
      </trkpt>
      <trkpt lat="44.72474" lon="4.15998">
        <ele>1072</ele>
        <time>2021-04-10T14:09:08Z</time>
      </trkpt>
      <trkpt lat="44.72482" lon="4.16002">
        <ele>1070</ele>
        <time>2021-04-10T14:09:09Z</time>
      </trkpt>
      <trkpt lat="44.72494" lon="4.16002">
        <ele>1065</ele>
        <time>2021-04-10T14:09:12Z</time>
      </trkpt>
      <trkpt lat="44.72543" lon="4.15955">
        <ele>1054</ele>
        <time>2021-04-10T14:09:22Z</time>
      </trkpt>
      <trkpt lat="44.72561" lon="4.15951">
        <ele>1055</ele>
        <time>2021-04-10T14:09:25Z</time>
      </trkpt>
      <trkpt lat="44.72585" lon="4.15955">
        <ele>1058</ele>
        <time>2021-04-10T14:09:30Z</time>
      </trkpt>
      <trkpt lat="44.72638" lon="4.15971">
        <ele>1072</ele>
        <time>2021-04-10T14:09:39Z</time>
      </trkpt>
      <trkpt lat="44.7265" lon="4.15972">
        <ele>1075</ele>
        <time>2021-04-10T14:09:41Z</time>
      </trkpt>
      <trkpt lat="44.72668" lon="4.15959">
        <ele>1075</ele>
        <time>2021-04-10T14:09:45Z</time>
      </trkpt>
      <trkpt lat="44.72683" lon="4.1592">
        <ele>1073</ele>
        <time>2021-04-10T14:09:51Z</time>
      </trkpt>
      <trkpt lat="44.72693" lon="4.15882">
        <ele>1071</ele>
        <time>2021-04-10T14:09:56Z</time>
      </trkpt>
      <trkpt lat="44.72706" lon="4.15818">
        <ele>1068</ele>
        <time>2021-04-10T14:10:04Z</time>
      </trkpt>
      <trkpt lat="44.72754" lon="4.15723">
        <ele>1076</ele>
        <time>2021-04-10T14:10:19Z</time>
      </trkpt>
      <trkpt lat="44.72789" lon="4.15678">
        <ele>1076</ele>
        <time>2021-04-10T14:10:27Z</time>
      </trkpt>
      <trkpt lat="44.72824" lon="4.15642">
        <ele>1078</ele>
        <time>2021-04-10T14:10:35Z</time>
      </trkpt>
      <trkpt lat="44.72836" lon="4.15628">
        <ele>1076</ele>
        <time>2021-04-10T14:10:38Z</time>
      </trkpt>
      <trkpt lat="44.72853" lon="4.1563">
        <ele>1073</ele>
        <time>2021-04-10T14:10:41Z</time>
      </trkpt>
      <trkpt lat="44.72869" lon="4.15644">
        <ele>1075</ele>
        <time>2021-04-10T14:10:44Z</time>
      </trkpt>
      <trkpt lat="44.72912" lon="4.15713">
        <ele>1093</ele>
        <time>2021-04-10T14:10:56Z</time>
      </trkpt>
      <trkpt lat="44.72928" lon="4.15726">
        <ele>1093</ele>
        <time>2021-04-10T14:10:59Z</time>
      </trkpt>
      <trkpt lat="44.72945" lon="4.15733">
        <ele>1088</ele>
        <time>2021-04-10T14:11:02Z</time>
      </trkpt>
      <trkpt lat="44.72962" lon="4.15755">
        <ele>1088</ele>
        <time>2021-04-10T14:11:06Z</time>
      </trkpt>
      <trkpt lat="44.72969" lon="4.15775">
        <ele>1089</ele>
        <time>2021-04-10T14:11:09Z</time>
      </trkpt>
      <trkpt lat="44.7297" lon="4.15817">
        <ele>1100</ele>
        <time>2021-04-10T14:11:15Z</time>
      </trkpt>
      <trkpt lat="44.72966" lon="4.15892">
        <ele>1115</ele>
        <time>2021-04-10T14:11:24Z</time>
      </trkpt>
      <trkpt lat="44.7296" lon="4.15927">
        <ele>1123</ele>
        <time>2021-04-10T14:11:29Z</time>
      </trkpt>
      <trkpt lat="44.72969" lon="4.15949">
        <ele>1125</ele>
        <time>2021-04-10T14:11:32Z</time>
      </trkpt>
      <trkpt lat="44.72994" lon="4.15967">
        <ele>1126</ele>
        <time>2021-04-10T14:11:37Z</time>
      </trkpt>
      <trkpt lat="44.73022" lon="4.15961">
        <ele>1126</ele>
        <time>2021-04-10T14:11:42Z</time>
      </trkpt>
      <trkpt lat="44.73074" lon="4.15918">
        <ele>1117</ele>
        <time>2021-04-10T14:11:53Z</time>
      </trkpt>
      <trkpt lat="44.73106" lon="4.15915">
        <ele>1117</ele>
        <time>2021-04-10T14:11:58Z</time>
      </trkpt>
      <trkpt lat="44.73134" lon="4.15925">
        <ele>1118</ele>
        <time>2021-04-10T14:12:03Z</time>
      </trkpt>
      <trkpt lat="44.73161" lon="4.15947">
        <ele>1121</ele>
        <time>2021-04-10T14:12:09Z</time>
      </trkpt>
      <trkpt lat="44.73183" lon="4.15991">
        <ele>1124</ele>
        <time>2021-04-10T14:12:16Z</time>
      </trkpt>
      <trkpt lat="44.73204" lon="4.16084">
        <ele>1131</ele>
        <time>2021-04-10T14:12:28Z</time>
      </trkpt>
      <trkpt lat="44.73222" lon="4.16198">
        <ele>1136</ele>
        <time>2021-04-10T14:12:43Z</time>
      </trkpt>
      <trkpt lat="44.7323" lon="4.16284">
        <ele>1140</ele>
        <time>2021-04-10T14:12:54Z</time>
      </trkpt>
      <trkpt lat="44.73217" lon="4.16371">
        <ele>1149</ele>
        <time>2021-04-10T14:13:05Z</time>
      </trkpt>
      <trkpt lat="44.73208" lon="4.16421">
        <ele>1151</ele>
        <time>2021-04-10T14:13:12Z</time>
      </trkpt>
      <trkpt lat="44.73208" lon="4.16445">
        <ele>1153</ele>
        <time>2021-04-10T14:13:15Z</time>
      </trkpt>
      <trkpt lat="44.73223" lon="4.16507">
        <ele>1156</ele>
        <time>2021-04-10T14:13:23Z</time>
      </trkpt>
      <trkpt lat="44.73241" lon="4.16568">
        <ele>1159</ele>
        <time>2021-04-10T14:13:31Z</time>
      </trkpt>
      <trkpt lat="44.73255" lon="4.16579">
        <ele>1158</ele>
        <time>2021-04-10T14:13:34Z</time>
      </trkpt>
      <trkpt lat="44.73266" lon="4.16578">
        <ele>1160</ele>
        <time>2021-04-10T14:13:36Z</time>
      </trkpt>
      <trkpt lat="44.73274" lon="4.16574">
        <ele>1160</ele>
        <time>2021-04-10T14:13:38Z</time>
      </trkpt>
      <trkpt lat="44.73281" lon="4.16567">
        <ele>1160</ele>
        <time>2021-04-10T14:13:39Z</time>
      </trkpt>
      <trkpt lat="44.73336" lon="4.16444">
        <ele>1146</ele>
        <time>2021-04-10T14:13:57Z</time>
      </trkpt>
      <trkpt lat="44.73349" lon="4.16424">
        <ele>1143</ele>
        <time>2021-04-10T14:14:01Z</time>
      </trkpt>
      <trkpt lat="44.73362" lon="4.16412">
        <ele>1143</ele>
        <time>2021-04-10T14:14:04Z</time>
      </trkpt>
      <trkpt lat="44.73374" lon="4.16404">
        <ele>1142</ele>
        <time>2021-04-10T14:14:06Z</time>
      </trkpt>
      <trkpt lat="44.73386" lon="4.16401">
        <ele>1143</ele>
        <time>2021-04-10T14:14:08Z</time>
      </trkpt>
      <trkpt lat="44.73401" lon="4.16402">
        <ele>1146</ele>
        <time>2021-04-10T14:14:11Z</time>
      </trkpt>
      <trkpt lat="44.73424" lon="4.1641">
        <ele>1150</ele>
        <time>2021-04-10T14:14:15Z</time>
      </trkpt>
      <trkpt lat="44.73441" lon="4.16419">
        <ele>1150</ele>
        <time>2021-04-10T14:14:18Z</time>
      </trkpt>
      <trkpt lat="44.73462" lon="4.16434">
        <ele>1152</ele>
        <time>2021-04-10T14:14:23Z</time>
      </trkpt>
      <trkpt lat="44.73474" lon="4.16449">
        <ele>1155</ele>
        <time>2021-04-10T14:14:25Z</time>
      </trkpt>
      <trkpt lat="44.73494" lon="4.16469">
        <ele>1159</ele>
        <time>2021-04-10T14:14:30Z</time>
      </trkpt>
      <trkpt lat="44.73533" lon="4.1649">
        <ele>1158</ele>
        <time>2021-04-10T14:14:37Z</time>
      </trkpt>
      <trkpt lat="44.73539" lon="4.16496">
        <ele>1158</ele>
        <time>2021-04-10T14:14:38Z</time>
      </trkpt>
      <trkpt lat="44.73548" lon="4.16511">
        <ele>1160</ele>
        <time>2021-04-10T14:14:41Z</time>
      </trkpt>
      <trkpt lat="44.73555" lon="4.1654">
        <ele>1165</ele>
        <time>2021-04-10T14:14:45Z</time>
      </trkpt>
      <trkpt lat="44.73569" lon="4.16606">
        <ele>1178</ele>
        <time>2021-04-10T14:14:54Z</time>
      </trkpt>
      <trkpt lat="44.73576" lon="4.16617">
        <ele>1179</ele>
        <time>2021-04-10T14:14:55Z</time>
      </trkpt>
      <trkpt lat="44.73583" lon="4.16624">
        <ele>1179</ele>
        <time>2021-04-10T14:14:57Z</time>
      </trkpt>
      <trkpt lat="44.73595" lon="4.16625">
        <ele>1178</ele>
        <time>2021-04-10T14:14:59Z</time>
      </trkpt>
      <trkpt lat="44.73604" lon="4.16623">
        <ele>1177</ele>
        <time>2021-04-10T14:15:01Z</time>
      </trkpt>
      <trkpt lat="44.73626" lon="4.16592">
        <ele>1168</ele>
        <time>2021-04-10T14:15:06Z</time>
      </trkpt>
      <trkpt lat="44.73632" lon="4.16587">
        <ele>1166</ele>
        <time>2021-04-10T14:15:07Z</time>
      </trkpt>
      <trkpt lat="44.7364" lon="4.16586">
        <ele>1166</ele>
        <time>2021-04-10T14:15:09Z</time>
      </trkpt>
      <trkpt lat="44.73665" lon="4.16607">
        <ele>1169</ele>
        <time>2021-04-10T14:15:14Z</time>
      </trkpt>
      <trkpt lat="44.73708" lon="4.16699">
        <ele>1185</ele>
        <time>2021-04-10T14:15:28Z</time>
      </trkpt>
      <trkpt lat="44.73723" lon="4.1672">
        <ele>1186</ele>
        <time>2021-04-10T14:15:32Z</time>
      </trkpt>
      <trkpt lat="44.73762" lon="4.1677">
        <ele>1192</ele>
        <time>2021-04-10T14:15:41Z</time>
      </trkpt>
      <trkpt lat="44.73785" lon="4.16783">
        <ele>1196</ele>
        <time>2021-04-10T14:15:46Z</time>
      </trkpt>
      <trkpt lat="44.73858" lon="4.16797">
        <ele>1200</ele>
        <time>2021-04-10T14:15:59Z</time>
      </trkpt>
      <trkpt lat="44.73873" lon="4.16808">
        <ele>1201</ele>
        <time>2021-04-10T14:16:02Z</time>
      </trkpt>
      <trkpt lat="44.739" lon="4.16835">
        <ele>1201</ele>
        <time>2021-04-10T14:16:08Z</time>
      </trkpt>
      <trkpt lat="44.7392" lon="4.16862">
        <ele>1205</ele>
        <time>2021-04-10T14:16:12Z</time>
      </trkpt>
      <trkpt lat="44.7393" lon="4.16871">
        <ele>1207</ele>
        <time>2021-04-10T14:16:15Z</time>
      </trkpt>
      <trkpt lat="44.73935" lon="4.16873">
        <ele>1208</ele>
        <time>2021-04-10T14:16:16Z</time>
      </trkpt>
      <trkpt lat="44.73943" lon="4.16871">
        <ele>1208</ele>
        <time>2021-04-10T14:16:17Z</time>
      </trkpt>
      <trkpt lat="44.73955" lon="4.1686">
        <ele>1209</ele>
        <time>2021-04-10T14:16:20Z</time>
      </trkpt>
      <trkpt lat="44.73958" lon="4.16852">
        <ele>1209</ele>
        <time>2021-04-10T14:16:21Z</time>
      </trkpt>
      <trkpt lat="44.73959" lon="4.16843">
        <ele>1209</ele>
        <time>2021-04-10T14:16:22Z</time>
      </trkpt>
      <trkpt lat="44.73957" lon="4.16833">
        <ele>1208</ele>
        <time>2021-04-10T14:16:23Z</time>
      </trkpt>
      <trkpt lat="44.73917" lon="4.16735">
        <ele>1203</ele>
        <time>2021-04-10T14:16:37Z</time>
      </trkpt>
      <trkpt lat="44.7391" lon="4.16708">
        <ele>1205</ele>
        <time>2021-04-10T14:16:41Z</time>
      </trkpt>
      <trkpt lat="44.73902" lon="4.16659">
        <ele>1210</ele>
        <time>2021-04-10T14:16:47Z</time>
      </trkpt>
      <trkpt lat="44.73867" lon="4.1662">
        <ele>1206</ele>
        <time>2021-04-10T14:16:55Z</time>
      </trkpt>
      <trkpt lat="44.73853" lon="4.16592">
        <ele>1206</ele>
        <time>2021-04-10T14:17:00Z</time>
      </trkpt>
      <trkpt lat="44.7385" lon="4.16521">
        <ele>1211</ele>
        <time>2021-04-10T14:17:09Z</time>
      </trkpt>
      <trkpt lat="44.73841" lon="4.16472">
        <ele>1206</ele>
        <time>2021-04-10T14:17:15Z</time>
      </trkpt>
      <trkpt lat="44.73842" lon="4.16455">
        <ele>1205</ele>
        <time>2021-04-10T14:17:17Z</time>
      </trkpt>
      <trkpt lat="44.73845" lon="4.16442">
        <ele>1205</ele>
        <time>2021-04-10T14:17:19Z</time>
      </trkpt>
      <trkpt lat="44.73852" lon="4.16429">
        <ele>1207</ele>
        <time>2021-04-10T14:17:21Z</time>
      </trkpt>
      <trkpt lat="44.73897" lon="4.16396">
        <ele>1220</ele>
        <time>2021-04-10T14:17:30Z</time>
      </trkpt>
      <trkpt lat="44.73929" lon="4.16362">
        <ele>1224</ele>
        <time>2021-04-10T14:17:37Z</time>
      </trkpt>
      <trkpt lat="44.73951" lon="4.16324">
        <ele>1228</ele>
        <time>2021-04-10T14:17:43Z</time>
      </trkpt>
      <trkpt lat="44.7396" lon="4.16302">
        <ele>1230</ele>
        <time>2021-04-10T14:17:47Z</time>
      </trkpt>
      <trkpt lat="44.73966" lon="4.16281">
        <ele>1230</ele>
        <time>2021-04-10T14:17:49Z</time>
      </trkpt>
      <trkpt lat="44.73974" lon="4.16232">
        <ele>1229</ele>
        <time>2021-04-10T14:17:56Z</time>
      </trkpt>
      <trkpt lat="44.73986" lon="4.16204">
        <ele>1229</ele>
        <time>2021-04-10T14:18:00Z</time>
      </trkpt>
      <trkpt lat="44.73995" lon="4.16188">
        <ele>1229</ele>
        <time>2021-04-10T14:18:02Z</time>
      </trkpt>
      <trkpt lat="44.74005" lon="4.16178">
        <ele>1229</ele>
        <time>2021-04-10T14:18:05Z</time>
      </trkpt>
      <trkpt lat="44.74019" lon="4.16171">
        <ele>1230</ele>
        <time>2021-04-10T14:18:07Z</time>
      </trkpt>
      <trkpt lat="44.74044" lon="4.16167">
        <ele>1234</ele>
        <time>2021-04-10T14:18:12Z</time>
      </trkpt>
      <trkpt lat="44.74051" lon="4.16162">
        <ele>1236</ele>
        <time>2021-04-10T14:18:13Z</time>
      </trkpt>
      <trkpt lat="44.74054" lon="4.16152">
        <ele>1238</ele>
        <time>2021-04-10T14:18:15Z</time>
      </trkpt>
      <trkpt lat="44.74053" lon="4.16138">
        <ele>1239</ele>
        <time>2021-04-10T14:18:16Z</time>
      </trkpt>
      <trkpt lat="44.74051" lon="4.16127">
        <ele>1241</ele>
        <time>2021-04-10T14:18:18Z</time>
      </trkpt>
      <trkpt lat="44.74042" lon="4.16119">
        <ele>1241</ele>
        <time>2021-04-10T14:18:20Z</time>
      </trkpt>
      <trkpt lat="44.73947" lon="4.16114">
        <ele>1237</ele>
        <time>2021-04-10T14:18:37Z</time>
      </trkpt>
      <trkpt lat="44.73915" lon="4.16129">
        <ele>1234</ele>
        <time>2021-04-10T14:18:43Z</time>
      </trkpt>
      <trkpt lat="44.73883" lon="4.16139">
        <ele>1232</ele>
        <time>2021-04-10T14:18:48Z</time>
      </trkpt>
      <trkpt lat="44.73858" lon="4.16139">
        <ele>1233</ele>
        <time>2021-04-10T14:18:53Z</time>
      </trkpt>
      <trkpt lat="44.73832" lon="4.16129">
        <ele>1235</ele>
        <time>2021-04-10T14:18:58Z</time>
      </trkpt>
      <trkpt lat="44.73815" lon="4.16104">
        <ele>1238</ele>
        <time>2021-04-10T14:19:02Z</time>
      </trkpt>
      <trkpt lat="44.73792" lon="4.16062">
        <ele>1240</ele>
        <time>2021-04-10T14:19:09Z</time>
      </trkpt>
      <trkpt lat="44.73777" lon="4.16012">
        <ele>1242</ele>
        <time>2021-04-10T14:19:16Z</time>
      </trkpt>
      <trkpt lat="44.73769" lon="4.15996">
        <ele>1242</ele>
        <time>2021-04-10T14:19:18Z</time>
      </trkpt>
      <trkpt lat="44.73761" lon="4.15977">
        <ele>1244</ele>
        <time>2021-04-10T14:19:21Z</time>
      </trkpt>
      <trkpt lat="44.73739" lon="4.15956">
        <ele>1243</ele>
        <time>2021-04-10T14:19:26Z</time>
      </trkpt>
      <trkpt lat="44.73718" lon="4.15942">
        <ele>1240</ele>
        <time>2021-04-10T14:19:30Z</time>
      </trkpt>
      <trkpt lat="44.73687" lon="4.15915">
        <ele>1235</ele>
        <time>2021-04-10T14:19:36Z</time>
      </trkpt>
      <trkpt lat="44.73663" lon="4.15886">
        <ele>1235</ele>
        <time>2021-04-10T14:19:42Z</time>
      </trkpt>
      <trkpt lat="44.7365" lon="4.15868">
        <ele>1235</ele>
        <time>2021-04-10T14:19:45Z</time>
      </trkpt>
      <trkpt lat="44.73636" lon="4.15842">
        <ele>1236</ele>
        <time>2021-04-10T14:19:49Z</time>
      </trkpt>
      <trkpt lat="44.73626" lon="4.15814">
        <ele>1237</ele>
        <time>2021-04-10T14:19:53Z</time>
      </trkpt>
      <trkpt lat="44.73609" lon="4.1575">
        <ele>1240</ele>
        <time>2021-04-10T14:20:02Z</time>
      </trkpt>
      <trkpt lat="44.73606" lon="4.15728">
        <ele>1241</ele>
        <time>2021-04-10T14:20:05Z</time>
      </trkpt>
      <trkpt lat="44.73604" lon="4.15703">
        <ele>1242</ele>
        <time>2021-04-10T14:20:08Z</time>
      </trkpt>
      <trkpt lat="44.73604" lon="4.15665">
        <ele>1245</ele>
        <time>2021-04-10T14:20:13Z</time>
      </trkpt>
      <trkpt lat="44.73601" lon="4.1565">
        <ele>1246</ele>
        <time>2021-04-10T14:20:15Z</time>
      </trkpt>
      <trkpt lat="44.73583" lon="4.15596">
        <ele>1249</ele>
        <time>2021-04-10T14:20:22Z</time>
      </trkpt>
      <trkpt lat="44.7358" lon="4.15579">
        <ele>1250</ele>
        <time>2021-04-10T14:20:24Z</time>
      </trkpt>
      <trkpt lat="44.73577" lon="4.15555">
        <ele>1249</ele>
        <time>2021-04-10T14:20:27Z</time>
      </trkpt>
      <trkpt lat="44.73579" lon="4.15531">
        <ele>1250</ele>
        <time>2021-04-10T14:20:30Z</time>
      </trkpt>
      <trkpt lat="44.73583" lon="4.15499">
        <ele>1252</ele>
        <time>2021-04-10T14:20:35Z</time>
      </trkpt>
      <trkpt lat="44.73592" lon="4.15468">
        <ele>1251</ele>
        <time>2021-04-10T14:20:39Z</time>
      </trkpt>
      <trkpt lat="44.73602" lon="4.15441">
        <ele>1251</ele>
        <time>2021-04-10T14:20:43Z</time>
      </trkpt>
      <trkpt lat="44.73625" lon="4.15393">
        <ele>1252</ele>
        <time>2021-04-10T14:20:50Z</time>
      </trkpt>
      <trkpt lat="44.73672" lon="4.15303">
        <ele>1254</ele>
        <time>2021-04-10T14:21:04Z</time>
      </trkpt>
      <trkpt lat="44.7369" lon="4.15249">
        <ele>1254</ele>
        <time>2021-04-10T14:21:12Z</time>
      </trkpt>
      <trkpt lat="44.73716" lon="4.15186">
        <ele>1255</ele>
        <time>2021-04-10T14:21:21Z</time>
      </trkpt>
      <trkpt lat="44.73726" lon="4.1517">
        <ele>1256</ele>
        <time>2021-04-10T14:21:24Z</time>
      </trkpt>
      <trkpt lat="44.73742" lon="4.15154">
        <ele>1257</ele>
        <time>2021-04-10T14:21:27Z</time>
      </trkpt>
      <trkpt lat="44.73766" lon="4.15143">
        <ele>1260</ele>
        <time>2021-04-10T14:21:32Z</time>
      </trkpt>
      <trkpt lat="44.73784" lon="4.15138">
        <ele>1261</ele>
        <time>2021-04-10T14:21:35Z</time>
      </trkpt>
      <trkpt lat="44.73794" lon="4.15131">
        <ele>1262</ele>
        <time>2021-04-10T14:21:37Z</time>
      </trkpt>
      <trkpt lat="44.73802" lon="4.15121">
        <ele>1263</ele>
        <time>2021-04-10T14:21:39Z</time>
      </trkpt>
      <trkpt lat="44.73805" lon="4.15115">
        <ele>1263</ele>
        <time>2021-04-10T14:21:40Z</time>
      </trkpt>
      <trkpt lat="44.73807" lon="4.15105">
        <ele>1263</ele>
        <time>2021-04-10T14:21:41Z</time>
      </trkpt>
      <trkpt lat="44.73807" lon="4.15093">
        <ele>1264</ele>
        <time>2021-04-10T14:21:42Z</time>
      </trkpt>
      <trkpt lat="44.73803" lon="4.15078">
        <ele>1264</ele>
        <time>2021-04-10T14:21:44Z</time>
      </trkpt>
      <trkpt lat="44.73765" lon="4.14982">
        <ele>1265</ele>
        <time>2021-04-10T14:21:58Z</time>
      </trkpt>
      <trkpt lat="44.73753" lon="4.14941">
        <ele>1266</ele>
        <time>2021-04-10T14:22:04Z</time>
      </trkpt>
      <trkpt lat="44.73751" lon="4.14924">
        <ele>1267</ele>
        <time>2021-04-10T14:22:06Z</time>
      </trkpt>
      <trkpt lat="44.73751" lon="4.14906">
        <ele>1267</ele>
        <time>2021-04-10T14:22:08Z</time>
      </trkpt>
      <trkpt lat="44.7376" lon="4.14854">
        <ele>1268</ele>
        <time>2021-04-10T14:22:15Z</time>
      </trkpt>
      <trkpt lat="44.73774" lon="4.14806">
        <ele>1268</ele>
        <time>2021-04-10T14:22:22Z</time>
      </trkpt>
      <trkpt lat="44.7388" lon="4.14477">
        <ele>1270</ele>
        <time>2021-04-10T14:23:07Z</time>
      </trkpt>
      <trkpt lat="44.739" lon="4.14435">
        <ele>1267</ele>
        <time>2021-04-10T14:23:14Z</time>
      </trkpt>
      <trkpt lat="44.73928" lon="4.14405">
        <ele>1266</ele>
        <time>2021-04-10T14:23:20Z</time>
      </trkpt>
      <trkpt lat="44.74022" lon="4.14341">
        <ele>1268</ele>
        <time>2021-04-10T14:23:39Z</time>
      </trkpt>
      <trkpt lat="44.74045" lon="4.14309">
        <ele>1265</ele>
        <time>2021-04-10T14:23:44Z</time>
      </trkpt>
      <trkpt lat="44.74057" lon="4.14279">
        <ele>1262</ele>
        <time>2021-04-10T14:23:49Z</time>
      </trkpt>
      <trkpt lat="44.7407" lon="4.14282">
        <ele>1263</ele>
        <time>2021-04-10T14:23:51Z</time>
      </trkpt>
      <trkpt lat="44.74081" lon="4.14281">
        <ele>1264</ele>
        <time>2021-04-10T14:23:53Z</time>
      </trkpt>
      <trkpt lat="44.74091" lon="4.14271">
        <ele>1263</ele>
        <time>2021-04-10T14:23:55Z</time>
      </trkpt>
      <trkpt lat="44.74096" lon="4.14258">
        <ele>1262</ele>
        <time>2021-04-10T14:23:57Z</time>
      </trkpt>
      <trkpt lat="44.74097" lon="4.1424">
        <ele>1260</ele>
        <time>2021-04-10T14:23:59Z</time>
      </trkpt>
      <trkpt lat="44.74087" lon="4.14182">
        <ele>1256</ele>
        <time>2021-04-10T14:24:07Z</time>
      </trkpt>
      <trkpt lat="44.74091" lon="4.14156">
        <ele>1255</ele>
        <time>2021-04-10T14:24:10Z</time>
      </trkpt>
      <trkpt lat="44.74102" lon="4.14128">
        <ele>1255</ele>
        <time>2021-04-10T14:24:14Z</time>
      </trkpt>
      <trkpt lat="44.74137" lon="4.14069">
        <ele>1258</ele>
        <time>2021-04-10T14:24:24Z</time>
      </trkpt>
      <trkpt lat="44.74186" lon="4.14001">
        <ele>1260</ele>
        <time>2021-04-10T14:24:36Z</time>
      </trkpt>
      <trkpt lat="44.74286" lon="4.13911">
        <ele>1261</ele>
        <time>2021-04-10T14:24:57Z</time>
      </trkpt>
      <trkpt lat="44.74335" lon="4.13885">
        <ele>1265</ele>
        <time>2021-04-10T14:25:07Z</time>
      </trkpt>
      <trkpt lat="44.74385" lon="4.13871">
        <ele>1266</ele>
        <time>2021-04-10T14:25:16Z</time>
      </trkpt>
      <trkpt lat="44.74439" lon="4.13871">
        <ele>1268</ele>
        <time>2021-04-10T14:25:25Z</time>
      </trkpt>
      <trkpt lat="44.74488" lon="4.13863">
        <ele>1269</ele>
        <time>2021-04-10T14:25:34Z</time>
      </trkpt>
      <trkpt lat="44.74538" lon="4.13842">
        <ele>1268</ele>
        <time>2021-04-10T14:25:43Z</time>
      </trkpt>
      <trkpt lat="44.74572" lon="4.13808">
        <ele>1265</ele>
        <time>2021-04-10T14:25:51Z</time>
      </trkpt>
      <trkpt lat="44.74606" lon="4.1377">
        <ele>1263</ele>
        <time>2021-04-10T14:25:59Z</time>
      </trkpt>
      <trkpt lat="44.74621" lon="4.13755">
        <ele>1263</ele>
        <time>2021-04-10T14:26:02Z</time>
      </trkpt>
      <trkpt lat="44.7464" lon="4.13741">
        <ele>1264</ele>
        <time>2021-04-10T14:26:06Z</time>
      </trkpt>
      <trkpt lat="44.74683" lon="4.13725">
        <ele>1266</ele>
        <time>2021-04-10T14:26:14Z</time>
      </trkpt>
      <trkpt lat="44.7474" lon="4.13732">
        <ele>1267</ele>
        <time>2021-04-10T14:26:24Z</time>
      </trkpt>
      <trkpt lat="44.74823" lon="4.13771">
        <ele>1261</ele>
        <time>2021-04-10T14:26:39Z</time>
      </trkpt>
      <trkpt lat="44.74875" lon="4.13787">
        <ele>1258</ele>
        <time>2021-04-10T14:26:49Z</time>
      </trkpt>
      <trkpt lat="44.74897" lon="4.13788">
        <ele>1258</ele>
        <time>2021-04-10T14:26:53Z</time>
      </trkpt>
      <trkpt lat="44.74914" lon="4.13783">
        <ele>1257</ele>
        <time>2021-04-10T14:26:56Z</time>
      </trkpt>
      <trkpt lat="44.74928" lon="4.13771">
        <ele>1257</ele>
        <time>2021-04-10T14:26:59Z</time>
      </trkpt>
      <trkpt lat="44.7496" lon="4.13732">
        <ele>1257</ele>
        <time>2021-04-10T14:27:06Z</time>
      </trkpt>
      <trkpt lat="44.74978" lon="4.13713">
        <ele>1256</ele>
        <time>2021-04-10T14:27:10Z</time>
      </trkpt>
      <trkpt lat="44.75002" lon="4.13696">
        <ele>1253</ele>
        <time>2021-04-10T14:27:15Z</time>
      </trkpt>
      <trkpt lat="44.75058" lon="4.13681">
        <ele>1253</ele>
        <time>2021-04-10T14:27:25Z</time>
      </trkpt>
      <trkpt lat="44.75099" lon="4.13675">
        <ele>1255</ele>
        <time>2021-04-10T14:27:33Z</time>
      </trkpt>
      <trkpt lat="44.75119" lon="4.13662">
        <ele>1255</ele>
        <time>2021-04-10T14:27:36Z</time>
      </trkpt>
      <trkpt lat="44.75221" lon="4.1354">
        <ele>1246</ele>
        <time>2021-04-10T14:28:00Z</time>
      </trkpt>
      <trkpt lat="44.75284" lon="4.13504">
        <ele>1243</ele>
        <time>2021-04-10T14:28:12Z</time>
      </trkpt>
      <trkpt lat="44.75295" lon="4.135">
        <ele>1243</ele>
        <time>2021-04-10T14:28:14Z</time>
      </trkpt>
      <trkpt lat="44.75307" lon="4.13501">
        <ele>1244</ele>
        <time>2021-04-10T14:28:17Z</time>
      </trkpt>
      <trkpt lat="44.75325" lon="4.13508">
        <ele>1246</ele>
        <time>2021-04-10T14:28:20Z</time>
      </trkpt>
      <trkpt lat="44.75342" lon="4.1352">
        <ele>1248</ele>
        <time>2021-04-10T14:28:23Z</time>
      </trkpt>
      <trkpt lat="44.7536" lon="4.13539">
        <ele>1251</ele>
        <time>2021-04-10T14:28:27Z</time>
      </trkpt>
      <trkpt lat="44.75384" lon="4.13559">
        <ele>1252</ele>
        <time>2021-04-10T14:28:32Z</time>
      </trkpt>
      <trkpt lat="44.75409" lon="4.13575">
        <ele>1253</ele>
        <time>2021-04-10T14:28:37Z</time>
      </trkpt>
      <trkpt lat="44.75431" lon="4.1358">
        <ele>1252</ele>
        <time>2021-04-10T14:28:41Z</time>
      </trkpt>
      <trkpt lat="44.75446" lon="4.13588">
        <ele>1251</ele>
        <time>2021-04-10T14:28:44Z</time>
      </trkpt>
      <trkpt lat="44.75455" lon="4.13603">
        <ele>1252</ele>
        <time>2021-04-10T14:28:46Z</time>
      </trkpt>
      <trkpt lat="44.7546" lon="4.13622">
        <ele>1253</ele>
        <time>2021-04-10T14:28:49Z</time>
      </trkpt>
      <trkpt lat="44.75469" lon="4.13681">
        <ele>1256</ele>
        <time>2021-04-10T14:28:57Z</time>
      </trkpt>
      <trkpt lat="44.7548" lon="4.13698">
        <ele>1256</ele>
        <time>2021-04-10T14:28:59Z</time>
      </trkpt>
      <trkpt lat="44.7549" lon="4.13707">
        <ele>1256</ele>
        <time>2021-04-10T14:29:02Z</time>
      </trkpt>
      <trkpt lat="44.75506" lon="4.13708">
        <ele>1255</ele>
        <time>2021-04-10T14:29:04Z</time>
      </trkpt>
      <trkpt lat="44.75574" lon="4.13637">
        <ele>1249</ele>
        <time>2021-04-10T14:29:19Z</time>
      </trkpt>
      <trkpt lat="44.75613" lon="4.13606">
        <ele>1244</ele>
        <time>2021-04-10T14:29:27Z</time>
      </trkpt>
      <trkpt lat="44.75627" lon="4.13601">
        <ele>1243</ele>
        <time>2021-04-10T14:29:30Z</time>
      </trkpt>
      <trkpt lat="44.75647" lon="4.13606">
        <ele>1243</ele>
        <time>2021-04-10T14:29:34Z</time>
      </trkpt>
      <trkpt lat="44.7569" lon="4.13646">
        <ele>1241</ele>
        <time>2021-04-10T14:29:43Z</time>
      </trkpt>
      <trkpt lat="44.75723" lon="4.13687">
        <ele>1237</ele>
        <time>2021-04-10T14:29:51Z</time>
      </trkpt>
      <trkpt lat="44.7574" lon="4.13739">
        <ele>1236</ele>
        <time>2021-04-10T14:29:58Z</time>
      </trkpt>
      <trkpt lat="44.75745" lon="4.13783">
        <ele>1236</ele>
        <time>2021-04-10T14:30:04Z</time>
      </trkpt>
      <trkpt lat="44.75741" lon="4.13821">
        <ele>1237</ele>
        <time>2021-04-10T14:30:08Z</time>
      </trkpt>
      <trkpt lat="44.75736" lon="4.13853">
        <ele>1240</ele>
        <time>2021-04-10T14:30:13Z</time>
      </trkpt>
      <trkpt lat="44.75732" lon="4.13909">
        <ele>1242</ele>
        <time>2021-04-10T14:30:20Z</time>
      </trkpt>
      <trkpt lat="44.75743" lon="4.13954">
        <ele>1240</ele>
        <time>2021-04-10T14:30:26Z</time>
      </trkpt>
      <trkpt lat="44.75758" lon="4.13982">
        <ele>1238</ele>
        <time>2021-04-10T14:30:30Z</time>
      </trkpt>
      <trkpt lat="44.75781" lon="4.14002">
        <ele>1236</ele>
        <time>2021-04-10T14:30:35Z</time>
      </trkpt>
      <trkpt lat="44.75802" lon="4.14">
        <ele>1232</ele>
        <time>2021-04-10T14:30:39Z</time>
      </trkpt>
      <trkpt lat="44.75829" lon="4.13991">
        <ele>1226</ele>
        <time>2021-04-10T14:30:44Z</time>
      </trkpt>
      <trkpt lat="44.75847" lon="4.13991">
        <ele>1221</ele>
        <time>2021-04-10T14:30:47Z</time>
      </trkpt>
      <trkpt lat="44.75859" lon="4.14003">
        <ele>1220</ele>
        <time>2021-04-10T14:30:49Z</time>
      </trkpt>
      <trkpt lat="44.75868" lon="4.14026">
        <ele>1222</ele>
        <time>2021-04-10T14:30:53Z</time>
      </trkpt>
      <trkpt lat="44.75906" lon="4.14092">
        <ele>1221</ele>
        <time>2021-04-10T14:31:03Z</time>
      </trkpt>
      <trkpt lat="44.75934" lon="4.1416">
        <ele>1220</ele>
        <time>2021-04-10T14:31:13Z</time>
      </trkpt>
      <trkpt lat="44.75934" lon="4.14186">
        <ele>1221</ele>
        <time>2021-04-10T14:31:17Z</time>
      </trkpt>
      <trkpt lat="44.75927" lon="4.1422">
        <ele>1221</ele>
        <time>2021-04-10T14:31:21Z</time>
      </trkpt>
      <trkpt lat="44.75924" lon="4.14261">
        <ele>1221</ele>
        <time>2021-04-10T14:31:26Z</time>
      </trkpt>
      <trkpt lat="44.75923" lon="4.14354">
        <ele>1216</ele>
        <time>2021-04-10T14:31:38Z</time>
      </trkpt>
      <trkpt lat="44.75922" lon="4.14391">
        <ele>1212</ele>
        <time>2021-04-10T14:31:43Z</time>
      </trkpt>
      <trkpt lat="44.75911" lon="4.14418">
        <ele>1212</ele>
        <time>2021-04-10T14:31:47Z</time>
      </trkpt>
      <trkpt lat="44.75896" lon="4.14432">
        <ele>1212</ele>
        <time>2021-04-10T14:31:50Z</time>
      </trkpt>
      <trkpt lat="44.75824" lon="4.14487">
        <ele>1214</ele>
        <time>2021-04-10T14:32:04Z</time>
      </trkpt>
      <trkpt lat="44.75808" lon="4.14517">
        <ele>1215</ele>
        <time>2021-04-10T14:32:09Z</time>
      </trkpt>
      <trkpt lat="44.75803" lon="4.14545">
        <ele>1214</ele>
        <time>2021-04-10T14:32:13Z</time>
      </trkpt>
      <trkpt lat="44.75808" lon="4.14572">
        <ele>1212</ele>
        <time>2021-04-10T14:32:16Z</time>
      </trkpt>
      <trkpt lat="44.75825" lon="4.14602">
        <ele>1209</ele>
        <time>2021-04-10T14:32:21Z</time>
      </trkpt>
      <trkpt lat="44.75884" lon="4.14679">
        <ele>1203</ele>
        <time>2021-04-10T14:32:36Z</time>
      </trkpt>
      <trkpt lat="44.75894" lon="4.14709">
        <ele>1203</ele>
        <time>2021-04-10T14:32:40Z</time>
      </trkpt>
      <trkpt lat="44.75906" lon="4.14741">
        <ele>1202</ele>
        <time>2021-04-10T14:32:44Z</time>
      </trkpt>
      <trkpt lat="44.7594" lon="4.14757">
        <ele>1199</ele>
        <time>2021-04-10T14:32:51Z</time>
      </trkpt>
      <trkpt lat="44.75963" lon="4.14762">
        <ele>1197</ele>
        <time>2021-04-10T14:32:55Z</time>
      </trkpt>
      <trkpt lat="44.75981" lon="4.1477">
        <ele>1195</ele>
        <time>2021-04-10T14:32:58Z</time>
      </trkpt>
      <trkpt lat="44.76022" lon="4.14804">
        <ele>1193</ele>
        <time>2021-04-10T14:33:07Z</time>
      </trkpt>
      <trkpt lat="44.76073" lon="4.14841">
        <ele>1187</ele>
        <time>2021-04-10T14:33:17Z</time>
      </trkpt>
      <trkpt lat="44.76109" lon="4.14896">
        <ele>1182</ele>
        <time>2021-04-10T14:33:26Z</time>
      </trkpt>
      <trkpt lat="44.76115" lon="4.14946">
        <ele>1181</ele>
        <time>2021-04-10T14:33:33Z</time>
      </trkpt>
      <trkpt lat="44.76114" lon="4.14972">
        <ele>1180</ele>
        <time>2021-04-10T14:33:36Z</time>
      </trkpt>
      <trkpt lat="44.76107" lon="4.14999">
        <ele>1182</ele>
        <time>2021-04-10T14:33:40Z</time>
      </trkpt>
      <trkpt lat="44.76083" lon="4.15043">
        <ele>1184</ele>
        <time>2021-04-10T14:33:47Z</time>
      </trkpt>
      <trkpt lat="44.76076" lon="4.15061">
        <ele>1185</ele>
        <time>2021-04-10T14:33:49Z</time>
      </trkpt>
      <trkpt lat="44.76083" lon="4.15085">
        <ele>1182</ele>
        <time>2021-04-10T14:33:53Z</time>
      </trkpt>
      <trkpt lat="44.76143" lon="4.15164">
        <ele>1177</ele>
        <time>2021-04-10T14:34:07Z</time>
      </trkpt>
      <trkpt lat="44.7616" lon="4.15194">
        <ele>1175</ele>
        <time>2021-04-10T14:34:12Z</time>
      </trkpt>
      <trkpt lat="44.76179" lon="4.15245">
        <ele>1174</ele>
        <time>2021-04-10T14:34:19Z</time>
      </trkpt>
      <trkpt lat="44.76196" lon="4.15303">
        <ele>1168</ele>
        <time>2021-04-10T14:34:27Z</time>
      </trkpt>
      <trkpt lat="44.76202" lon="4.15334">
        <ele>1165</ele>
        <time>2021-04-10T14:34:31Z</time>
      </trkpt>
      <trkpt lat="44.76203" lon="4.15364">
        <ele>1162</ele>
        <time>2021-04-10T14:34:35Z</time>
      </trkpt>
      <trkpt lat="44.76198" lon="4.15392">
        <ele>1161</ele>
        <time>2021-04-10T14:34:39Z</time>
      </trkpt>
      <trkpt lat="44.76182" lon="4.15424">
        <ele>1161</ele>
        <time>2021-04-10T14:34:44Z</time>
      </trkpt>
      <trkpt lat="44.76121" lon="4.15504">
        <ele>1160</ele>
        <time>2021-04-10T14:34:58Z</time>
      </trkpt>
      <trkpt lat="44.76001" lon="4.15603">
        <ele>1156</ele>
        <time>2021-04-10T14:35:23Z</time>
      </trkpt>
      <trkpt lat="44.75978" lon="4.1562">
        <ele>1155</ele>
        <time>2021-04-10T14:35:28Z</time>
      </trkpt>
      <trkpt lat="44.75955" lon="4.15631">
        <ele>1155</ele>
        <time>2021-04-10T14:35:32Z</time>
      </trkpt>
      <trkpt lat="44.75913" lon="4.15637">
        <ele>1160</ele>
        <time>2021-04-10T14:35:40Z</time>
      </trkpt>
      <trkpt lat="44.75903" lon="4.1565">
        <ele>1159</ele>
        <time>2021-04-10T14:35:42Z</time>
      </trkpt>
      <trkpt lat="44.75903" lon="4.1567">
        <ele>1157</ele>
        <time>2021-04-10T14:35:45Z</time>
      </trkpt>
      <trkpt lat="44.75914" lon="4.15688">
        <ele>1155</ele>
        <time>2021-04-10T14:35:48Z</time>
      </trkpt>
      <trkpt lat="44.75933" lon="4.15707">
        <ele>1152</ele>
        <time>2021-04-10T14:35:52Z</time>
      </trkpt>
      <trkpt lat="44.75946" lon="4.1573">
        <ele>1149</ele>
        <time>2021-04-10T14:35:55Z</time>
      </trkpt>
      <trkpt lat="44.75992" lon="4.15839">
        <ele>1138</ele>
        <time>2021-04-10T14:36:11Z</time>
      </trkpt>
      <trkpt lat="44.7601" lon="4.15875">
        <ele>1135</ele>
        <time>2021-04-10T14:36:17Z</time>
      </trkpt>
      <trkpt lat="44.76014" lon="4.15898">
        <ele>1135</ele>
        <time>2021-04-10T14:36:20Z</time>
      </trkpt>
      <trkpt lat="44.76016" lon="4.15933">
        <ele>1135</ele>
        <time>2021-04-10T14:36:24Z</time>
      </trkpt>
      <trkpt lat="44.76015" lon="4.15967">
        <ele>1137</ele>
        <time>2021-04-10T14:36:29Z</time>
      </trkpt>
      <trkpt lat="44.76018" lon="4.15985">
        <ele>1137</ele>
        <time>2021-04-10T14:36:31Z</time>
      </trkpt>
      <trkpt lat="44.76028" lon="4.16003">
        <ele>1135</ele>
        <time>2021-04-10T14:36:34Z</time>
      </trkpt>
      <trkpt lat="44.76069" lon="4.16048">
        <ele>1134</ele>
        <time>2021-04-10T14:36:43Z</time>
      </trkpt>
      <trkpt lat="44.76081" lon="4.16054">
        <ele>1132</ele>
        <time>2021-04-10T14:36:46Z</time>
      </trkpt>
      <trkpt lat="44.76111" lon="4.1606">
        <ele>1129</ele>
        <time>2021-04-10T14:36:51Z</time>
      </trkpt>
      <trkpt lat="44.7612" lon="4.16064">
        <ele>1128</ele>
        <time>2021-04-10T14:36:53Z</time>
      </trkpt>
      <trkpt lat="44.76128" lon="4.16071">
        <ele>1128</ele>
        <time>2021-04-10T14:36:54Z</time>
      </trkpt>
      <trkpt lat="44.76134" lon="4.16081">
        <ele>1128</ele>
        <time>2021-04-10T14:36:56Z</time>
      </trkpt>
      <trkpt lat="44.76147" lon="4.16132">
        <ele>1126</ele>
        <time>2021-04-10T14:37:03Z</time>
      </trkpt>
      <trkpt lat="44.76193" lon="4.16202">
        <ele>1123</ele>
        <time>2021-04-10T14:37:15Z</time>
      </trkpt>
      <trkpt lat="44.76214" lon="4.16227">
        <ele>1123</ele>
        <time>2021-04-10T14:37:20Z</time>
      </trkpt>
      <trkpt lat="44.76229" lon="4.16247">
        <ele>1124</ele>
        <time>2021-04-10T14:37:23Z</time>
      </trkpt>
      <trkpt lat="44.76245" lon="4.16252">
        <ele>1124</ele>
        <time>2021-04-10T14:37:26Z</time>
      </trkpt>
      <trkpt lat="44.76244" lon="4.1626">
        <ele>1125</ele>
        <time>2021-04-10T14:37:27Z</time>
      </trkpt>
      <trkpt lat="44.76224" lon="4.16297">
        <ele>1127</ele>
        <time>2021-04-10T14:37:33Z</time>
      </trkpt>
      <trkpt lat="44.76212" lon="4.16307">
        <ele>1127</ele>
        <time>2021-04-10T14:37:36Z</time>
      </trkpt>
      <trkpt lat="44.76224" lon="4.16297">
        <ele>1127</ele>
        <time>2021-04-10T14:37:38Z</time>
      </trkpt>
      <trkpt lat="44.76244" lon="4.1626">
        <ele>1125</ele>
        <time>2021-04-10T14:37:44Z</time>
      </trkpt>
      <trkpt lat="44.76245" lon="4.16252">
        <ele>1124</ele>
        <time>2021-04-10T14:37:45Z</time>
      </trkpt>
      <trkpt lat="44.76253" lon="4.1625">
        <ele>1124</ele>
        <time>2021-04-10T14:37:46Z</time>
      </trkpt>
      <trkpt lat="44.76254" lon="4.1625">
        <ele>1124</ele>
        <time>2021-04-10T14:37:47Z</time>
      </trkpt>
      <trkpt lat="44.7627" lon="4.16246">
        <ele>1124</ele>
        <time>2021-04-10T14:37:50Z</time>
      </trkpt>
      <trkpt lat="44.76333" lon="4.16234">
        <ele>1124</ele>
        <time>2021-04-10T14:38:01Z</time>
      </trkpt>
      <trkpt lat="44.76357" lon="4.16228">
        <ele>1124</ele>
        <time>2021-04-10T14:38:05Z</time>
      </trkpt>
      <trkpt lat="44.7639" lon="4.16225">
        <ele>1123</ele>
        <time>2021-04-10T14:38:11Z</time>
      </trkpt>
      <trkpt lat="44.76444" lon="4.1623">
        <ele>1124</ele>
        <time>2021-04-10T14:38:21Z</time>
      </trkpt>
      <trkpt lat="44.76474" lon="4.16239">
        <ele>1125</ele>
        <time>2021-04-10T14:38:26Z</time>
      </trkpt>
      <trkpt lat="44.76514" lon="4.16257">
        <ele>1126</ele>
        <time>2021-04-10T14:38:34Z</time>
      </trkpt>
      <trkpt lat="44.76551" lon="4.16277">
        <ele>1128</ele>
        <time>2021-04-10T14:38:41Z</time>
      </trkpt>
      <trkpt lat="44.76597" lon="4.16308">
        <ele>1130</ele>
        <time>2021-04-10T14:38:50Z</time>
      </trkpt>
      <trkpt lat="44.76652" lon="4.1636">
        <ele>1131</ele>
        <time>2021-04-10T14:39:02Z</time>
      </trkpt>
      <trkpt lat="44.76659" lon="4.16371">
        <ele>1131</ele>
        <time>2021-04-10T14:39:03Z</time>
      </trkpt>
      <trkpt lat="44.76666" lon="4.16384">
        <ele>1132</ele>
        <time>2021-04-10T14:39:05Z</time>
      </trkpt>
      <trkpt lat="44.76687" lon="4.1644">
        <ele>1136</ele>
        <time>2021-04-10T14:39:13Z</time>
      </trkpt>
      <trkpt lat="44.76699" lon="4.16464">
        <ele>1137</ele>
        <time>2021-04-10T14:39:17Z</time>
      </trkpt>
      <trkpt lat="44.76727" lon="4.16487">
        <ele>1132</ele>
        <time>2021-04-10T14:39:23Z</time>
      </trkpt>
      <trkpt lat="44.76778" lon="4.16529">
        <ele>1131</ele>
        <time>2021-04-10T14:39:33Z</time>
      </trkpt>
      <trkpt lat="44.76801" lon="4.16554">
        <ele>1131</ele>
        <time>2021-04-10T14:39:39Z</time>
      </trkpt>
      <trkpt lat="44.76821" lon="4.16584">
        <ele>1128</ele>
        <time>2021-04-10T14:39:44Z</time>
      </trkpt>
      <trkpt lat="44.76827" lon="4.16594">
        <ele>1129</ele>
        <time>2021-04-10T14:39:45Z</time>
      </trkpt>
      <trkpt lat="44.76836" lon="4.16609">
        <ele>1129</ele>
        <time>2021-04-10T14:39:48Z</time>
      </trkpt>
      <trkpt lat="44.76847" lon="4.16632">
        <ele>1132</ele>
        <time>2021-04-10T14:39:51Z</time>
      </trkpt>
      <trkpt lat="44.76861" lon="4.16666">
        <ele>1134</ele>
        <time>2021-04-10T14:39:56Z</time>
      </trkpt>
      <trkpt lat="44.76872" lon="4.16703">
        <ele>1135</ele>
        <time>2021-04-10T14:40:02Z</time>
      </trkpt>
      <trkpt lat="44.76875" lon="4.16726">
        <ele>1136</ele>
        <time>2021-04-10T14:40:04Z</time>
      </trkpt>
      <trkpt lat="44.76875" lon="4.16783">
        <ele>1141</ele>
        <time>2021-04-10T14:40:12Z</time>
      </trkpt>
      <trkpt lat="44.76879" lon="4.16803">
        <ele>1141</ele>
        <time>2021-04-10T14:40:14Z</time>
      </trkpt>
      <trkpt lat="44.76888" lon="4.16821">
        <ele>1139</ele>
        <time>2021-04-10T14:40:17Z</time>
      </trkpt>
      <trkpt lat="44.76902" lon="4.16835">
        <ele>1134</ele>
        <time>2021-04-10T14:40:20Z</time>
      </trkpt>
      <trkpt lat="44.7692" lon="4.16848">
        <ele>1129</ele>
        <time>2021-04-10T14:40:24Z</time>
      </trkpt>
      <trkpt lat="44.76961" lon="4.16873">
        <ele>1129</ele>
        <time>2021-04-10T14:40:32Z</time>
      </trkpt>
      <trkpt lat="44.7697" lon="4.16871">
        <ele>1128</ele>
        <time>2021-04-10T14:40:33Z</time>
      </trkpt>
      <trkpt lat="44.76977" lon="4.16864">
        <ele>1128</ele>
        <time>2021-04-10T14:40:35Z</time>
      </trkpt>
      <trkpt lat="44.77002" lon="4.168">
        <ele>1131</ele>
        <time>2021-04-10T14:40:44Z</time>
      </trkpt>
      <trkpt lat="44.77002" lon="4.16786">
        <ele>1133</ele>
        <time>2021-04-10T14:40:46Z</time>
      </trkpt>
      <trkpt lat="44.76998" lon="4.16749">
        <ele>1137</ele>
        <time>2021-04-10T14:40:51Z</time>
      </trkpt>
      <trkpt lat="44.76998" lon="4.16737">
        <ele>1138</ele>
        <time>2021-04-10T14:40:52Z</time>
      </trkpt>
      <trkpt lat="44.77005" lon="4.16732">
        <ele>1140</ele>
        <time>2021-04-10T14:40:53Z</time>
      </trkpt>
      <trkpt lat="44.77013" lon="4.16738">
        <ele>1140</ele>
        <time>2021-04-10T14:40:55Z</time>
      </trkpt>
      <trkpt lat="44.77035" lon="4.16765">
        <ele>1139</ele>
        <time>2021-04-10T14:41:00Z</time>
      </trkpt>
      <trkpt lat="44.77053" lon="4.16777">
        <ele>1140</ele>
        <time>2021-04-10T14:41:04Z</time>
      </trkpt>
      <trkpt lat="44.77125" lon="4.16769">
        <ele>1145</ele>
        <time>2021-04-10T14:41:17Z</time>
      </trkpt>
      <trkpt lat="44.77147" lon="4.16773">
        <ele>1145</ele>
        <time>2021-04-10T14:41:21Z</time>
      </trkpt>
      <trkpt lat="44.77171" lon="4.16786">
        <ele>1144</ele>
        <time>2021-04-10T14:41:25Z</time>
      </trkpt>
      <trkpt lat="44.7719" lon="4.16803">
        <ele>1144</ele>
        <time>2021-04-10T14:41:29Z</time>
      </trkpt>
      <trkpt lat="44.77228" lon="4.16861">
        <ele>1145</ele>
        <time>2021-04-10T14:41:39Z</time>
      </trkpt>
      <trkpt lat="44.77235" lon="4.16881">
        <ele>1145</ele>
        <time>2021-04-10T14:41:42Z</time>
      </trkpt>
      <trkpt lat="44.77244" lon="4.16913">
        <ele>1145</ele>
        <time>2021-04-10T14:41:46Z</time>
      </trkpt>
      <trkpt lat="44.77268" lon="4.16957">
        <ele>1150</ele>
        <time>2021-04-10T14:41:53Z</time>
      </trkpt>
      <trkpt lat="44.77283" lon="4.16982">
        <ele>1153</ele>
        <time>2021-04-10T14:41:57Z</time>
      </trkpt>
      <trkpt lat="44.77291" lon="4.17007">
        <ele>1153</ele>
        <time>2021-04-10T14:42:01Z</time>
      </trkpt>
      <trkpt lat="44.77293" lon="4.17042">
        <ele>1154</ele>
        <time>2021-04-10T14:42:05Z</time>
      </trkpt>
      <trkpt lat="44.77284" lon="4.17107">
        <ele>1151</ele>
        <time>2021-04-10T14:42:14Z</time>
      </trkpt>
      <trkpt lat="44.77283" lon="4.17128">
        <ele>1150</ele>
        <time>2021-04-10T14:42:16Z</time>
      </trkpt>
      <trkpt lat="44.77288" lon="4.1715">
        <ele>1149</ele>
        <time>2021-04-10T14:42:19Z</time>
      </trkpt>
      <trkpt lat="44.77307" lon="4.17175">
        <ele>1151</ele>
        <time>2021-04-10T14:42:24Z</time>
      </trkpt>
      <trkpt lat="44.77358" lon="4.17193">
        <ele>1153</ele>
        <time>2021-04-10T14:42:33Z</time>
      </trkpt>
      <trkpt lat="44.77451" lon="4.17206">
        <ele>1158</ele>
        <time>2021-04-10T14:42:50Z</time>
      </trkpt>
      <trkpt lat="44.77477" lon="4.17219">
        <ele>1157</ele>
        <time>2021-04-10T14:42:55Z</time>
      </trkpt>
      <trkpt lat="44.77497" lon="4.17241">
        <ele>1152</ele>
        <time>2021-04-10T14:42:59Z</time>
      </trkpt>
      <trkpt lat="44.77514" lon="4.17249">
        <ele>1152</ele>
        <time>2021-04-10T14:43:03Z</time>
      </trkpt>
      <trkpt lat="44.77526" lon="4.17251">
        <ele>1153</ele>
        <time>2021-04-10T14:43:05Z</time>
      </trkpt>
      <trkpt lat="44.77548" lon="4.17247">
        <ele>1159</ele>
        <time>2021-04-10T14:43:09Z</time>
      </trkpt>
      <trkpt lat="44.77562" lon="4.17247">
        <ele>1161</ele>
        <time>2021-04-10T14:43:11Z</time>
      </trkpt>
      <trkpt lat="44.77575" lon="4.17253">
        <ele>1162</ele>
        <time>2021-04-10T14:43:14Z</time>
      </trkpt>
      <trkpt lat="44.77585" lon="4.17268">
        <ele>1160</ele>
        <time>2021-04-10T14:43:16Z</time>
      </trkpt>
      <trkpt lat="44.77601" lon="4.17295">
        <ele>1157</ele>
        <time>2021-04-10T14:43:21Z</time>
      </trkpt>
      <trkpt lat="44.77614" lon="4.17329">
        <ele>1152</ele>
        <time>2021-04-10T14:43:25Z</time>
      </trkpt>
      <trkpt lat="44.77622" lon="4.17361">
        <ele>1150</ele>
        <time>2021-04-10T14:43:30Z</time>
      </trkpt>
      <trkpt lat="44.77628" lon="4.17406">
        <ele>1146</ele>
        <time>2021-04-10T14:43:36Z</time>
      </trkpt>
      <trkpt lat="44.77631" lon="4.17455">
        <ele>1142</ele>
        <time>2021-04-10T14:43:42Z</time>
      </trkpt>
      <trkpt lat="44.77637" lon="4.17488">
        <ele>1140</ele>
        <time>2021-04-10T14:43:46Z</time>
      </trkpt>
      <trkpt lat="44.77652" lon="4.17542">
        <ele>1144</ele>
        <time>2021-04-10T14:43:53Z</time>
      </trkpt>
      <trkpt lat="44.7766" lon="4.17553">
        <ele>1145</ele>
        <time>2021-04-10T14:43:55Z</time>
      </trkpt>
      <trkpt lat="44.77669" lon="4.17562">
        <ele>1146</ele>
        <time>2021-04-10T14:43:57Z</time>
      </trkpt>
      <trkpt lat="44.77689" lon="4.17566">
        <ele>1146</ele>
        <time>2021-04-10T14:44:01Z</time>
      </trkpt>
      <trkpt lat="44.77832" lon="4.17575">
        <ele>1141</ele>
        <time>2021-04-10T14:44:26Z</time>
      </trkpt>
      <trkpt lat="44.7787" lon="4.1758">
        <ele>1140</ele>
        <time>2021-04-10T14:44:33Z</time>
      </trkpt>
      <trkpt lat="44.77901" lon="4.17586">
        <ele>1140</ele>
        <time>2021-04-10T14:44:39Z</time>
      </trkpt>
      <trkpt lat="44.77921" lon="4.17596">
        <ele>1141</ele>
        <time>2021-04-10T14:44:43Z</time>
      </trkpt>
      <trkpt lat="44.77934" lon="4.17612">
        <ele>1141</ele>
        <time>2021-04-10T14:44:46Z</time>
      </trkpt>
      <trkpt lat="44.77942" lon="4.17633">
        <ele>1142</ele>
        <time>2021-04-10T14:44:49Z</time>
      </trkpt>
      <trkpt lat="44.77944" lon="4.17654">
        <ele>1142</ele>
        <time>2021-04-10T14:44:51Z</time>
      </trkpt>
      <trkpt lat="44.77942" lon="4.1767">
        <ele>1143</ele>
        <time>2021-04-10T14:44:53Z</time>
      </trkpt>
      <trkpt lat="44.77932" lon="4.17693">
        <ele>1143</ele>
        <time>2021-04-10T14:44:57Z</time>
      </trkpt>
      <trkpt lat="44.77881" lon="4.17765">
        <ele>1149</ele>
        <time>2021-04-10T14:45:10Z</time>
      </trkpt>
      <trkpt lat="44.7787" lon="4.17787">
        <ele>1150</ele>
        <time>2021-04-10T14:45:13Z</time>
      </trkpt>
      <trkpt lat="44.77862" lon="4.17812">
        <ele>1151</ele>
        <time>2021-04-10T14:45:16Z</time>
      </trkpt>
      <trkpt lat="44.77859" lon="4.17832">
        <ele>1151</ele>
        <time>2021-04-10T14:45:19Z</time>
      </trkpt>
      <trkpt lat="44.77858" lon="4.1787">
        <ele>1152</ele>
        <time>2021-04-10T14:45:24Z</time>
      </trkpt>
      <trkpt lat="44.77862" lon="4.18004">
        <ele>1152</ele>
        <time>2021-04-10T14:45:41Z</time>
      </trkpt>
      <trkpt lat="44.77865" lon="4.18034">
        <ele>1153</ele>
        <time>2021-04-10T14:45:45Z</time>
      </trkpt>
      <trkpt lat="44.77874" lon="4.18065">
        <ele>1154</ele>
        <time>2021-04-10T14:45:49Z</time>
      </trkpt>
      <trkpt lat="44.77893" lon="4.18099">
        <ele>1151</ele>
        <time>2021-04-10T14:45:54Z</time>
      </trkpt>
      <trkpt lat="44.78174" lon="4.18526">
        <ele>1154</ele>
        <time>2021-04-10T14:47:08Z</time>
      </trkpt>
      <trkpt lat="44.78196" lon="4.18554">
        <ele>1156</ele>
        <time>2021-04-10T14:47:13Z</time>
      </trkpt>
      <trkpt lat="44.78218" lon="4.18574">
        <ele>1156</ele>
        <time>2021-04-10T14:47:18Z</time>
      </trkpt>
      <trkpt lat="44.78239" lon="4.18584">
        <ele>1155</ele>
        <time>2021-04-10T14:47:22Z</time>
      </trkpt>
      <trkpt lat="44.7832" lon="4.18598">
        <ele>1155</ele>
        <time>2021-04-10T14:47:36Z</time>
      </trkpt>
      <trkpt lat="44.78347" lon="4.18606">
        <ele>1157</ele>
        <time>2021-04-10T14:47:41Z</time>
      </trkpt>
      <trkpt lat="44.78369" lon="4.18616">
        <ele>1160</ele>
        <time>2021-04-10T14:47:45Z</time>
      </trkpt>
      <trkpt lat="44.78387" lon="4.1862">
        <ele>1161</ele>
        <time>2021-04-10T14:47:49Z</time>
      </trkpt>
      <trkpt lat="44.78407" lon="4.18619">
        <ele>1162</ele>
        <time>2021-04-10T14:47:52Z</time>
      </trkpt>
      <trkpt lat="44.78429" lon="4.18613">
        <ele>1162</ele>
        <time>2021-04-10T14:47:56Z</time>
      </trkpt>
      <trkpt lat="44.78447" lon="4.18605">
        <ele>1163</ele>
        <time>2021-04-10T14:47:59Z</time>
      </trkpt>
      <trkpt lat="44.78468" lon="4.18589">
        <ele>1162</ele>
        <time>2021-04-10T14:48:04Z</time>
      </trkpt>
      <trkpt lat="44.78521" lon="4.18537">
        <ele>1162</ele>
        <time>2021-04-10T14:48:15Z</time>
      </trkpt>
      <trkpt lat="44.78556" lon="4.18512">
        <ele>1162</ele>
        <time>2021-04-10T14:48:22Z</time>
      </trkpt>
      <trkpt lat="44.78613" lon="4.18475">
        <ele>1160</ele>
        <time>2021-04-10T14:48:33Z</time>
      </trkpt>
      <trkpt lat="44.78657" lon="4.18452">
        <ele>1158</ele>
        <time>2021-04-10T14:48:42Z</time>
      </trkpt>
      <trkpt lat="44.78682" lon="4.18447">
        <ele>1158</ele>
        <time>2021-04-10T14:48:46Z</time>
      </trkpt>
      <trkpt lat="44.78699" lon="4.18449">
        <ele>1159</ele>
        <time>2021-04-10T14:48:49Z</time>
      </trkpt>
      <trkpt lat="44.78717" lon="4.18457">
        <ele>1160</ele>
        <time>2021-04-10T14:48:53Z</time>
      </trkpt>
      <trkpt lat="44.78741" lon="4.18472">
        <ele>1162</ele>
        <time>2021-04-10T14:48:57Z</time>
      </trkpt>
      <trkpt lat="44.7879" lon="4.18516">
        <ele>1164</ele>
        <time>2021-04-10T14:49:08Z</time>
      </trkpt>
      <trkpt lat="44.78812" lon="4.18533">
        <ele>1165</ele>
        <time>2021-04-10T14:49:12Z</time>
      </trkpt>
      <trkpt lat="44.78829" lon="4.18541">
        <ele>1164</ele>
        <time>2021-04-10T14:49:15Z</time>
      </trkpt>
      <trkpt lat="44.78863" lon="4.18554">
        <ele>1164</ele>
        <time>2021-04-10T14:49:21Z</time>
      </trkpt>
      <trkpt lat="44.7889" lon="4.18562">
        <ele>1163</ele>
        <time>2021-04-10T14:49:26Z</time>
      </trkpt>
      <trkpt lat="44.78906" lon="4.18566">
        <ele>1163</ele>
        <time>2021-04-10T14:49:29Z</time>
      </trkpt>
      <trkpt lat="44.78923" lon="4.18563">
        <ele>1163</ele>
        <time>2021-04-10T14:49:32Z</time>
      </trkpt>
      <trkpt lat="44.78944" lon="4.18553">
        <ele>1165</ele>
        <time>2021-04-10T14:49:36Z</time>
      </trkpt>
      <trkpt lat="44.78962" lon="4.1854">
        <ele>1166</ele>
        <time>2021-04-10T14:49:40Z</time>
      </trkpt>
      <trkpt lat="44.78977" lon="4.18519">
        <ele>1164</ele>
        <time>2021-04-10T14:49:44Z</time>
      </trkpt>
      <trkpt lat="44.79023" lon="4.18436">
        <ele>1161</ele>
        <time>2021-04-10T14:49:57Z</time>
      </trkpt>
      <trkpt lat="44.79053" lon="4.18396">
        <ele>1161</ele>
        <time>2021-04-10T14:50:04Z</time>
      </trkpt>
      <trkpt lat="44.79084" lon="4.1836">
        <ele>1161</ele>
        <time>2021-04-10T14:50:11Z</time>
      </trkpt>
      <trkpt lat="44.79114" lon="4.18335">
        <ele>1159</ele>
        <time>2021-04-10T14:50:18Z</time>
      </trkpt>
      <trkpt lat="44.79135" lon="4.18324">
        <ele>1160</ele>
        <time>2021-04-10T14:50:22Z</time>
      </trkpt>
      <trkpt lat="44.79152" lon="4.18318">
        <ele>1160</ele>
        <time>2021-04-10T14:50:25Z</time>
      </trkpt>
      <trkpt lat="44.79177" lon="4.18318">
        <ele>1160</ele>
        <time>2021-04-10T14:50:29Z</time>
      </trkpt>
      <trkpt lat="44.79194" lon="4.18323">
        <ele>1161</ele>
        <time>2021-04-10T14:50:32Z</time>
      </trkpt>
      <trkpt lat="44.79268" lon="4.1837">
        <ele>1167</ele>
        <time>2021-04-10T14:50:47Z</time>
      </trkpt>
      <trkpt lat="44.79386" lon="4.18461">
        <ele>1169</ele>
        <time>2021-04-10T14:51:11Z</time>
      </trkpt>
      <trkpt lat="44.79404" lon="4.18473">
        <ele>1169</ele>
        <time>2021-04-10T14:51:14Z</time>
      </trkpt>
      <trkpt lat="44.79424" lon="4.18478">
        <ele>1167</ele>
        <time>2021-04-10T14:51:18Z</time>
      </trkpt>
      <trkpt lat="44.7961" lon="4.18474">
        <ele>1165</ele>
        <time>2021-04-10T14:51:51Z</time>
      </trkpt>
      <trkpt lat="44.79672" lon="4.18489">
        <ele>1163</ele>
        <time>2021-04-10T14:52:02Z</time>
      </trkpt>
      <trkpt lat="44.79687" lon="4.18492">
        <ele>1164</ele>
        <time>2021-04-10T14:52:05Z</time>
      </trkpt>
      <trkpt lat="44.79716" lon="4.18498">
        <ele>1165</ele>
        <time>2021-04-10T14:52:10Z</time>
      </trkpt>
      <trkpt lat="44.79737" lon="4.18497">
        <ele>1166</ele>
        <time>2021-04-10T14:52:14Z</time>
      </trkpt>
      <trkpt lat="44.79865" lon="4.18444">
        <ele>1169</ele>
        <time>2021-04-10T14:52:37Z</time>
      </trkpt>
      <trkpt lat="44.79892" lon="4.1844">
        <ele>1170</ele>
        <time>2021-04-10T14:52:42Z</time>
      </trkpt>
      <trkpt lat="44.80046" lon="4.18418">
        <ele>1172</ele>
        <time>2021-04-10T14:53:10Z</time>
      </trkpt>
      <trkpt lat="44.80176" lon="4.18405">
        <ele>1176</ele>
        <time>2021-04-10T14:53:33Z</time>
      </trkpt>
      <trkpt lat="44.80197" lon="4.18406">
        <ele>1177</ele>
        <time>2021-04-10T14:53:37Z</time>
      </trkpt>
      <trkpt lat="44.80219" lon="4.18412">
        <ele>1177</ele>
        <time>2021-04-10T14:53:41Z</time>
      </trkpt>
      <trkpt lat="44.80231" lon="4.18421">
        <ele>1177</ele>
        <time>2021-04-10T14:53:43Z</time>
      </trkpt>
      <trkpt lat="44.80251" lon="4.18445">
        <ele>1178</ele>
        <time>2021-04-10T14:53:48Z</time>
      </trkpt>
      <trkpt lat="44.80275" lon="4.18478">
        <ele>1179</ele>
        <time>2021-04-10T14:53:54Z</time>
      </trkpt>
      <trkpt lat="44.80291" lon="4.18508">
        <ele>1180</ele>
        <time>2021-04-10T14:53:59Z</time>
      </trkpt>
      <trkpt lat="44.80306" lon="4.18545">
        <ele>1181</ele>
        <time>2021-04-10T14:54:04Z</time>
      </trkpt>
      <trkpt lat="44.80319" lon="4.18586">
        <ele>1182</ele>
        <time>2021-04-10T14:54:10Z</time>
      </trkpt>
      <trkpt lat="44.80332" lon="4.18613">
        <ele>1182</ele>
        <time>2021-04-10T14:54:14Z</time>
      </trkpt>
      <trkpt lat="44.8034" lon="4.18625">
        <ele>1182</ele>
        <time>2021-04-10T14:54:16Z</time>
      </trkpt>
      <trkpt lat="44.80367" lon="4.18641">
        <ele>1182</ele>
        <time>2021-04-10T14:54:21Z</time>
      </trkpt>
      <trkpt lat="44.80724" lon="4.1885">
        <ele>1199</ele>
        <time>2021-04-10T14:55:30Z</time>
      </trkpt>
      <trkpt lat="44.80742" lon="4.18856">
        <ele>1201</ele>
        <time>2021-04-10T14:55:33Z</time>
      </trkpt>
      <trkpt lat="44.80769" lon="4.18855">
        <ele>1204</ele>
        <time>2021-04-10T14:55:38Z</time>
      </trkpt>
      <trkpt lat="44.80809" lon="4.18834">
        <ele>1207</ele>
        <time>2021-04-10T14:55:45Z</time>
      </trkpt>
      <trkpt lat="44.80832" lon="4.18825">
        <ele>1210</ele>
        <time>2021-04-10T14:55:50Z</time>
      </trkpt>
      <trkpt lat="44.80847" lon="4.18809">
        <ele>1212</ele>
        <time>2021-04-10T14:55:53Z</time>
      </trkpt>
      <trkpt lat="44.80867" lon="4.18776">
        <ele>1213</ele>
        <time>2021-04-10T14:55:59Z</time>
      </trkpt>
      <trkpt lat="44.80883" lon="4.18762">
        <ele>1215</ele>
        <time>2021-04-10T14:56:02Z</time>
      </trkpt>
      <trkpt lat="44.80895" lon="4.18764">
        <ele>1216</ele>
        <time>2021-04-10T14:56:04Z</time>
      </trkpt>
      <trkpt lat="44.80903" lon="4.18771">
        <ele>1218</ele>
        <time>2021-04-10T14:56:06Z</time>
      </trkpt>
      <trkpt lat="44.80907" lon="4.18781">
        <ele>1219</ele>
        <time>2021-04-10T14:56:07Z</time>
      </trkpt>
      <trkpt lat="44.80905" lon="4.18798">
        <ele>1220</ele>
        <time>2021-04-10T14:56:09Z</time>
      </trkpt>
      <trkpt lat="44.80876" lon="4.18902">
        <ele>1223</ele>
        <time>2021-04-10T14:56:23Z</time>
      </trkpt>
      <trkpt lat="44.80871" lon="4.18935">
        <ele>1222</ele>
        <time>2021-04-10T14:56:28Z</time>
      </trkpt>
      <trkpt lat="44.80873" lon="4.18941">
        <ele>1222</ele>
        <time>2021-04-10T14:56:29Z</time>
      </trkpt>
      <trkpt lat="44.80878" lon="4.18949">
        <ele>1223</ele>
        <time>2021-04-10T14:56:30Z</time>
      </trkpt>
      <trkpt lat="44.80931" lon="4.18965">
        <ele>1229</ele>
        <time>2021-04-10T14:56:40Z</time>
      </trkpt>
      <trkpt lat="44.8097" lon="4.18987">
        <ele>1231</ele>
        <time>2021-04-10T14:56:47Z</time>
      </trkpt>
      <trkpt lat="44.8099" lon="4.1899">
        <ele>1232</ele>
        <time>2021-04-10T14:56:51Z</time>
      </trkpt>
      <trkpt lat="44.80997" lon="4.18987">
        <ele>1233</ele>
        <time>2021-04-10T14:56:52Z</time>
      </trkpt>
      <trkpt lat="44.80997" lon="4.18982">
        <ele>1233</ele>
        <time>2021-04-10T14:56:53Z</time>
      </trkpt>
      <trkpt lat="44.81005" lon="4.18958">
        <ele>1234</ele>
        <time>2021-04-10T14:56:56Z</time>
      </trkpt>
      <trkpt lat="44.81015" lon="4.1894">
        <ele>1234</ele>
        <time>2021-04-10T14:56:59Z</time>
      </trkpt>
      <trkpt lat="44.81084" lon="4.18883">
        <ele>1239</ele>
        <time>2021-04-10T14:57:13Z</time>
      </trkpt>
      <trkpt lat="44.81103" lon="4.1887">
        <ele>1242</ele>
        <time>2021-04-10T14:57:17Z</time>
      </trkpt>
      <trkpt lat="44.8111" lon="4.1886">
        <ele>1243</ele>
        <time>2021-04-10T14:57:19Z</time>
      </trkpt>
      <trkpt lat="44.81113" lon="4.1885">
        <ele>1244</ele>
        <time>2021-04-10T14:57:20Z</time>
      </trkpt>
      <trkpt lat="44.81119" lon="4.18811">
        <ele>1245</ele>
        <time>2021-04-10T14:57:25Z</time>
      </trkpt>
      <trkpt lat="44.81127" lon="4.18783">
        <ele>1246</ele>
        <time>2021-04-10T14:57:29Z</time>
      </trkpt>
      <trkpt lat="44.81136" lon="4.18759">
        <ele>1248</ele>
        <time>2021-04-10T14:57:32Z</time>
      </trkpt>
      <trkpt lat="44.81143" lon="4.18748">
        <ele>1249</ele>
        <time>2021-04-10T14:57:34Z</time>
      </trkpt>
      <trkpt lat="44.8115" lon="4.18743">
        <ele>1249</ele>
        <time>2021-04-10T14:57:35Z</time>
      </trkpt>
      <trkpt lat="44.81156" lon="4.18742">
        <ele>1250</ele>
        <time>2021-04-10T14:57:37Z</time>
      </trkpt>
      <trkpt lat="44.81176" lon="4.18747">
        <ele>1253</ele>
        <time>2021-04-10T14:57:40Z</time>
      </trkpt>
      <trkpt lat="44.81267" lon="4.1878">
        <ele>1261</ele>
        <time>2021-04-10T14:57:57Z</time>
      </trkpt>
      <trkpt lat="44.81281" lon="4.18783">
        <ele>1261</ele>
        <time>2021-04-10T14:57:59Z</time>
      </trkpt>
      <trkpt lat="44.81349" lon="4.18777">
        <ele>1264</ele>
        <time>2021-04-10T14:58:11Z</time>
      </trkpt>
      <trkpt lat="44.81486" lon="4.18768">
        <ele>1277</ele>
        <time>2021-04-10T14:58:36Z</time>
      </trkpt>
      <trkpt lat="44.81511" lon="4.18762">
        <ele>1279</ele>
        <time>2021-04-10T14:58:40Z</time>
      </trkpt>
      <trkpt lat="44.81526" lon="4.18753">
        <ele>1280</ele>
        <time>2021-04-10T14:58:43Z</time>
      </trkpt>
      <trkpt lat="44.81554" lon="4.1872">
        <ele>1283</ele>
        <time>2021-04-10T14:58:50Z</time>
      </trkpt>
      <trkpt lat="44.81551" lon="4.18698">
        <ele>1283</ele>
        <time>2021-04-10T14:58:53Z</time>
      </trkpt>
      <trkpt lat="44.81552" lon="4.18683">
        <ele>1284</ele>
        <time>2021-04-10T14:58:55Z</time>
      </trkpt>
      <trkpt lat="44.81556" lon="4.18665">
        <ele>1285</ele>
        <time>2021-04-10T14:58:57Z</time>
      </trkpt>
      <trkpt lat="44.81608" lon="4.18483">
        <ele>1291</ele>
        <time>2021-04-10T14:59:22Z</time>
      </trkpt>
      <trkpt lat="44.81617" lon="4.18465">
        <ele>1291</ele>
        <time>2021-04-10T14:59:24Z</time>
      </trkpt>
      <trkpt lat="44.81638" lon="4.18436">
        <ele>1293</ele>
        <time>2021-04-10T14:59:30Z</time>
      </trkpt>
      <trkpt lat="44.81741" lon="4.1832">
        <ele>1298</ele>
        <time>2021-04-10T14:59:53Z</time>
      </trkpt>
      <trkpt lat="44.81757" lon="4.18299">
        <ele>1298</ele>
        <time>2021-04-10T14:59:57Z</time>
      </trkpt>
      <trkpt lat="44.81766" lon="4.18281">
        <ele>1298</ele>
        <time>2021-04-10T15:00:00Z</time>
      </trkpt>
      <trkpt lat="44.81776" lon="4.18254">
        <ele>1297</ele>
        <time>2021-04-10T15:00:04Z</time>
      </trkpt>
      <trkpt lat="44.8178" lon="4.18237">
        <ele>1297</ele>
        <time>2021-04-10T15:00:06Z</time>
      </trkpt>
      <trkpt lat="44.81783" lon="4.18214">
        <ele>1296</ele>
        <time>2021-04-10T15:00:09Z</time>
      </trkpt>
      <trkpt lat="44.81783" lon="4.18193">
        <ele>1296</ele>
        <time>2021-04-10T15:00:12Z</time>
      </trkpt>
      <trkpt lat="44.8178" lon="4.18161">
        <ele>1295</ele>
        <time>2021-04-10T15:00:16Z</time>
      </trkpt>
      <trkpt lat="44.81715" lon="4.17717">
        <ele>1277</ele>
        <time>2021-04-10T15:01:13Z</time>
      </trkpt>
      <trkpt lat="44.81713" lon="4.1769">
        <ele>1277</ele>
        <time>2021-04-10T15:01:16Z</time>
      </trkpt>
      <trkpt lat="44.81713" lon="4.17669">
        <ele>1277</ele>
        <time>2021-04-10T15:01:19Z</time>
      </trkpt>
      <trkpt lat="44.81715" lon="4.17651">
        <ele>1277</ele>
        <time>2021-04-10T15:01:21Z</time>
      </trkpt>
      <trkpt lat="44.81722" lon="4.17629">
        <ele>1277</ele>
        <time>2021-04-10T15:01:24Z</time>
      </trkpt>
      <trkpt lat="44.81742" lon="4.17599">
        <ele>1275</ele>
        <time>2021-04-10T15:01:29Z</time>
      </trkpt>
      <trkpt lat="44.81851" lon="4.17468">
        <ele>1269</ele>
        <time>2021-04-10T15:01:55Z</time>
      </trkpt>
      <trkpt lat="44.81862" lon="4.17449">
        <ele>1268</ele>
        <time>2021-04-10T15:01:58Z</time>
      </trkpt>
      <trkpt lat="44.81875" lon="4.17417">
        <ele>1266</ele>
        <time>2021-04-10T15:02:03Z</time>
      </trkpt>
      <trkpt lat="44.81907" lon="4.17291">
        <ele>1260</ele>
        <time>2021-04-10T15:02:20Z</time>
      </trkpt>
      <trkpt lat="44.81919" lon="4.17255">
        <ele>1259</ele>
        <time>2021-04-10T15:02:25Z</time>
      </trkpt>
      <trkpt lat="44.81929" lon="4.17228">
        <ele>1258</ele>
        <time>2021-04-10T15:02:28Z</time>
      </trkpt>
      <trkpt lat="44.81942" lon="4.17205">
        <ele>1256</ele>
        <time>2021-04-10T15:02:32Z</time>
      </trkpt>
      <trkpt lat="44.81957" lon="4.17184">
        <ele>1255</ele>
        <time>2021-04-10T15:02:36Z</time>
      </trkpt>
      <trkpt lat="44.81973" lon="4.17166">
        <ele>1254</ele>
        <time>2021-04-10T15:02:40Z</time>
      </trkpt>
      <trkpt lat="44.81992" lon="4.17152">
        <ele>1252</ele>
        <time>2021-04-10T15:02:43Z</time>
      </trkpt>
      <trkpt lat="44.82017" lon="4.17134">
        <ele>1252</ele>
        <time>2021-04-10T15:02:48Z</time>
      </trkpt>
      <trkpt lat="44.82047" lon="4.17106">
        <ele>1252</ele>
        <time>2021-04-10T15:02:55Z</time>
      </trkpt>
      <trkpt lat="44.82061" lon="4.17088">
        <ele>1252</ele>
        <time>2021-04-10T15:02:58Z</time>
      </trkpt>
      <trkpt lat="44.82071" lon="4.17071">
        <ele>1252</ele>
        <time>2021-04-10T15:03:01Z</time>
      </trkpt>
      <trkpt lat="44.82079" lon="4.17051">
        <ele>1252</ele>
        <time>2021-04-10T15:03:04Z</time>
      </trkpt>
      <trkpt lat="44.82202" lon="4.16662">
        <ele>1264</ele>
        <time>2021-04-10T15:03:58Z</time>
      </trkpt>
      <trkpt lat="44.8221" lon="4.16629">
        <ele>1264</ele>
        <time>2021-04-10T15:04:02Z</time>
      </trkpt>
      <trkpt lat="44.82221" lon="4.16555">
        <ele>1264</ele>
        <time>2021-04-10T15:04:11Z</time>
      </trkpt>
      <trkpt lat="44.82227" lon="4.1649">
        <ele>1264</ele>
        <time>2021-04-10T15:04:20Z</time>
      </trkpt>
      <trkpt lat="44.82232" lon="4.1646">
        <ele>1265</ele>
        <time>2021-04-10T15:04:24Z</time>
      </trkpt>
      <trkpt lat="44.82237" lon="4.16436">
        <ele>1265</ele>
        <time>2021-04-10T15:04:27Z</time>
      </trkpt>
      <trkpt lat="44.82258" lon="4.16387">
        <ele>1264</ele>
        <time>2021-04-10T15:04:34Z</time>
      </trkpt>
      <trkpt lat="44.8227" lon="4.16366">
        <ele>1264</ele>
        <time>2021-04-10T15:04:37Z</time>
      </trkpt>
      <trkpt lat="44.82295" lon="4.16338">
        <ele>1263</ele>
        <time>2021-04-10T15:04:43Z</time>
      </trkpt>
      <trkpt lat="44.82325" lon="4.16316">
        <ele>1261</ele>
        <time>2021-04-10T15:04:49Z</time>
      </trkpt>
      <trkpt lat="44.82467" lon="4.16234">
        <ele>1258</ele>
        <time>2021-04-10T15:05:16Z</time>
      </trkpt>
      <trkpt lat="44.82503" lon="4.16209">
        <ele>1257</ele>
        <time>2021-04-10T15:05:24Z</time>
      </trkpt>
      <trkpt lat="44.82533" lon="4.16185">
        <ele>1256</ele>
        <time>2021-04-10T15:05:30Z</time>
      </trkpt>
      <trkpt lat="44.82643" lon="4.16081">
        <ele>1251</ele>
        <time>2021-04-10T15:05:53Z</time>
      </trkpt>
      <trkpt lat="44.82669" lon="4.16066">
        <ele>1252</ele>
        <time>2021-04-10T15:05:58Z</time>
      </trkpt>
      <trkpt lat="44.82704" lon="4.16057">
        <ele>1251</ele>
        <time>2021-04-10T15:06:05Z</time>
      </trkpt>
      <trkpt lat="44.82717" lon="4.16046">
        <ele>1250</ele>
        <time>2021-04-10T15:06:07Z</time>
      </trkpt>
      <trkpt lat="44.82747" lon="4.1605">
        <ele>1250</ele>
        <time>2021-04-10T15:06:13Z</time>
      </trkpt>
      <trkpt lat="44.82772" lon="4.16065">
        <ele>1251</ele>
        <time>2021-04-10T15:06:18Z</time>
      </trkpt>
      <trkpt lat="44.82809" lon="4.16106">
        <ele>1252</ele>
        <time>2021-04-10T15:06:26Z</time>
      </trkpt>
      <trkpt lat="44.82825" lon="4.16113">
        <ele>1250</ele>
        <time>2021-04-10T15:06:29Z</time>
      </trkpt>
      <trkpt lat="44.82836" lon="4.16113">
        <ele>1250</ele>
        <time>2021-04-10T15:06:31Z</time>
      </trkpt>
      <trkpt lat="44.82848" lon="4.1611">
        <ele>1250</ele>
        <time>2021-04-10T15:06:33Z</time>
      </trkpt>
      <trkpt lat="44.82867" lon="4.16089">
        <ele>1251</ele>
        <time>2021-04-10T15:06:37Z</time>
      </trkpt>
      <trkpt lat="44.82874" lon="4.16075">
        <ele>1252</ele>
        <time>2021-04-10T15:06:39Z</time>
      </trkpt>
      <trkpt lat="44.82878" lon="4.1606">
        <ele>1253</ele>
        <time>2021-04-10T15:06:41Z</time>
      </trkpt>
      <trkpt lat="44.82879" lon="4.16038">
        <ele>1254</ele>
        <time>2021-04-10T15:06:44Z</time>
      </trkpt>
      <trkpt lat="44.82868" lon="4.15996">
        <ele>1255</ele>
        <time>2021-04-10T15:06:50Z</time>
      </trkpt>
      <trkpt lat="44.82848" lon="4.15939">
        <ele>1256</ele>
        <time>2021-04-10T15:06:58Z</time>
      </trkpt>
      <trkpt lat="44.82842" lon="4.15916">
        <ele>1257</ele>
        <time>2021-04-10T15:07:01Z</time>
      </trkpt>
      <trkpt lat="44.82843" lon="4.15869">
        <ele>1260</ele>
        <time>2021-04-10T15:07:07Z</time>
      </trkpt>
      <trkpt lat="44.82848" lon="4.15822">
        <ele>1263</ele>
        <time>2021-04-10T15:07:13Z</time>
      </trkpt>
      <trkpt lat="44.82856" lon="4.1578">
        <ele>1264</ele>
        <time>2021-04-10T15:07:18Z</time>
      </trkpt>
      <trkpt lat="44.82864" lon="4.15761">
        <ele>1264</ele>
        <time>2021-04-10T15:07:21Z</time>
      </trkpt>
      <trkpt lat="44.82874" lon="4.15744">
        <ele>1265</ele>
        <time>2021-04-10T15:07:24Z</time>
      </trkpt>
      <trkpt lat="44.82945" lon="4.1566">
        <ele>1269</ele>
        <time>2021-04-10T15:07:40Z</time>
      </trkpt>
      <trkpt lat="44.82959" lon="4.15638">
        <ele>1270</ele>
        <time>2021-04-10T15:07:44Z</time>
      </trkpt>
      <trkpt lat="44.82985" lon="4.15588">
        <ele>1272</ele>
        <time>2021-04-10T15:07:52Z</time>
      </trkpt>
      <trkpt lat="44.83022" lon="4.15502">
        <ele>1273</ele>
        <time>2021-04-10T15:08:05Z</time>
      </trkpt>
      <trkpt lat="44.83036" lon="4.15474">
        <ele>1274</ele>
        <time>2021-04-10T15:08:09Z</time>
      </trkpt>
      <trkpt lat="44.83051" lon="4.15448">
        <ele>1275</ele>
        <time>2021-04-10T15:08:13Z</time>
      </trkpt>
      <trkpt lat="44.83112" lon="4.15355">
        <ele>1281</ele>
        <time>2021-04-10T15:08:29Z</time>
      </trkpt>
      <trkpt lat="44.83134" lon="4.15304">
        <ele>1285</ele>
        <time>2021-04-10T15:08:37Z</time>
      </trkpt>
      <trkpt lat="44.83143" lon="4.15264">
        <ele>1286</ele>
        <time>2021-04-10T15:08:42Z</time>
      </trkpt>
      <trkpt lat="44.83144" lon="4.15248">
        <ele>1286</ele>
        <time>2021-04-10T15:08:44Z</time>
      </trkpt>
      <trkpt lat="44.83143" lon="4.15226">
        <ele>1287</ele>
        <time>2021-04-10T15:08:47Z</time>
      </trkpt>
      <trkpt lat="44.83122" lon="4.1497">
        <ele>1290</ele>
        <time>2021-04-10T15:09:19Z</time>
      </trkpt>
      <trkpt lat="44.83121" lon="4.1495">
        <ele>1289</ele>
        <time>2021-04-10T15:09:22Z</time>
      </trkpt>
      <trkpt lat="44.83123" lon="4.14941">
        <ele>1289</ele>
        <time>2021-04-10T15:09:23Z</time>
      </trkpt>
      <trkpt lat="44.83127" lon="4.14921">
        <ele>1288</ele>
        <time>2021-04-10T15:09:26Z</time>
      </trkpt>
      <trkpt lat="44.83134" lon="4.14908">
        <ele>1288</ele>
        <time>2021-04-10T15:09:28Z</time>
      </trkpt>
      <trkpt lat="44.83156" lon="4.14879">
        <ele>1285</ele>
        <time>2021-04-10T15:09:33Z</time>
      </trkpt>
      <trkpt lat="44.83293" lon="4.14744">
        <ele>1277</ele>
        <time>2021-04-10T15:10:03Z</time>
      </trkpt>
      <trkpt lat="44.83311" lon="4.14729">
        <ele>1275</ele>
        <time>2021-04-10T15:10:07Z</time>
      </trkpt>
      <trkpt lat="44.83329" lon="4.14718">
        <ele>1273</ele>
        <time>2021-04-10T15:10:10Z</time>
      </trkpt>
      <trkpt lat="44.83349" lon="4.14712">
        <ele>1273</ele>
        <time>2021-04-10T15:10:14Z</time>
      </trkpt>
      <trkpt lat="44.83413" lon="4.147">
        <ele>1272</ele>
        <time>2021-04-10T15:10:25Z</time>
      </trkpt>
      <trkpt lat="44.83433" lon="4.14692">
        <ele>1272</ele>
        <time>2021-04-10T15:10:29Z</time>
      </trkpt>
      <trkpt lat="44.83452" lon="4.14678">
        <ele>1272</ele>
        <time>2021-04-10T15:10:33Z</time>
      </trkpt>
      <trkpt lat="44.83471" lon="4.1466">
        <ele>1271</ele>
        <time>2021-04-10T15:10:37Z</time>
      </trkpt>
      <trkpt lat="44.83505" lon="4.14617">
        <ele>1268</ele>
        <time>2021-04-10T15:10:45Z</time>
      </trkpt>
      <trkpt lat="44.83632" lon="4.14443">
        <ele>1259</ele>
        <time>2021-04-10T15:11:16Z</time>
      </trkpt>
      <trkpt lat="44.8367" lon="4.14398">
        <ele>1256</ele>
        <time>2021-04-10T15:11:25Z</time>
      </trkpt>
      <trkpt lat="44.8371" lon="4.14359">
        <ele>1255</ele>
        <time>2021-04-10T15:11:34Z</time>
      </trkpt>
      <trkpt lat="44.83729" lon="4.14338">
        <ele>1254</ele>
        <time>2021-04-10T15:11:38Z</time>
      </trkpt>
      <trkpt lat="44.83886" lon="4.14135">
        <ele>1244</ele>
        <time>2021-04-10T15:12:16Z</time>
      </trkpt>
      <trkpt lat="44.83902" lon="4.14108">
        <ele>1243</ele>
        <time>2021-04-10T15:12:21Z</time>
      </trkpt>
      <trkpt lat="44.83981" lon="4.13947">
        <ele>1237</ele>
        <time>2021-04-10T15:12:45Z</time>
      </trkpt>
      <trkpt lat="44.84001" lon="4.13911">
        <ele>1236</ele>
        <time>2021-04-10T15:12:51Z</time>
      </trkpt>
      <trkpt lat="44.84013" lon="4.13894">
        <ele>1235</ele>
        <time>2021-04-10T15:12:54Z</time>
      </trkpt>
      <trkpt lat="44.84032" lon="4.13874">
        <ele>1233</ele>
        <time>2021-04-10T15:12:58Z</time>
      </trkpt>
      <trkpt lat="44.84058" lon="4.13851">
        <ele>1232</ele>
        <time>2021-04-10T15:13:04Z</time>
      </trkpt>
      <trkpt lat="44.84073" lon="4.1384">
        <ele>1231</ele>
        <time>2021-04-10T15:13:07Z</time>
      </trkpt>
      <trkpt lat="44.84086" lon="4.13837">
        <ele>1230</ele>
        <time>2021-04-10T15:13:09Z</time>
      </trkpt>
      <trkpt lat="44.84118" lon="4.1384">
        <ele>1229</ele>
        <time>2021-04-10T15:13:15Z</time>
      </trkpt>
      <trkpt lat="44.84133" lon="4.13834">
        <ele>1228</ele>
        <time>2021-04-10T15:13:18Z</time>
      </trkpt>
      <trkpt lat="44.84164" lon="4.13786">
        <ele>1227</ele>
        <time>2021-04-10T15:13:26Z</time>
      </trkpt>
      <trkpt lat="44.84188" lon="4.13748">
        <ele>1229</ele>
        <time>2021-04-10T15:13:32Z</time>
      </trkpt>
      <trkpt lat="44.84225" lon="4.13685">
        <ele>1232</ele>
        <time>2021-04-10T15:13:43Z</time>
      </trkpt>
      <trkpt lat="44.84231" lon="4.13666">
        <ele>1233</ele>
        <time>2021-04-10T15:13:45Z</time>
      </trkpt>
      <trkpt lat="44.84234" lon="4.13649">
        <ele>1234</ele>
        <time>2021-04-10T15:13:47Z</time>
      </trkpt>
      <trkpt lat="44.84236" lon="4.13631">
        <ele>1234</ele>
        <time>2021-04-10T15:13:50Z</time>
      </trkpt>
      <trkpt lat="44.84237" lon="4.13629">
        <ele>1234</ele>
        <time>2021-04-10T15:13:50Z</time>
      </trkpt>
      <trkpt lat="44.84238" lon="4.13588">
        <ele>1236</ele>
        <time>2021-04-10T15:13:55Z</time>
      </trkpt>
      <trkpt lat="44.8424" lon="4.13558">
        <ele>1236</ele>
        <time>2021-04-10T15:13:59Z</time>
      </trkpt>
      <trkpt lat="44.84247" lon="4.13519">
        <ele>1237</ele>
        <time>2021-04-10T15:14:04Z</time>
      </trkpt>
      <trkpt lat="44.84262" lon="4.1346">
        <ele>1240</ele>
        <time>2021-04-10T15:14:12Z</time>
      </trkpt>
      <trkpt lat="44.84271" lon="4.1343">
        <ele>1241</ele>
        <time>2021-04-10T15:14:16Z</time>
      </trkpt>
      <trkpt lat="44.84283" lon="4.13401">
        <ele>1243</ele>
        <time>2021-04-10T15:14:20Z</time>
      </trkpt>
      <trkpt lat="44.84369" lon="4.13215">
        <ele>1254</ele>
        <time>2021-04-10T15:14:48Z</time>
      </trkpt>
      <trkpt lat="44.84374" lon="4.13196">
        <ele>1255</ele>
        <time>2021-04-10T15:14:51Z</time>
      </trkpt>
      <trkpt lat="44.84376" lon="4.13177">
        <ele>1256</ele>
        <time>2021-04-10T15:14:53Z</time>
      </trkpt>
      <trkpt lat="44.84374" lon="4.13161">
        <ele>1256</ele>
        <time>2021-04-10T15:14:55Z</time>
      </trkpt>
      <trkpt lat="44.84371" lon="4.13148">
        <ele>1256</ele>
        <time>2021-04-10T15:14:57Z</time>
      </trkpt>
      <trkpt lat="44.8437" lon="4.13142">
        <ele>1256</ele>
        <time>2021-04-10T15:14:58Z</time>
      </trkpt>
      <trkpt lat="44.84346" lon="4.13079">
        <ele>1256</ele>
        <time>2021-04-10T15:15:07Z</time>
      </trkpt>
      <trkpt lat="44.84343" lon="4.13064">
        <ele>1256</ele>
        <time>2021-04-10T15:15:09Z</time>
      </trkpt>
      <trkpt lat="44.84343" lon="4.13048">
        <ele>1256</ele>
        <time>2021-04-10T15:15:11Z</time>
      </trkpt>
      <trkpt lat="44.84346" lon="4.13032">
        <ele>1257</ele>
        <time>2021-04-10T15:15:13Z</time>
      </trkpt>
      <trkpt lat="44.84352" lon="4.13016">
        <ele>1258</ele>
        <time>2021-04-10T15:15:15Z</time>
      </trkpt>
      <trkpt lat="44.84361" lon="4.13001">
        <ele>1259</ele>
        <time>2021-04-10T15:15:18Z</time>
      </trkpt>
      <trkpt lat="44.84372" lon="4.12989">
        <ele>1259</ele>
        <time>2021-04-10T15:15:20Z</time>
      </trkpt>
      <trkpt lat="44.8438" lon="4.12983">
        <ele>1259</ele>
        <time>2021-04-10T15:15:22Z</time>
      </trkpt>
      <trkpt lat="44.84391" lon="4.12977">
        <ele>1259</ele>
        <time>2021-04-10T15:15:24Z</time>
      </trkpt>
      <trkpt lat="44.84482" lon="4.12968">
        <ele>1257</ele>
        <time>2021-04-10T15:15:40Z</time>
      </trkpt>
      <trkpt lat="44.84496" lon="4.12965">
        <ele>1257</ele>
        <time>2021-04-10T15:15:43Z</time>
      </trkpt>
      <trkpt lat="44.84508" lon="4.12957">
        <ele>1256</ele>
        <time>2021-04-10T15:15:45Z</time>
      </trkpt>
      <trkpt lat="44.84545" lon="4.12922">
        <ele>1254</ele>
        <time>2021-04-10T15:15:53Z</time>
      </trkpt>
      <trkpt lat="44.84574" lon="4.12886">
        <ele>1251</ele>
        <time>2021-04-10T15:16:00Z</time>
      </trkpt>
      <trkpt lat="44.8458" lon="4.12876">
        <ele>1251</ele>
        <time>2021-04-10T15:16:01Z</time>
      </trkpt>
      <trkpt lat="44.84595" lon="4.12837">
        <ele>1250</ele>
        <time>2021-04-10T15:16:07Z</time>
      </trkpt>
      <trkpt lat="44.84627" lon="4.12762">
        <ele>1249</ele>
        <time>2021-04-10T15:16:18Z</time>
      </trkpt>
      <trkpt lat="44.84633" lon="4.12744">
        <ele>1249</ele>
        <time>2021-04-10T15:16:21Z</time>
      </trkpt>
      <trkpt lat="44.84637" lon="4.12706">
        <ele>1246</ele>
        <time>2021-04-10T15:16:25Z</time>
      </trkpt>
      <trkpt lat="44.84638" lon="4.12673">
        <ele>1242</ele>
        <time>2021-04-10T15:16:30Z</time>
      </trkpt>
      <trkpt lat="44.84638" lon="4.12645">
        <ele>1240</ele>
        <time>2021-04-10T15:16:33Z</time>
      </trkpt>
      <trkpt lat="44.84636" lon="4.12551">
        <ele>1233</ele>
        <time>2021-04-10T15:16:45Z</time>
      </trkpt>
      <trkpt lat="44.84638" lon="4.12531">
        <ele>1232</ele>
        <time>2021-04-10T15:16:48Z</time>
      </trkpt>
      <trkpt lat="44.84642" lon="4.12518">
        <ele>1232</ele>
        <time>2021-04-10T15:16:49Z</time>
      </trkpt>
      <trkpt lat="44.84659" lon="4.12485">
        <ele>1234</ele>
        <time>2021-04-10T15:16:54Z</time>
      </trkpt>
      <trkpt lat="44.8467" lon="4.12455">
        <ele>1233</ele>
        <time>2021-04-10T15:16:59Z</time>
      </trkpt>
      <trkpt lat="44.84693" lon="4.12388">
        <ele>1230</ele>
        <time>2021-04-10T15:17:08Z</time>
      </trkpt>
      <trkpt lat="44.84683" lon="4.12378">
        <ele>1228</ele>
        <time>2021-04-10T15:17:10Z</time>
      </trkpt>
      <trkpt lat="44.84674" lon="4.12341">
        <ele>1224</ele>
        <time>2021-04-10T15:17:15Z</time>
      </trkpt>
      <trkpt lat="44.84663" lon="4.12317">
        <ele>1220</ele>
        <time>2021-04-10T15:17:19Z</time>
      </trkpt>
      <trkpt lat="44.84664" lon="4.12303">
        <ele>1218</ele>
        <time>2021-04-10T15:17:21Z</time>
      </trkpt>
      <trkpt lat="44.84708" lon="4.12231">
        <ele>1217</ele>
        <time>2021-04-10T15:17:33Z</time>
      </trkpt>
      <trkpt lat="44.84709" lon="4.12224">
        <ele>1217</ele>
        <time>2021-04-10T15:17:34Z</time>
      </trkpt>
      <trkpt lat="44.84708" lon="4.12216">
        <ele>1216</ele>
        <time>2021-04-10T15:17:35Z</time>
      </trkpt>
      <trkpt lat="44.84702" lon="4.12211">
        <ele>1214</ele>
        <time>2021-04-10T15:17:36Z</time>
      </trkpt>
      <trkpt lat="44.84696" lon="4.12212">
        <ele>1214</ele>
        <time>2021-04-10T15:17:37Z</time>
      </trkpt>
      <trkpt lat="44.84651" lon="4.12256">
        <ele>1212</ele>
        <time>2021-04-10T15:17:47Z</time>
      </trkpt>
      <trkpt lat="44.84638" lon="4.12258">
        <ele>1211</ele>
        <time>2021-04-10T15:17:49Z</time>
      </trkpt>
      <trkpt lat="44.84634" lon="4.12233">
        <ele>1208</ele>
        <time>2021-04-10T15:17:52Z</time>
      </trkpt>
      <trkpt lat="44.8468" lon="4.12164">
        <ele>1207</ele>
        <time>2021-04-10T15:18:04Z</time>
      </trkpt>
      <trkpt lat="44.8467" lon="4.12144">
        <ele>1204</ele>
        <time>2021-04-10T15:18:07Z</time>
      </trkpt>
      <trkpt lat="44.84709" lon="4.12109">
        <ele>1205</ele>
        <time>2021-04-10T15:18:15Z</time>
      </trkpt>
      <trkpt lat="44.84723" lon="4.12094">
        <ele>1204</ele>
        <time>2021-04-10T15:18:19Z</time>
      </trkpt>
      <trkpt lat="44.84741" lon="4.12072">
        <ele>1204</ele>
        <time>2021-04-10T15:18:23Z</time>
      </trkpt>
      <trkpt lat="44.84786" lon="4.12007">
        <ele>1199</ele>
        <time>2021-04-10T15:18:34Z</time>
      </trkpt>
      <trkpt lat="44.848" lon="4.11998">
        <ele>1199</ele>
        <time>2021-04-10T15:18:37Z</time>
      </trkpt>
      <trkpt lat="44.84815" lon="4.11995">
        <ele>1199</ele>
        <time>2021-04-10T15:18:40Z</time>
      </trkpt>
      <trkpt lat="44.84827" lon="4.12">
        <ele>1201</ele>
        <time>2021-04-10T15:18:42Z</time>
      </trkpt>
      <trkpt lat="44.84839" lon="4.12001">
        <ele>1202</ele>
        <time>2021-04-10T15:18:44Z</time>
      </trkpt>
      <trkpt lat="44.84847" lon="4.11993">
        <ele>1201</ele>
        <time>2021-04-10T15:18:46Z</time>
      </trkpt>
      <trkpt lat="44.84856" lon="4.11981">
        <ele>1201</ele>
        <time>2021-04-10T15:18:48Z</time>
      </trkpt>
      <trkpt lat="44.84869" lon="4.11952">
        <ele>1199</ele>
        <time>2021-04-10T15:18:52Z</time>
      </trkpt>
      <trkpt lat="44.849" lon="4.11867">
        <ele>1195</ele>
        <time>2021-04-10T15:19:04Z</time>
      </trkpt>
      <trkpt lat="44.84909" lon="4.11857">
        <ele>1195</ele>
        <time>2021-04-10T15:19:06Z</time>
      </trkpt>
      <trkpt lat="44.84898" lon="4.11841">
        <ele>1194</ele>
        <time>2021-04-10T15:19:09Z</time>
      </trkpt>
      <trkpt lat="44.84886" lon="4.1183">
        <ele>1193</ele>
        <time>2021-04-10T15:19:12Z</time>
      </trkpt>
      <trkpt lat="44.84874" lon="4.11829">
        <ele>1193</ele>
        <time>2021-04-10T15:19:14Z</time>
      </trkpt>
      <trkpt lat="44.84872" lon="4.11842">
        <ele>1193</ele>
        <time>2021-04-10T15:19:16Z</time>
      </trkpt>
      <trkpt lat="44.84875" lon="4.11858">
        <ele>1194</ele>
        <time>2021-04-10T15:19:18Z</time>
      </trkpt>
    </trkseg>
  </trk>
</gpx>